<?xml version="1.0" encoding="UTF-8" standalone="no" ?>
<gpx xmlns="http://www.topografix.com/GPX/1/1" xmlns:xsi="http://www.w3.org/2001/XMLSchema-instance" xsi:schemaLocation="http://www.topografix.com/GPX/1/1 http://www.topografix.com/GPX/1/1/gpx.xsd" version="1.1" creator="VisuGPX - https://www.visugpx.com">
  <metadata>
    <name>Diesen - Carrière de Merlebach - Karlsbrunn et retour</name>
    <desc><![CDATA[Randonnée depuis Diesen par Carling, L'Hôpital et la carrière Barrois de Merlebach. Retour par Karlsbrunn et Lauterbach
]]></desc>
  </metadata>
  <trk>
    <name><![CDATA[2020-01-21 09:13:39]]></name>
    <trkseg>
      <trkpt lat="49.17725" lon="6.67559">
        <ele>229</ele>
        <time>2020-01-21T08:15:26.000Z</time>
      </trkpt>
      <trkpt lat="49.17718" lon="6.67591">
        <ele>226</ele>
        <time>2020-01-21T08:15:36.000Z</time>
      </trkpt>
      <trkpt lat="49.17718" lon="6.67587">
        <ele>227</ele>
        <time>2020-01-21T08:15:46.000Z</time>
      </trkpt>
      <trkpt lat="49.17719" lon="6.67584">
        <ele>227</ele>
        <time>2020-01-21T08:15:56.000Z</time>
      </trkpt>
      <trkpt lat="49.17724" lon="6.67584">
        <ele>227</ele>
        <time>2020-01-21T08:16:06.000Z</time>
      </trkpt>
      <trkpt lat="49.17733" lon="6.67575">
        <ele>229</ele>
        <time>2020-01-21T08:16:16.000Z</time>
      </trkpt>
      <trkpt lat="49.17739" lon="6.6758">
        <ele>228</ele>
        <time>2020-01-21T08:16:26.000Z</time>
      </trkpt>
      <trkpt lat="49.17743" lon="6.67598">
        <ele>227</ele>
        <time>2020-01-21T08:16:36.000Z</time>
      </trkpt>
      <trkpt lat="49.17748" lon="6.67621">
        <ele>226</ele>
        <time>2020-01-21T08:16:46.000Z</time>
      </trkpt>
      <trkpt lat="49.17751" lon="6.67641">
        <ele>226</ele>
        <time>2020-01-21T08:16:56.000Z</time>
      </trkpt>
      <trkpt lat="49.17753" lon="6.67659">
        <ele>225</ele>
        <time>2020-01-21T08:17:06.000Z</time>
      </trkpt>
      <trkpt lat="49.17754" lon="6.67678">
        <ele>225</ele>
        <time>2020-01-21T08:17:16.000Z</time>
      </trkpt>
      <trkpt lat="49.17753" lon="6.67698">
        <ele>224</ele>
        <time>2020-01-21T08:17:26.000Z</time>
      </trkpt>
      <trkpt lat="49.17754" lon="6.67718">
        <ele>224</ele>
        <time>2020-01-21T08:17:36.000Z</time>
      </trkpt>
      <trkpt lat="49.17754" lon="6.67738">
        <ele>223</ele>
        <time>2020-01-21T08:17:46.000Z</time>
      </trkpt>
      <trkpt lat="49.1775" lon="6.67756">
        <ele>222</ele>
        <time>2020-01-21T08:17:56.000Z</time>
      </trkpt>
      <trkpt lat="49.1775" lon="6.67773">
        <ele>222</ele>
        <time>2020-01-21T08:18:06.000Z</time>
      </trkpt>
      <trkpt lat="49.17751" lon="6.67785">
        <ele>222</ele>
        <time>2020-01-21T08:18:16.000Z</time>
      </trkpt>
      <trkpt lat="49.17758" lon="6.67775">
        <ele>222</ele>
        <time>2020-01-21T08:18:26.000Z</time>
      </trkpt>
      <trkpt lat="49.17764" lon="6.67773">
        <ele>222</ele>
        <time>2020-01-21T08:18:36.000Z</time>
      </trkpt>
      <trkpt lat="49.17774" lon="6.67785">
        <ele>222</ele>
        <time>2020-01-21T08:18:46.000Z</time>
      </trkpt>
      <trkpt lat="49.17784" lon="6.67803">
        <ele>221</ele>
        <time>2020-01-21T08:18:56.000Z</time>
      </trkpt>
      <trkpt lat="49.17793" lon="6.67819">
        <ele>221</ele>
        <time>2020-01-21T08:19:06.000Z</time>
      </trkpt>
      <trkpt lat="49.17804" lon="6.67828">
        <ele>220</ele>
        <time>2020-01-21T08:19:16.000Z</time>
      </trkpt>
      <trkpt lat="49.17817" lon="6.67831">
        <ele>220</ele>
        <time>2020-01-21T08:19:26.000Z</time>
      </trkpt>
      <trkpt lat="49.17827" lon="6.67833">
        <ele>219</ele>
        <time>2020-01-21T08:19:36.000Z</time>
      </trkpt>
      <trkpt lat="49.17836" lon="6.67841">
        <ele>218</ele>
        <time>2020-01-21T08:19:46.000Z</time>
      </trkpt>
      <trkpt lat="49.17847" lon="6.67844">
        <ele>218</ele>
        <time>2020-01-21T08:19:56.000Z</time>
      </trkpt>
      <trkpt lat="49.1786" lon="6.67847">
        <ele>219</ele>
        <time>2020-01-21T08:20:06.000Z</time>
      </trkpt>
      <trkpt lat="49.17872" lon="6.67856">
        <ele>219</ele>
        <time>2020-01-21T08:20:16.000Z</time>
      </trkpt>
      <trkpt lat="49.17883" lon="6.67872">
        <ele>219</ele>
        <time>2020-01-21T08:20:26.000Z</time>
      </trkpt>
      <trkpt lat="49.17889" lon="6.67891">
        <ele>219</ele>
        <time>2020-01-21T08:20:36.000Z</time>
      </trkpt>
      <trkpt lat="49.17895" lon="6.67905">
        <ele>219</ele>
        <time>2020-01-21T08:20:46.000Z</time>
      </trkpt>
      <trkpt lat="49.17898" lon="6.67923">
        <ele>220</ele>
        <time>2020-01-21T08:20:56.000Z</time>
      </trkpt>
      <trkpt lat="49.17894" lon="6.67942">
        <ele>221</ele>
        <time>2020-01-21T08:21:06.000Z</time>
      </trkpt>
      <trkpt lat="49.179" lon="6.67952">
        <ele>221</ele>
        <time>2020-01-21T08:21:16.000Z</time>
      </trkpt>
      <trkpt lat="49.17904" lon="6.67951">
        <ele>221</ele>
        <time>2020-01-21T08:21:26.000Z</time>
      </trkpt>
      <trkpt lat="49.17913" lon="6.67949">
        <ele>221</ele>
        <time>2020-01-21T08:21:36.000Z</time>
      </trkpt>
      <trkpt lat="49.17926" lon="6.67948">
        <ele>222</ele>
        <time>2020-01-21T08:21:46.000Z</time>
      </trkpt>
      <trkpt lat="49.17938" lon="6.67948">
        <ele>222</ele>
        <time>2020-01-21T08:21:56.000Z</time>
      </trkpt>
      <trkpt lat="49.17948" lon="6.6795">
        <ele>223</ele>
        <time>2020-01-21T08:22:06.000Z</time>
      </trkpt>
      <trkpt lat="49.17961" lon="6.67956">
        <ele>223</ele>
        <time>2020-01-21T08:22:16.000Z</time>
      </trkpt>
      <trkpt lat="49.17973" lon="6.67963">
        <ele>224</ele>
        <time>2020-01-21T08:22:26.000Z</time>
      </trkpt>
      <trkpt lat="49.17985" lon="6.67974">
        <ele>226</ele>
        <time>2020-01-21T08:22:36.000Z</time>
      </trkpt>
      <trkpt lat="49.17995" lon="6.67982">
        <ele>227</ele>
        <time>2020-01-21T08:22:46.000Z</time>
      </trkpt>
      <trkpt lat="49.18007" lon="6.67988">
        <ele>228</ele>
        <time>2020-01-21T08:22:56.000Z</time>
      </trkpt>
      <trkpt lat="49.18017" lon="6.67995">
        <ele>228</ele>
        <time>2020-01-21T08:23:06.000Z</time>
      </trkpt>
      <trkpt lat="49.18028" lon="6.68004">
        <ele>232</ele>
        <time>2020-01-21T08:23:16.000Z</time>
      </trkpt>
      <trkpt lat="49.1804" lon="6.68017">
        <ele>231</ele>
        <time>2020-01-21T08:23:26.000Z</time>
      </trkpt>
      <trkpt lat="49.18051" lon="6.68032">
        <ele>232</ele>
        <time>2020-01-21T08:23:36.000Z</time>
      </trkpt>
      <trkpt lat="49.1806" lon="6.68048">
        <ele>232</ele>
        <time>2020-01-21T08:23:46.000Z</time>
      </trkpt>
      <trkpt lat="49.18053" lon="6.68064">
        <ele>233</ele>
        <time>2020-01-21T08:23:56.000Z</time>
      </trkpt>
      <trkpt lat="49.18048" lon="6.68082">
        <ele>234</ele>
        <time>2020-01-21T08:24:06.000Z</time>
      </trkpt>
      <trkpt lat="49.1805" lon="6.68101">
        <ele>236</ele>
        <time>2020-01-21T08:24:16.000Z</time>
      </trkpt>
      <trkpt lat="49.18048" lon="6.68115">
        <ele>236</ele>
        <time>2020-01-21T08:24:26.000Z</time>
      </trkpt>
      <trkpt lat="49.18042" lon="6.68126">
        <ele>237</ele>
        <time>2020-01-21T08:24:36.000Z</time>
      </trkpt>
      <trkpt lat="49.18033" lon="6.68136">
        <ele>237</ele>
        <time>2020-01-21T08:24:46.000Z</time>
      </trkpt>
      <trkpt lat="49.18026" lon="6.68146">
        <ele>238</ele>
        <time>2020-01-21T08:24:56.000Z</time>
      </trkpt>
      <trkpt lat="49.1802" lon="6.68155">
        <ele>239</ele>
        <time>2020-01-21T08:25:06.000Z</time>
      </trkpt>
      <trkpt lat="49.18012" lon="6.68165">
        <ele>240</ele>
        <time>2020-01-21T08:25:16.000Z</time>
      </trkpt>
      <trkpt lat="49.18002" lon="6.68176">
        <ele>240</ele>
        <time>2020-01-21T08:25:26.000Z</time>
      </trkpt>
      <trkpt lat="49.17992" lon="6.68187">
        <ele>241</ele>
        <time>2020-01-21T08:25:36.000Z</time>
      </trkpt>
      <trkpt lat="49.1798" lon="6.68195">
        <ele>241</ele>
        <time>2020-01-21T08:25:46.000Z</time>
      </trkpt>
      <trkpt lat="49.17968" lon="6.68206">
        <ele>241</ele>
        <time>2020-01-21T08:25:56.000Z</time>
      </trkpt>
      <trkpt lat="49.17956" lon="6.68219">
        <ele>241</ele>
        <time>2020-01-21T08:26:06.000Z</time>
      </trkpt>
      <trkpt lat="49.17951" lon="6.68233">
        <ele>241</ele>
        <time>2020-01-21T08:26:16.000Z</time>
      </trkpt>
      <trkpt lat="49.17946" lon="6.68247">
        <ele>241</ele>
        <time>2020-01-21T08:26:26.000Z</time>
      </trkpt>
      <trkpt lat="49.17941" lon="6.68262">
        <ele>242</ele>
        <time>2020-01-21T08:26:36.000Z</time>
      </trkpt>
      <trkpt lat="49.17938" lon="6.6828">
        <ele>242</ele>
        <time>2020-01-21T08:26:46.000Z</time>
      </trkpt>
      <trkpt lat="49.17934" lon="6.68298">
        <ele>242</ele>
        <time>2020-01-21T08:26:56.000Z</time>
      </trkpt>
      <trkpt lat="49.17931" lon="6.68315">
        <ele>243</ele>
        <time>2020-01-21T08:27:06.000Z</time>
      </trkpt>
      <trkpt lat="49.17931" lon="6.68333">
        <ele>243</ele>
        <time>2020-01-21T08:27:16.000Z</time>
      </trkpt>
      <trkpt lat="49.17932" lon="6.68352">
        <ele>243</ele>
        <time>2020-01-21T08:27:26.000Z</time>
      </trkpt>
      <trkpt lat="49.17933" lon="6.68371">
        <ele>243</ele>
        <time>2020-01-21T08:27:36.000Z</time>
      </trkpt>
      <trkpt lat="49.17933" lon="6.68391">
        <ele>243</ele>
        <time>2020-01-21T08:27:46.000Z</time>
      </trkpt>
      <trkpt lat="49.17932" lon="6.68408">
        <ele>243</ele>
        <time>2020-01-21T08:27:56.000Z</time>
      </trkpt>
      <trkpt lat="49.17931" lon="6.68426">
        <ele>243</ele>
        <time>2020-01-21T08:28:06.000Z</time>
      </trkpt>
      <trkpt lat="49.17928" lon="6.68439">
        <ele>243</ele>
        <time>2020-01-21T08:28:16.000Z</time>
      </trkpt>
      <trkpt lat="49.17927" lon="6.68444">
        <ele>242</ele>
        <time>2020-01-21T08:28:26.000Z</time>
      </trkpt>
      <trkpt lat="49.17921" lon="6.68442">
        <ele>243</ele>
        <time>2020-01-21T08:28:38.000Z</time>
      </trkpt>
      <trkpt lat="49.17915" lon="6.68452">
        <ele>243</ele>
        <time>2020-01-21T08:28:48.000Z</time>
      </trkpt>
      <trkpt lat="49.17912" lon="6.68465">
        <ele>243</ele>
        <time>2020-01-21T08:28:58.000Z</time>
      </trkpt>
      <trkpt lat="49.17911" lon="6.68487">
        <ele>242</ele>
        <time>2020-01-21T08:29:08.000Z</time>
      </trkpt>
      <trkpt lat="49.17915" lon="6.68504">
        <ele>242</ele>
        <time>2020-01-21T08:29:18.000Z</time>
      </trkpt>
      <trkpt lat="49.1792" lon="6.68517">
        <ele>242</ele>
        <time>2020-01-21T08:29:28.000Z</time>
      </trkpt>
      <trkpt lat="49.17924" lon="6.68534">
        <ele>241</ele>
        <time>2020-01-21T08:29:38.000Z</time>
      </trkpt>
      <trkpt lat="49.17929" lon="6.68551">
        <ele>241</ele>
        <time>2020-01-21T08:29:48.000Z</time>
      </trkpt>
      <trkpt lat="49.17935" lon="6.68567">
        <ele>241</ele>
        <time>2020-01-21T08:29:58.000Z</time>
      </trkpt>
      <trkpt lat="49.17942" lon="6.68582">
        <ele>241</ele>
        <time>2020-01-21T08:30:08.000Z</time>
      </trkpt>
      <trkpt lat="49.1795" lon="6.68596">
        <ele>241</ele>
        <time>2020-01-21T08:30:18.000Z</time>
      </trkpt>
      <trkpt lat="49.17959" lon="6.68611">
        <ele>241</ele>
        <time>2020-01-21T08:30:28.000Z</time>
      </trkpt>
      <trkpt lat="49.17968" lon="6.68625">
        <ele>241</ele>
        <time>2020-01-21T08:30:38.000Z</time>
      </trkpt>
      <trkpt lat="49.17976" lon="6.68637">
        <ele>242</ele>
        <time>2020-01-21T08:30:48.000Z</time>
      </trkpt>
      <trkpt lat="49.17985" lon="6.68654">
        <ele>242</ele>
        <time>2020-01-21T08:30:58.000Z</time>
      </trkpt>
      <trkpt lat="49.17996" lon="6.68669">
        <ele>243</ele>
        <time>2020-01-21T08:31:08.000Z</time>
      </trkpt>
      <trkpt lat="49.18005" lon="6.68682">
        <ele>244</ele>
        <time>2020-01-21T08:31:18.000Z</time>
      </trkpt>
      <trkpt lat="49.18013" lon="6.68694">
        <ele>244</ele>
        <time>2020-01-21T08:31:28.000Z</time>
      </trkpt>
      <trkpt lat="49.18022" lon="6.68708">
        <ele>244</ele>
        <time>2020-01-21T08:31:38.000Z</time>
      </trkpt>
      <trkpt lat="49.18032" lon="6.68721">
        <ele>244</ele>
        <time>2020-01-21T08:31:48.000Z</time>
      </trkpt>
      <trkpt lat="49.18041" lon="6.68732">
        <ele>244</ele>
        <time>2020-01-21T08:31:58.000Z</time>
      </trkpt>
      <trkpt lat="49.18051" lon="6.68742">
        <ele>245</ele>
        <time>2020-01-21T08:32:08.000Z</time>
      </trkpt>
      <trkpt lat="49.1806" lon="6.68757">
        <ele>245</ele>
        <time>2020-01-21T08:32:18.000Z</time>
      </trkpt>
      <trkpt lat="49.18068" lon="6.68772">
        <ele>245</ele>
        <time>2020-01-21T08:32:28.000Z</time>
      </trkpt>
      <trkpt lat="49.18076" lon="6.68789">
        <ele>245</ele>
        <time>2020-01-21T08:32:38.000Z</time>
      </trkpt>
      <trkpt lat="49.18085" lon="6.68806">
        <ele>250</ele>
        <time>2020-01-21T08:32:48.000Z</time>
      </trkpt>
      <trkpt lat="49.18093" lon="6.68825">
        <ele>249</ele>
        <time>2020-01-21T08:32:58.000Z</time>
      </trkpt>
      <trkpt lat="49.181" lon="6.6884">
        <ele>249</ele>
        <time>2020-01-21T08:33:08.000Z</time>
      </trkpt>
      <trkpt lat="49.18107" lon="6.68856">
        <ele>250</ele>
        <time>2020-01-21T08:33:18.000Z</time>
      </trkpt>
      <trkpt lat="49.18115" lon="6.68869">
        <ele>251</ele>
        <time>2020-01-21T08:33:28.000Z</time>
      </trkpt>
      <trkpt lat="49.18123" lon="6.6888">
        <ele>251</ele>
        <time>2020-01-21T08:33:38.000Z</time>
      </trkpt>
      <trkpt lat="49.1813" lon="6.68892">
        <ele>251</ele>
        <time>2020-01-21T08:33:48.000Z</time>
      </trkpt>
      <trkpt lat="49.18137" lon="6.68902">
        <ele>251</ele>
        <time>2020-01-21T08:33:58.000Z</time>
      </trkpt>
      <trkpt lat="49.18146" lon="6.68913">
        <ele>251</ele>
        <time>2020-01-21T08:34:08.000Z</time>
      </trkpt>
      <trkpt lat="49.18156" lon="6.68926">
        <ele>252</ele>
        <time>2020-01-21T08:34:18.000Z</time>
      </trkpt>
      <trkpt lat="49.18168" lon="6.6893">
        <ele>253</ele>
        <time>2020-01-21T08:34:28.000Z</time>
      </trkpt>
      <trkpt lat="49.1818" lon="6.68926">
        <ele>253</ele>
        <time>2020-01-21T08:34:38.000Z</time>
      </trkpt>
      <trkpt lat="49.1819" lon="6.68919">
        <ele>253</ele>
        <time>2020-01-21T08:34:48.000Z</time>
      </trkpt>
      <trkpt lat="49.182" lon="6.6891">
        <ele>253</ele>
        <time>2020-01-21T08:34:58.000Z</time>
      </trkpt>
      <trkpt lat="49.18209" lon="6.689">
        <ele>253</ele>
        <time>2020-01-21T08:35:08.000Z</time>
      </trkpt>
      <trkpt lat="49.18219" lon="6.6889">
        <ele>253</ele>
        <time>2020-01-21T08:35:18.000Z</time>
      </trkpt>
      <trkpt lat="49.18228" lon="6.6888">
        <ele>254</ele>
        <time>2020-01-21T08:35:28.000Z</time>
      </trkpt>
      <trkpt lat="49.1824" lon="6.68866">
        <ele>254</ele>
        <time>2020-01-21T08:35:38.000Z</time>
      </trkpt>
      <trkpt lat="49.18252" lon="6.68866">
        <ele>253</ele>
        <time>2020-01-21T08:35:48.000Z</time>
      </trkpt>
      <trkpt lat="49.18262" lon="6.68882">
        <ele>253</ele>
        <time>2020-01-21T08:35:58.000Z</time>
      </trkpt>
      <trkpt lat="49.18272" lon="6.689">
        <ele>252</ele>
        <time>2020-01-21T08:36:08.000Z</time>
      </trkpt>
      <trkpt lat="49.1828" lon="6.68918">
        <ele>254</ele>
        <time>2020-01-21T08:36:18.000Z</time>
      </trkpt>
      <trkpt lat="49.18287" lon="6.68933">
        <ele>255</ele>
        <time>2020-01-21T08:36:28.000Z</time>
      </trkpt>
      <trkpt lat="49.18293" lon="6.6895">
        <ele>255</ele>
        <time>2020-01-21T08:36:38.000Z</time>
      </trkpt>
      <trkpt lat="49.18299" lon="6.68964">
        <ele>256</ele>
        <time>2020-01-21T08:36:48.000Z</time>
      </trkpt>
      <trkpt lat="49.18305" lon="6.68979">
        <ele>256</ele>
        <time>2020-01-21T08:36:58.000Z</time>
      </trkpt>
      <trkpt lat="49.18312" lon="6.68996">
        <ele>257</ele>
        <time>2020-01-21T08:37:08.000Z</time>
      </trkpt>
      <trkpt lat="49.18321" lon="6.69008">
        <ele>259</ele>
        <time>2020-01-21T08:37:18.000Z</time>
      </trkpt>
      <trkpt lat="49.1833" lon="6.69012">
        <ele>259</ele>
        <time>2020-01-21T08:37:28.000Z</time>
      </trkpt>
      <trkpt lat="49.18339" lon="6.69016">
        <ele>257</ele>
        <time>2020-01-21T08:37:38.000Z</time>
      </trkpt>
      <trkpt lat="49.18352" lon="6.69023">
        <ele>257</ele>
        <time>2020-01-21T08:37:48.000Z</time>
      </trkpt>
      <trkpt lat="49.18365" lon="6.69028">
        <ele>256</ele>
        <time>2020-01-21T08:37:58.000Z</time>
      </trkpt>
      <trkpt lat="49.18376" lon="6.69031">
        <ele>256</ele>
        <time>2020-01-21T08:38:08.000Z</time>
      </trkpt>
      <trkpt lat="49.18383" lon="6.69047">
        <ele>256</ele>
        <time>2020-01-21T08:38:18.000Z</time>
      </trkpt>
      <trkpt lat="49.1839" lon="6.69075">
        <ele>255</ele>
        <time>2020-01-21T08:38:28.000Z</time>
      </trkpt>
      <trkpt lat="49.18394" lon="6.69098">
        <ele>256</ele>
        <time>2020-01-21T08:38:38.000Z</time>
      </trkpt>
      <trkpt lat="49.18396" lon="6.69115">
        <ele>256</ele>
        <time>2020-01-21T08:38:48.000Z</time>
      </trkpt>
      <trkpt lat="49.18397" lon="6.69134">
        <ele>256</ele>
        <time>2020-01-21T08:38:58.000Z</time>
      </trkpt>
      <trkpt lat="49.18396" lon="6.69153">
        <ele>255</ele>
        <time>2020-01-21T08:39:08.000Z</time>
      </trkpt>
      <trkpt lat="49.18397" lon="6.69171">
        <ele>255</ele>
        <time>2020-01-21T08:39:18.000Z</time>
      </trkpt>
      <trkpt lat="49.18396" lon="6.6919">
        <ele>256</ele>
        <time>2020-01-21T08:39:28.000Z</time>
      </trkpt>
      <trkpt lat="49.18396" lon="6.69209">
        <ele>257</ele>
        <time>2020-01-21T08:39:38.000Z</time>
      </trkpt>
      <trkpt lat="49.18395" lon="6.69228">
        <ele>256</ele>
        <time>2020-01-21T08:39:48.000Z</time>
      </trkpt>
      <trkpt lat="49.18394" lon="6.69248">
        <ele>256</ele>
        <time>2020-01-21T08:39:58.000Z</time>
      </trkpt>
      <trkpt lat="49.18395" lon="6.69265">
        <ele>257</ele>
        <time>2020-01-21T08:40:08.000Z</time>
      </trkpt>
      <trkpt lat="49.18395" lon="6.69282">
        <ele>259</ele>
        <time>2020-01-21T08:40:18.000Z</time>
      </trkpt>
      <trkpt lat="49.18394" lon="6.69301">
        <ele>259</ele>
        <time>2020-01-21T08:40:28.000Z</time>
      </trkpt>
      <trkpt lat="49.18394" lon="6.69321">
        <ele>259</ele>
        <time>2020-01-21T08:40:38.000Z</time>
      </trkpt>
      <trkpt lat="49.18393" lon="6.6934">
        <ele>259</ele>
        <time>2020-01-21T08:40:48.000Z</time>
      </trkpt>
      <trkpt lat="49.18393" lon="6.69359">
        <ele>260</ele>
        <time>2020-01-21T08:40:58.000Z</time>
      </trkpt>
      <trkpt lat="49.18389" lon="6.69379">
        <ele>260</ele>
        <time>2020-01-21T08:41:08.000Z</time>
      </trkpt>
      <trkpt lat="49.18386" lon="6.69397">
        <ele>260</ele>
        <time>2020-01-21T08:41:18.000Z</time>
      </trkpt>
      <trkpt lat="49.18387" lon="6.69414">
        <ele>260</ele>
        <time>2020-01-21T08:41:28.000Z</time>
      </trkpt>
      <trkpt lat="49.18387" lon="6.69432">
        <ele>259</ele>
        <time>2020-01-21T08:41:38.000Z</time>
      </trkpt>
      <trkpt lat="49.18387" lon="6.69446">
        <ele>259</ele>
        <time>2020-01-21T08:41:48.000Z</time>
      </trkpt>
      <trkpt lat="49.18386" lon="6.69451">
        <ele>259</ele>
        <time>2020-01-21T08:41:58.000Z</time>
      </trkpt>
      <trkpt lat="49.1838" lon="6.69465">
        <ele>259</ele>
        <time>2020-01-21T08:42:08.000Z</time>
      </trkpt>
      <trkpt lat="49.18376" lon="6.69475">
        <ele>259</ele>
        <time>2020-01-21T08:42:18.000Z</time>
      </trkpt>
      <trkpt lat="49.18367" lon="6.69501">
        <ele>260</ele>
        <time>2020-01-21T08:42:28.000Z</time>
      </trkpt>
      <trkpt lat="49.1836" lon="6.69519">
        <ele>260</ele>
        <time>2020-01-21T08:42:38.000Z</time>
      </trkpt>
      <trkpt lat="49.18351" lon="6.69535">
        <ele>261</ele>
        <time>2020-01-21T08:42:48.000Z</time>
      </trkpt>
      <trkpt lat="49.18343" lon="6.69549">
        <ele>261</ele>
        <time>2020-01-21T08:42:58.000Z</time>
      </trkpt>
      <trkpt lat="49.18338" lon="6.69562">
        <ele>262</ele>
        <time>2020-01-21T08:43:08.000Z</time>
      </trkpt>
      <trkpt lat="49.18334" lon="6.69575">
        <ele>264</ele>
        <time>2020-01-21T08:43:18.000Z</time>
      </trkpt>
      <trkpt lat="49.18335" lon="6.69585">
        <ele>265</ele>
        <time>2020-01-21T08:43:28.000Z</time>
      </trkpt>
      <trkpt lat="49.1833" lon="6.69579">
        <ele>266</ele>
        <time>2020-01-21T08:44:16.000Z</time>
      </trkpt>
      <trkpt lat="49.18325" lon="6.69594">
        <ele>267</ele>
        <time>2020-01-21T08:44:26.000Z</time>
      </trkpt>
      <trkpt lat="49.1832" lon="6.69606">
        <ele>267</ele>
        <time>2020-01-21T08:44:36.000Z</time>
      </trkpt>
      <trkpt lat="49.18311" lon="6.69626">
        <ele>267</ele>
        <time>2020-01-21T08:44:46.000Z</time>
      </trkpt>
      <trkpt lat="49.18306" lon="6.69642">
        <ele>267</ele>
        <time>2020-01-21T08:44:56.000Z</time>
      </trkpt>
      <trkpt lat="49.18301" lon="6.69656">
        <ele>267</ele>
        <time>2020-01-21T08:45:06.000Z</time>
      </trkpt>
      <trkpt lat="49.18297" lon="6.69672">
        <ele>266</ele>
        <time>2020-01-21T08:45:16.000Z</time>
      </trkpt>
      <trkpt lat="49.18293" lon="6.69687">
        <ele>266</ele>
        <time>2020-01-21T08:45:26.000Z</time>
      </trkpt>
      <trkpt lat="49.18288" lon="6.69697">
        <ele>266</ele>
        <time>2020-01-21T08:45:36.000Z</time>
      </trkpt>
      <trkpt lat="49.18282" lon="6.69711">
        <ele>266</ele>
        <time>2020-01-21T08:45:46.000Z</time>
      </trkpt>
      <trkpt lat="49.18276" lon="6.69729">
        <ele>266</ele>
        <time>2020-01-21T08:45:56.000Z</time>
      </trkpt>
      <trkpt lat="49.1827" lon="6.69744">
        <ele>267</ele>
        <time>2020-01-21T08:46:06.000Z</time>
      </trkpt>
      <trkpt lat="49.18262" lon="6.69757">
        <ele>266</ele>
        <time>2020-01-21T08:46:16.000Z</time>
      </trkpt>
      <trkpt lat="49.18253" lon="6.69777">
        <ele>266</ele>
        <time>2020-01-21T08:46:26.000Z</time>
      </trkpt>
      <trkpt lat="49.18245" lon="6.69798">
        <ele>271</ele>
        <time>2020-01-21T08:46:36.000Z</time>
      </trkpt>
      <trkpt lat="49.18239" lon="6.69814">
        <ele>271</ele>
        <time>2020-01-21T08:46:46.000Z</time>
      </trkpt>
      <trkpt lat="49.18231" lon="6.69829">
        <ele>270</ele>
        <time>2020-01-21T08:46:56.000Z</time>
      </trkpt>
      <trkpt lat="49.18224" lon="6.69843">
        <ele>272</ele>
        <time>2020-01-21T08:47:06.000Z</time>
      </trkpt>
      <trkpt lat="49.18217" lon="6.69857">
        <ele>273</ele>
        <time>2020-01-21T08:47:16.000Z</time>
      </trkpt>
      <trkpt lat="49.1821" lon="6.69874">
        <ele>273</ele>
        <time>2020-01-21T08:47:26.000Z</time>
      </trkpt>
      <trkpt lat="49.18206" lon="6.69888">
        <ele>273</ele>
        <time>2020-01-21T08:47:36.000Z</time>
      </trkpt>
      <trkpt lat="49.18199" lon="6.69906">
        <ele>274</ele>
        <time>2020-01-21T08:47:46.000Z</time>
      </trkpt>
      <trkpt lat="49.18192" lon="6.6992">
        <ele>274</ele>
        <time>2020-01-21T08:47:56.000Z</time>
      </trkpt>
      <trkpt lat="49.18186" lon="6.69935">
        <ele>274</ele>
        <time>2020-01-21T08:48:06.000Z</time>
      </trkpt>
      <trkpt lat="49.1818" lon="6.69949">
        <ele>274</ele>
        <time>2020-01-21T08:48:16.000Z</time>
      </trkpt>
      <trkpt lat="49.18175" lon="6.69965">
        <ele>274</ele>
        <time>2020-01-21T08:48:26.000Z</time>
      </trkpt>
      <trkpt lat="49.18169" lon="6.69982">
        <ele>274</ele>
        <time>2020-01-21T08:48:36.000Z</time>
      </trkpt>
      <trkpt lat="49.18161" lon="6.7">
        <ele>275</ele>
        <time>2020-01-21T08:48:46.000Z</time>
      </trkpt>
      <trkpt lat="49.18156" lon="6.70015">
        <ele>275</ele>
        <time>2020-01-21T08:48:56.000Z</time>
      </trkpt>
      <trkpt lat="49.18151" lon="6.70031">
        <ele>276</ele>
        <time>2020-01-21T08:49:06.000Z</time>
      </trkpt>
      <trkpt lat="49.18144" lon="6.70047">
        <ele>276</ele>
        <time>2020-01-21T08:49:16.000Z</time>
      </trkpt>
      <trkpt lat="49.18138" lon="6.70064">
        <ele>276</ele>
        <time>2020-01-21T08:49:26.000Z</time>
      </trkpt>
      <trkpt lat="49.18131" lon="6.70078">
        <ele>276</ele>
        <time>2020-01-21T08:49:36.000Z</time>
      </trkpt>
      <trkpt lat="49.18125" lon="6.70096">
        <ele>275</ele>
        <time>2020-01-21T08:49:46.000Z</time>
      </trkpt>
      <trkpt lat="49.18118" lon="6.70112">
        <ele>275</ele>
        <time>2020-01-21T08:49:56.000Z</time>
      </trkpt>
      <trkpt lat="49.18108" lon="6.70128">
        <ele>275</ele>
        <time>2020-01-21T08:50:06.000Z</time>
      </trkpt>
      <trkpt lat="49.18102" lon="6.70145">
        <ele>275</ele>
        <time>2020-01-21T08:50:16.000Z</time>
      </trkpt>
      <trkpt lat="49.18094" lon="6.70161">
        <ele>275</ele>
        <time>2020-01-21T08:50:26.000Z</time>
      </trkpt>
      <trkpt lat="49.18086" lon="6.70175">
        <ele>274</ele>
        <time>2020-01-21T08:50:36.000Z</time>
      </trkpt>
      <trkpt lat="49.1808" lon="6.70191">
        <ele>276</ele>
        <time>2020-01-21T08:50:46.000Z</time>
      </trkpt>
      <trkpt lat="49.18074" lon="6.70209">
        <ele>275</ele>
        <time>2020-01-21T08:50:56.000Z</time>
      </trkpt>
      <trkpt lat="49.18067" lon="6.70226">
        <ele>274</ele>
        <time>2020-01-21T08:51:06.000Z</time>
      </trkpt>
      <trkpt lat="49.1806" lon="6.70242">
        <ele>274</ele>
        <time>2020-01-21T08:51:16.000Z</time>
      </trkpt>
      <trkpt lat="49.18054" lon="6.70259">
        <ele>271</ele>
        <time>2020-01-21T08:51:26.000Z</time>
      </trkpt>
      <trkpt lat="49.18047" lon="6.70274">
        <ele>272</ele>
        <time>2020-01-21T08:51:36.000Z</time>
      </trkpt>
      <trkpt lat="49.1804" lon="6.70289">
        <ele>272</ele>
        <time>2020-01-21T08:51:46.000Z</time>
      </trkpt>
      <trkpt lat="49.18032" lon="6.70303">
        <ele>272</ele>
        <time>2020-01-21T08:51:56.000Z</time>
      </trkpt>
      <trkpt lat="49.18023" lon="6.70319">
        <ele>271</ele>
        <time>2020-01-21T08:52:06.000Z</time>
      </trkpt>
      <trkpt lat="49.18014" lon="6.70337">
        <ele>269</ele>
        <time>2020-01-21T08:52:16.000Z</time>
      </trkpt>
      <trkpt lat="49.18008" lon="6.70356">
        <ele>269</ele>
        <time>2020-01-21T08:52:26.000Z</time>
      </trkpt>
      <trkpt lat="49.18002" lon="6.70376">
        <ele>268</ele>
        <time>2020-01-21T08:52:36.000Z</time>
      </trkpt>
      <trkpt lat="49.17995" lon="6.70393">
        <ele>271</ele>
        <time>2020-01-21T08:52:46.000Z</time>
      </trkpt>
      <trkpt lat="49.17988" lon="6.70411">
        <ele>269</ele>
        <time>2020-01-21T08:52:56.000Z</time>
      </trkpt>
      <trkpt lat="49.1798" lon="6.70425">
        <ele>270</ele>
        <time>2020-01-21T08:53:06.000Z</time>
      </trkpt>
      <trkpt lat="49.17974" lon="6.7044">
        <ele>271</ele>
        <time>2020-01-21T08:53:16.000Z</time>
      </trkpt>
      <trkpt lat="49.17966" lon="6.70457">
        <ele>271</ele>
        <time>2020-01-21T08:53:26.000Z</time>
      </trkpt>
      <trkpt lat="49.17958" lon="6.70473">
        <ele>272</ele>
        <time>2020-01-21T08:53:36.000Z</time>
      </trkpt>
      <trkpt lat="49.1795" lon="6.70492">
        <ele>272</ele>
        <time>2020-01-21T08:53:46.000Z</time>
      </trkpt>
      <trkpt lat="49.17945" lon="6.70505">
        <ele>274</ele>
        <time>2020-01-21T08:53:56.000Z</time>
      </trkpt>
      <trkpt lat="49.17939" lon="6.70522">
        <ele>274</ele>
        <time>2020-01-21T08:54:06.000Z</time>
      </trkpt>
      <trkpt lat="49.17933" lon="6.70539">
        <ele>275</ele>
        <time>2020-01-21T08:54:16.000Z</time>
      </trkpt>
      <trkpt lat="49.17926" lon="6.70557">
        <ele>275</ele>
        <time>2020-01-21T08:54:26.000Z</time>
      </trkpt>
      <trkpt lat="49.17922" lon="6.70574">
        <ele>277</ele>
        <time>2020-01-21T08:54:36.000Z</time>
      </trkpt>
      <trkpt lat="49.17919" lon="6.70586">
        <ele>277</ele>
        <time>2020-01-21T08:54:46.000Z</time>
      </trkpt>
      <trkpt lat="49.17914" lon="6.706">
        <ele>276</ele>
        <time>2020-01-21T08:54:56.000Z</time>
      </trkpt>
      <trkpt lat="49.17904" lon="6.7062">
        <ele>274</ele>
        <time>2020-01-21T08:55:06.000Z</time>
      </trkpt>
      <trkpt lat="49.17899" lon="6.70633">
        <ele>273</ele>
        <time>2020-01-21T08:55:16.000Z</time>
      </trkpt>
      <trkpt lat="49.17899" lon="6.70631">
        <ele>273</ele>
        <time>2020-01-21T08:55:32.000Z</time>
      </trkpt>
      <trkpt lat="49.17898" lon="6.70633">
        <ele>273</ele>
        <time>2020-01-21T08:57:23.000Z</time>
      </trkpt>
      <trkpt lat="49.17897" lon="6.70634">
        <ele>273</ele>
        <time>2020-01-21T08:57:33.000Z</time>
      </trkpt>
      <trkpt lat="49.17896" lon="6.70635">
        <ele>273</ele>
        <time>2020-01-21T08:57:50.000Z</time>
      </trkpt>
      <trkpt lat="49.17893" lon="6.70653">
        <ele>273</ele>
        <time>2020-01-21T08:58:00.000Z</time>
      </trkpt>
      <trkpt lat="49.17885" lon="6.70673">
        <ele>270</ele>
        <time>2020-01-21T08:58:10.000Z</time>
      </trkpt>
      <trkpt lat="49.17876" lon="6.70692">
        <ele>270</ele>
        <time>2020-01-21T08:58:20.000Z</time>
      </trkpt>
      <trkpt lat="49.17864" lon="6.70705">
        <ele>270</ele>
        <time>2020-01-21T08:58:30.000Z</time>
      </trkpt>
      <trkpt lat="49.17855" lon="6.70718">
        <ele>269</ele>
        <time>2020-01-21T08:58:40.000Z</time>
      </trkpt>
      <trkpt lat="49.17851" lon="6.70735">
        <ele>269</ele>
        <time>2020-01-21T08:58:50.000Z</time>
      </trkpt>
      <trkpt lat="49.17847" lon="6.70753">
        <ele>269</ele>
        <time>2020-01-21T08:59:00.000Z</time>
      </trkpt>
      <trkpt lat="49.17841" lon="6.7077">
        <ele>270</ele>
        <time>2020-01-21T08:59:10.000Z</time>
      </trkpt>
      <trkpt lat="49.17833" lon="6.70789">
        <ele>267</ele>
        <time>2020-01-21T08:59:20.000Z</time>
      </trkpt>
      <trkpt lat="49.17826" lon="6.70806">
        <ele>268</ele>
        <time>2020-01-21T08:59:30.000Z</time>
      </trkpt>
      <trkpt lat="49.17818" lon="6.70824">
        <ele>269</ele>
        <time>2020-01-21T08:59:40.000Z</time>
      </trkpt>
      <trkpt lat="49.17813" lon="6.70841">
        <ele>270</ele>
        <time>2020-01-21T08:59:50.000Z</time>
      </trkpt>
      <trkpt lat="49.17809" lon="6.7086">
        <ele>270</ele>
        <time>2020-01-21T09:00:00.000Z</time>
      </trkpt>
      <trkpt lat="49.17803" lon="6.70875">
        <ele>270</ele>
        <time>2020-01-21T09:00:10.000Z</time>
      </trkpt>
      <trkpt lat="49.17797" lon="6.70891">
        <ele>270</ele>
        <time>2020-01-21T09:00:20.000Z</time>
      </trkpt>
      <trkpt lat="49.17788" lon="6.70909">
        <ele>270</ele>
        <time>2020-01-21T09:00:30.000Z</time>
      </trkpt>
      <trkpt lat="49.1778" lon="6.70923">
        <ele>269</ele>
        <time>2020-01-21T09:00:40.000Z</time>
      </trkpt>
      <trkpt lat="49.17774" lon="6.70938">
        <ele>269</ele>
        <time>2020-01-21T09:00:50.000Z</time>
      </trkpt>
      <trkpt lat="49.17767" lon="6.70954">
        <ele>268</ele>
        <time>2020-01-21T09:01:00.000Z</time>
      </trkpt>
      <trkpt lat="49.17759" lon="6.7097">
        <ele>268</ele>
        <time>2020-01-21T09:01:10.000Z</time>
      </trkpt>
      <trkpt lat="49.17751" lon="6.70988">
        <ele>267</ele>
        <time>2020-01-21T09:01:20.000Z</time>
      </trkpt>
      <trkpt lat="49.17745" lon="6.71006">
        <ele>266</ele>
        <time>2020-01-21T09:01:30.000Z</time>
      </trkpt>
      <trkpt lat="49.17739" lon="6.71022">
        <ele>265</ele>
        <time>2020-01-21T09:01:40.000Z</time>
      </trkpt>
      <trkpt lat="49.17742" lon="6.71031">
        <ele>265</ele>
        <time>2020-01-21T09:01:50.000Z</time>
      </trkpt>
      <trkpt lat="49.17736" lon="6.71042">
        <ele>265</ele>
        <time>2020-01-21T09:02:00.000Z</time>
      </trkpt>
      <trkpt lat="49.17733" lon="6.71059">
        <ele>264</ele>
        <time>2020-01-21T09:02:10.000Z</time>
      </trkpt>
      <trkpt lat="49.17732" lon="6.7108">
        <ele>263</ele>
        <time>2020-01-21T09:02:20.000Z</time>
      </trkpt>
      <trkpt lat="49.17732" lon="6.71097">
        <ele>260</ele>
        <time>2020-01-21T09:02:30.000Z</time>
      </trkpt>
      <trkpt lat="49.17733" lon="6.71115">
        <ele>260</ele>
        <time>2020-01-21T09:02:40.000Z</time>
      </trkpt>
      <trkpt lat="49.17735" lon="6.71134">
        <ele>259</ele>
        <time>2020-01-21T09:02:50.000Z</time>
      </trkpt>
      <trkpt lat="49.17736" lon="6.71164">
        <ele>257</ele>
        <time>2020-01-21T09:03:00.000Z</time>
      </trkpt>
      <trkpt lat="49.17736" lon="6.71186">
        <ele>255</ele>
        <time>2020-01-21T09:03:10.000Z</time>
      </trkpt>
      <trkpt lat="49.17738" lon="6.71205">
        <ele>254</ele>
        <time>2020-01-21T09:03:20.000Z</time>
      </trkpt>
      <trkpt lat="49.17738" lon="6.71227">
        <ele>253</ele>
        <time>2020-01-21T09:03:30.000Z</time>
      </trkpt>
      <trkpt lat="49.17742" lon="6.71238">
        <ele>252</ele>
        <time>2020-01-21T09:03:40.000Z</time>
      </trkpt>
      <trkpt lat="49.17748" lon="6.7124">
        <ele>252</ele>
        <time>2020-01-21T09:03:50.000Z</time>
      </trkpt>
      <trkpt lat="49.17752" lon="6.71248">
        <ele>252</ele>
        <time>2020-01-21T09:04:00.000Z</time>
      </trkpt>
      <trkpt lat="49.17758" lon="6.71263">
        <ele>253</ele>
        <time>2020-01-21T09:04:10.000Z</time>
      </trkpt>
      <trkpt lat="49.17758" lon="6.71283">
        <ele>253</ele>
        <time>2020-01-21T09:04:20.000Z</time>
      </trkpt>
      <trkpt lat="49.17764" lon="6.71299">
        <ele>253</ele>
        <time>2020-01-21T09:04:30.000Z</time>
      </trkpt>
      <trkpt lat="49.17772" lon="6.71303">
        <ele>254</ele>
        <time>2020-01-21T09:04:40.000Z</time>
      </trkpt>
      <trkpt lat="49.17776" lon="6.7132">
        <ele>253</ele>
        <time>2020-01-21T09:04:50.000Z</time>
      </trkpt>
      <trkpt lat="49.17777" lon="6.71346">
        <ele>254</ele>
        <time>2020-01-21T09:05:00.000Z</time>
      </trkpt>
      <trkpt lat="49.17778" lon="6.71369">
        <ele>255</ele>
        <time>2020-01-21T09:05:10.000Z</time>
      </trkpt>
      <trkpt lat="49.17775" lon="6.7139">
        <ele>255</ele>
        <time>2020-01-21T09:05:20.000Z</time>
      </trkpt>
      <trkpt lat="49.17768" lon="6.71404">
        <ele>255</ele>
        <time>2020-01-21T09:05:30.000Z</time>
      </trkpt>
      <trkpt lat="49.17762" lon="6.71419">
        <ele>255</ele>
        <time>2020-01-21T09:05:40.000Z</time>
      </trkpt>
      <trkpt lat="49.17752" lon="6.7143">
        <ele>256</ele>
        <time>2020-01-21T09:05:50.000Z</time>
      </trkpt>
      <trkpt lat="49.17745" lon="6.71444">
        <ele>253</ele>
        <time>2020-01-21T09:06:00.000Z</time>
      </trkpt>
      <trkpt lat="49.17732" lon="6.7146">
        <ele>253</ele>
        <time>2020-01-21T09:06:10.000Z</time>
      </trkpt>
      <trkpt lat="49.17716" lon="6.71469">
        <ele>253</ele>
        <time>2020-01-21T09:06:20.000Z</time>
      </trkpt>
      <trkpt lat="49.17707" lon="6.7148">
        <ele>253</ele>
        <time>2020-01-21T09:06:30.000Z</time>
      </trkpt>
      <trkpt lat="49.17697" lon="6.7149">
        <ele>252</ele>
        <time>2020-01-21T09:06:40.000Z</time>
      </trkpt>
      <trkpt lat="49.17685" lon="6.71498">
        <ele>252</ele>
        <time>2020-01-21T09:06:50.000Z</time>
      </trkpt>
      <trkpt lat="49.17675" lon="6.71508">
        <ele>252</ele>
        <time>2020-01-21T09:07:00.000Z</time>
      </trkpt>
      <trkpt lat="49.17663" lon="6.71515">
        <ele>250</ele>
        <time>2020-01-21T09:07:10.000Z</time>
      </trkpt>
      <trkpt lat="49.17656" lon="6.71519">
        <ele>250</ele>
        <time>2020-01-21T09:07:20.000Z</time>
      </trkpt>
      <trkpt lat="49.17647" lon="6.71529">
        <ele>249</ele>
        <time>2020-01-21T09:07:30.000Z</time>
      </trkpt>
      <trkpt lat="49.17632" lon="6.71543">
        <ele>249</ele>
        <time>2020-01-21T09:07:40.000Z</time>
      </trkpt>
      <trkpt lat="49.1762" lon="6.71541">
        <ele>248</ele>
        <time>2020-01-21T09:07:50.000Z</time>
      </trkpt>
      <trkpt lat="49.17598" lon="6.71544">
        <ele>248</ele>
        <time>2020-01-21T09:08:00.000Z</time>
      </trkpt>
      <trkpt lat="49.17586" lon="6.71544">
        <ele>247</ele>
        <time>2020-01-21T09:08:10.000Z</time>
      </trkpt>
      <trkpt lat="49.1758" lon="6.71555">
        <ele>245</ele>
        <time>2020-01-21T09:08:20.000Z</time>
      </trkpt>
      <trkpt lat="49.17578" lon="6.71579">
        <ele>246</ele>
        <time>2020-01-21T09:08:30.000Z</time>
      </trkpt>
      <trkpt lat="49.17575" lon="6.71597">
        <ele>246</ele>
        <time>2020-01-21T09:08:40.000Z</time>
      </trkpt>
      <trkpt lat="49.17571" lon="6.71615">
        <ele>246</ele>
        <time>2020-01-21T09:08:50.000Z</time>
      </trkpt>
      <trkpt lat="49.17567" lon="6.71631">
        <ele>246</ele>
        <time>2020-01-21T09:09:00.000Z</time>
      </trkpt>
      <trkpt lat="49.17557" lon="6.71646">
        <ele>246</ele>
        <time>2020-01-21T09:09:10.000Z</time>
      </trkpt>
      <trkpt lat="49.17554" lon="6.71666">
        <ele>246</ele>
        <time>2020-01-21T09:09:20.000Z</time>
      </trkpt>
      <trkpt lat="49.17553" lon="6.71689">
        <ele>246</ele>
        <time>2020-01-21T09:09:30.000Z</time>
      </trkpt>
      <trkpt lat="49.17553" lon="6.7171">
        <ele>246</ele>
        <time>2020-01-21T09:09:40.000Z</time>
      </trkpt>
      <trkpt lat="49.17554" lon="6.71731">
        <ele>246</ele>
        <time>2020-01-21T09:09:50.000Z</time>
      </trkpt>
      <trkpt lat="49.17557" lon="6.71746">
        <ele>246</ele>
        <time>2020-01-21T09:10:00.000Z</time>
      </trkpt>
      <trkpt lat="49.17561" lon="6.71745">
        <ele>246</ele>
        <time>2020-01-21T09:10:10.000Z</time>
      </trkpt>
      <trkpt lat="49.17569" lon="6.71738">
        <ele>246</ele>
        <time>2020-01-21T09:10:20.000Z</time>
      </trkpt>
      <trkpt lat="49.17578" lon="6.71733">
        <ele>246</ele>
        <time>2020-01-21T09:10:30.000Z</time>
      </trkpt>
      <trkpt lat="49.17589" lon="6.71729">
        <ele>248</ele>
        <time>2020-01-21T09:10:40.000Z</time>
      </trkpt>
      <trkpt lat="49.17601" lon="6.71725">
        <ele>249</ele>
        <time>2020-01-21T09:10:50.000Z</time>
      </trkpt>
      <trkpt lat="49.17612" lon="6.71722">
        <ele>249</ele>
        <time>2020-01-21T09:11:00.000Z</time>
      </trkpt>
      <trkpt lat="49.17624" lon="6.71718">
        <ele>249</ele>
        <time>2020-01-21T09:11:10.000Z</time>
      </trkpt>
      <trkpt lat="49.17635" lon="6.71715">
        <ele>250</ele>
        <time>2020-01-21T09:11:20.000Z</time>
      </trkpt>
      <trkpt lat="49.17647" lon="6.71715">
        <ele>250</ele>
        <time>2020-01-21T09:11:30.000Z</time>
      </trkpt>
      <trkpt lat="49.17658" lon="6.71712">
        <ele>250</ele>
        <time>2020-01-21T09:11:40.000Z</time>
      </trkpt>
      <trkpt lat="49.17671" lon="6.71708">
        <ele>252</ele>
        <time>2020-01-21T09:11:50.000Z</time>
      </trkpt>
      <trkpt lat="49.17677" lon="6.71723">
        <ele>252</ele>
        <time>2020-01-21T09:12:00.000Z</time>
      </trkpt>
      <trkpt lat="49.17682" lon="6.7174">
        <ele>252</ele>
        <time>2020-01-21T09:12:10.000Z</time>
      </trkpt>
      <trkpt lat="49.1769" lon="6.71766">
        <ele>254</ele>
        <time>2020-01-21T09:12:20.000Z</time>
      </trkpt>
      <trkpt lat="49.17686" lon="6.71785">
        <ele>255</ele>
        <time>2020-01-21T09:12:30.000Z</time>
      </trkpt>
      <trkpt lat="49.17684" lon="6.71803">
        <ele>255</ele>
        <time>2020-01-21T09:12:40.000Z</time>
      </trkpt>
      <trkpt lat="49.17678" lon="6.71816">
        <ele>255</ele>
        <time>2020-01-21T09:12:50.000Z</time>
      </trkpt>
      <trkpt lat="49.17671" lon="6.7183">
        <ele>255</ele>
        <time>2020-01-21T09:13:00.000Z</time>
      </trkpt>
      <trkpt lat="49.17667" lon="6.71841">
        <ele>256</ele>
        <time>2020-01-21T09:13:10.000Z</time>
      </trkpt>
      <trkpt lat="49.1767" lon="6.71848">
        <ele>257</ele>
        <time>2020-01-21T09:13:20.000Z</time>
      </trkpt>
      <trkpt lat="49.1766" lon="6.71858">
        <ele>254</ele>
        <time>2020-01-21T09:13:30.000Z</time>
      </trkpt>
      <trkpt lat="49.17658" lon="6.71872">
        <ele>254</ele>
        <time>2020-01-21T09:13:40.000Z</time>
      </trkpt>
      <trkpt lat="49.17662" lon="6.71874">
        <ele>254</ele>
        <time>2020-01-21T09:13:50.000Z</time>
      </trkpt>
      <trkpt lat="49.1766" lon="6.71884">
        <ele>255</ele>
        <time>2020-01-21T09:14:00.000Z</time>
      </trkpt>
      <trkpt lat="49.17662" lon="6.71889">
        <ele>255</ele>
        <time>2020-01-21T09:14:10.000Z</time>
      </trkpt>
      <trkpt lat="49.17668" lon="6.719">
        <ele>258</ele>
        <time>2020-01-21T09:14:20.000Z</time>
      </trkpt>
      <trkpt lat="49.17678" lon="6.71924">
        <ele>259</ele>
        <time>2020-01-21T09:14:30.000Z</time>
      </trkpt>
      <trkpt lat="49.17682" lon="6.71931">
        <ele>259</ele>
        <time>2020-01-21T09:14:40.000Z</time>
      </trkpt>
      <trkpt lat="49.17685" lon="6.71937">
        <ele>259</ele>
        <time>2020-01-21T09:14:50.000Z</time>
      </trkpt>
      <trkpt lat="49.17689" lon="6.7196">
        <ele>259</ele>
        <time>2020-01-21T09:15:00.000Z</time>
      </trkpt>
      <trkpt lat="49.1769" lon="6.71973">
        <ele>259</ele>
        <time>2020-01-21T09:15:10.000Z</time>
      </trkpt>
      <trkpt lat="49.17683" lon="6.71991">
        <ele>259</ele>
        <time>2020-01-21T09:15:20.000Z</time>
      </trkpt>
      <trkpt lat="49.17673" lon="6.72002">
        <ele>259</ele>
        <time>2020-01-21T09:15:30.000Z</time>
      </trkpt>
      <trkpt lat="49.1766" lon="6.72014">
        <ele>259</ele>
        <time>2020-01-21T09:15:40.000Z</time>
      </trkpt>
      <trkpt lat="49.17638" lon="6.72024">
        <ele>258</ele>
        <time>2020-01-21T09:15:50.000Z</time>
      </trkpt>
      <trkpt lat="49.17626" lon="6.72031">
        <ele>258</ele>
        <time>2020-01-21T09:16:00.000Z</time>
      </trkpt>
      <trkpt lat="49.17617" lon="6.72039">
        <ele>258</ele>
        <time>2020-01-21T09:16:10.000Z</time>
      </trkpt>
      <trkpt lat="49.17609" lon="6.72049">
        <ele>258</ele>
        <time>2020-01-21T09:16:20.000Z</time>
      </trkpt>
      <trkpt lat="49.17603" lon="6.72058">
        <ele>258</ele>
        <time>2020-01-21T09:16:30.000Z</time>
      </trkpt>
      <trkpt lat="49.17602" lon="6.7207">
        <ele>259</ele>
        <time>2020-01-21T09:16:40.000Z</time>
      </trkpt>
      <trkpt lat="49.17591" lon="6.72083">
        <ele>259</ele>
        <time>2020-01-21T09:16:50.000Z</time>
      </trkpt>
      <trkpt lat="49.17587" lon="6.72102">
        <ele>259</ele>
        <time>2020-01-21T09:17:00.000Z</time>
      </trkpt>
      <trkpt lat="49.17584" lon="6.72117">
        <ele>259</ele>
        <time>2020-01-21T09:17:10.000Z</time>
      </trkpt>
      <trkpt lat="49.17582" lon="6.72128">
        <ele>256</ele>
        <time>2020-01-21T09:17:20.000Z</time>
      </trkpt>
      <trkpt lat="49.17583" lon="6.72141">
        <ele>258</ele>
        <time>2020-01-21T09:17:30.000Z</time>
      </trkpt>
      <trkpt lat="49.17585" lon="6.72162">
        <ele>257</ele>
        <time>2020-01-21T09:17:40.000Z</time>
      </trkpt>
      <trkpt lat="49.1759" lon="6.72181">
        <ele>256</ele>
        <time>2020-01-21T09:17:50.000Z</time>
      </trkpt>
      <trkpt lat="49.17594" lon="6.722">
        <ele>256</ele>
        <time>2020-01-21T09:18:00.000Z</time>
      </trkpt>
      <trkpt lat="49.176" lon="6.72217">
        <ele>255</ele>
        <time>2020-01-21T09:18:10.000Z</time>
      </trkpt>
      <trkpt lat="49.17606" lon="6.72236">
        <ele>254</ele>
        <time>2020-01-21T09:18:20.000Z</time>
      </trkpt>
      <trkpt lat="49.17612" lon="6.72251">
        <ele>251</ele>
        <time>2020-01-21T09:18:30.000Z</time>
      </trkpt>
      <trkpt lat="49.17619" lon="6.72263">
        <ele>252</ele>
        <time>2020-01-21T09:18:40.000Z</time>
      </trkpt>
      <trkpt lat="49.17626" lon="6.72277">
        <ele>252</ele>
        <time>2020-01-21T09:18:50.000Z</time>
      </trkpt>
      <trkpt lat="49.17635" lon="6.72293">
        <ele>252</ele>
        <time>2020-01-21T09:19:00.000Z</time>
      </trkpt>
      <trkpt lat="49.17641" lon="6.72311">
        <ele>252</ele>
        <time>2020-01-21T09:19:10.000Z</time>
      </trkpt>
      <trkpt lat="49.17647" lon="6.72324">
        <ele>252</ele>
        <time>2020-01-21T09:19:20.000Z</time>
      </trkpt>
      <trkpt lat="49.17653" lon="6.72349">
        <ele>249</ele>
        <time>2020-01-21T09:19:30.000Z</time>
      </trkpt>
      <trkpt lat="49.17657" lon="6.72371">
        <ele>247</ele>
        <time>2020-01-21T09:19:40.000Z</time>
      </trkpt>
      <trkpt lat="49.17662" lon="6.7239">
        <ele>246</ele>
        <time>2020-01-21T09:19:50.000Z</time>
      </trkpt>
      <trkpt lat="49.17667" lon="6.72408">
        <ele>247</ele>
        <time>2020-01-21T09:20:00.000Z</time>
      </trkpt>
      <trkpt lat="49.17672" lon="6.72425">
        <ele>244</ele>
        <time>2020-01-21T09:20:10.000Z</time>
      </trkpt>
      <trkpt lat="49.1768" lon="6.72446">
        <ele>243</ele>
        <time>2020-01-21T09:20:20.000Z</time>
      </trkpt>
      <trkpt lat="49.17687" lon="6.72459">
        <ele>242</ele>
        <time>2020-01-21T09:20:30.000Z</time>
      </trkpt>
      <trkpt lat="49.17693" lon="6.72467">
        <ele>242</ele>
        <time>2020-01-21T09:20:40.000Z</time>
      </trkpt>
      <trkpt lat="49.17701" lon="6.72472">
        <ele>242</ele>
        <time>2020-01-21T09:20:50.000Z</time>
      </trkpt>
      <trkpt lat="49.17699" lon="6.72475">
        <ele>242</ele>
        <time>2020-01-21T09:21:00.000Z</time>
      </trkpt>
      <trkpt lat="49.17697" lon="6.72475">
        <ele>242</ele>
        <time>2020-01-21T09:21:10.000Z</time>
      </trkpt>
      <trkpt lat="49.17696" lon="6.72475">
        <ele>242</ele>
        <time>2020-01-21T09:22:46.000Z</time>
      </trkpt>
      <trkpt lat="49.17694" lon="6.72482">
        <ele>241</ele>
        <time>2020-01-21T09:22:56.000Z</time>
      </trkpt>
      <trkpt lat="49.17692" lon="6.72486">
        <ele>241</ele>
        <time>2020-01-21T09:23:06.000Z</time>
      </trkpt>
      <trkpt lat="49.17691" lon="6.72489">
        <ele>241</ele>
        <time>2020-01-21T09:23:16.000Z</time>
      </trkpt>
      <trkpt lat="49.17692" lon="6.72495">
        <ele>241</ele>
        <time>2020-01-21T09:23:26.000Z</time>
      </trkpt>
      <trkpt lat="49.17693" lon="6.72496">
        <ele>241</ele>
        <time>2020-01-21T09:23:36.000Z</time>
      </trkpt>
      <trkpt lat="49.17684" lon="6.72563">
        <ele>238</ele>
        <time>2020-01-21T09:33:41.677Z</time>
      </trkpt>
      <trkpt lat="49.17697" lon="6.72568">
        <ele>239</ele>
        <time>2020-01-21T09:33:51.000Z</time>
      </trkpt>
      <trkpt lat="49.17693" lon="6.72581">
        <ele>239</ele>
        <time>2020-01-21T09:34:01.000Z</time>
      </trkpt>
      <trkpt lat="49.17687" lon="6.72598">
        <ele>239</ele>
        <time>2020-01-21T09:34:11.000Z</time>
      </trkpt>
      <trkpt lat="49.17676" lon="6.72615">
        <ele>239</ele>
        <time>2020-01-21T09:34:21.000Z</time>
      </trkpt>
      <trkpt lat="49.17669" lon="6.72633">
        <ele>238</ele>
        <time>2020-01-21T09:34:31.000Z</time>
      </trkpt>
      <trkpt lat="49.17662" lon="6.72656">
        <ele>235</ele>
        <time>2020-01-21T09:34:41.000Z</time>
      </trkpt>
      <trkpt lat="49.17659" lon="6.72671">
        <ele>235</ele>
        <time>2020-01-21T09:34:51.000Z</time>
      </trkpt>
      <trkpt lat="49.17651" lon="6.72668">
        <ele>235</ele>
        <time>2020-01-21T09:35:01.000Z</time>
      </trkpt>
      <trkpt lat="49.17648" lon="6.72669">
        <ele>235</ele>
        <time>2020-01-21T09:35:11.000Z</time>
      </trkpt>
      <trkpt lat="49.17646" lon="6.72672">
        <ele>235</ele>
        <time>2020-01-21T09:35:21.000Z</time>
      </trkpt>
      <trkpt lat="49.17645" lon="6.72673">
        <ele>235</ele>
        <time>2020-01-21T09:35:51.000Z</time>
      </trkpt>
      <trkpt lat="49.17646" lon="6.72687">
        <ele>235</ele>
        <time>2020-01-21T09:36:01.000Z</time>
      </trkpt>
      <trkpt lat="49.17644" lon="6.72703">
        <ele>235</ele>
        <time>2020-01-21T09:36:11.000Z</time>
      </trkpt>
      <trkpt lat="49.17643" lon="6.72727">
        <ele>234</ele>
        <time>2020-01-21T09:36:21.000Z</time>
      </trkpt>
      <trkpt lat="49.17644" lon="6.72747">
        <ele>234</ele>
        <time>2020-01-21T09:36:31.000Z</time>
      </trkpt>
      <trkpt lat="49.17648" lon="6.72767">
        <ele>233</ele>
        <time>2020-01-21T09:36:41.000Z</time>
      </trkpt>
      <trkpt lat="49.1765" lon="6.72786">
        <ele>233</ele>
        <time>2020-01-21T09:36:51.000Z</time>
      </trkpt>
      <trkpt lat="49.17646" lon="6.72807">
        <ele>233</ele>
        <time>2020-01-21T09:37:01.000Z</time>
      </trkpt>
      <trkpt lat="49.17644" lon="6.72828">
        <ele>232</ele>
        <time>2020-01-21T09:37:11.000Z</time>
      </trkpt>
      <trkpt lat="49.17642" lon="6.72849">
        <ele>231</ele>
        <time>2020-01-21T09:37:21.000Z</time>
      </trkpt>
      <trkpt lat="49.17639" lon="6.7287">
        <ele>231</ele>
        <time>2020-01-21T09:37:31.000Z</time>
      </trkpt>
      <trkpt lat="49.17638" lon="6.7289">
        <ele>230</ele>
        <time>2020-01-21T09:37:41.000Z</time>
      </trkpt>
      <trkpt lat="49.17638" lon="6.7291">
        <ele>230</ele>
        <time>2020-01-21T09:37:51.000Z</time>
      </trkpt>
      <trkpt lat="49.17638" lon="6.7293">
        <ele>229</ele>
        <time>2020-01-21T09:38:01.000Z</time>
      </trkpt>
      <trkpt lat="49.17638" lon="6.7295">
        <ele>229</ele>
        <time>2020-01-21T09:38:11.000Z</time>
      </trkpt>
      <trkpt lat="49.17641" lon="6.7297">
        <ele>229</ele>
        <time>2020-01-21T09:38:21.000Z</time>
      </trkpt>
      <trkpt lat="49.17644" lon="6.72988">
        <ele>229</ele>
        <time>2020-01-21T09:38:31.000Z</time>
      </trkpt>
      <trkpt lat="49.17647" lon="6.73007">
        <ele>229</ele>
        <time>2020-01-21T09:38:41.000Z</time>
      </trkpt>
      <trkpt lat="49.17651" lon="6.73025">
        <ele>229</ele>
        <time>2020-01-21T09:38:51.000Z</time>
      </trkpt>
      <trkpt lat="49.17657" lon="6.73042">
        <ele>229</ele>
        <time>2020-01-21T09:39:01.000Z</time>
      </trkpt>
      <trkpt lat="49.17663" lon="6.73061">
        <ele>229</ele>
        <time>2020-01-21T09:39:11.000Z</time>
      </trkpt>
      <trkpt lat="49.17662" lon="6.73084">
        <ele>229</ele>
        <time>2020-01-21T09:39:21.000Z</time>
      </trkpt>
      <trkpt lat="49.17663" lon="6.73107">
        <ele>229</ele>
        <time>2020-01-21T09:39:31.000Z</time>
      </trkpt>
      <trkpt lat="49.17662" lon="6.73128">
        <ele>229</ele>
        <time>2020-01-21T09:39:41.000Z</time>
      </trkpt>
      <trkpt lat="49.17663" lon="6.73145">
        <ele>228</ele>
        <time>2020-01-21T09:39:51.000Z</time>
      </trkpt>
      <trkpt lat="49.17665" lon="6.73164">
        <ele>228</ele>
        <time>2020-01-21T09:40:01.000Z</time>
      </trkpt>
      <trkpt lat="49.17667" lon="6.73182">
        <ele>229</ele>
        <time>2020-01-21T09:40:11.000Z</time>
      </trkpt>
      <trkpt lat="49.17668" lon="6.73202">
        <ele>229</ele>
        <time>2020-01-21T09:40:21.000Z</time>
      </trkpt>
      <trkpt lat="49.17669" lon="6.73221">
        <ele>229</ele>
        <time>2020-01-21T09:40:31.000Z</time>
      </trkpt>
      <trkpt lat="49.17667" lon="6.73238">
        <ele>228</ele>
        <time>2020-01-21T09:40:41.000Z</time>
      </trkpt>
      <trkpt lat="49.17661" lon="6.73241">
        <ele>228</ele>
        <time>2020-01-21T09:40:51.000Z</time>
      </trkpt>
      <trkpt lat="49.17647" lon="6.73246">
        <ele>228</ele>
        <time>2020-01-21T09:41:01.000Z</time>
      </trkpt>
      <trkpt lat="49.17631" lon="6.73245">
        <ele>229</ele>
        <time>2020-01-21T09:41:11.000Z</time>
      </trkpt>
      <trkpt lat="49.17615" lon="6.7324">
        <ele>229</ele>
        <time>2020-01-21T09:41:21.000Z</time>
      </trkpt>
      <trkpt lat="49.17598" lon="6.73236">
        <ele>230</ele>
        <time>2020-01-21T09:41:31.000Z</time>
      </trkpt>
      <trkpt lat="49.17583" lon="6.73231">
        <ele>232</ele>
        <time>2020-01-21T09:41:41.000Z</time>
      </trkpt>
      <trkpt lat="49.17571" lon="6.73227">
        <ele>232</ele>
        <time>2020-01-21T09:41:51.000Z</time>
      </trkpt>
      <trkpt lat="49.17561" lon="6.73231">
        <ele>232</ele>
        <time>2020-01-21T09:42:01.000Z</time>
      </trkpt>
      <trkpt lat="49.1755" lon="6.73238">
        <ele>233</ele>
        <time>2020-01-21T09:42:11.000Z</time>
      </trkpt>
      <trkpt lat="49.17543" lon="6.73246">
        <ele>233</ele>
        <time>2020-01-21T09:42:21.000Z</time>
      </trkpt>
      <trkpt lat="49.17546" lon="6.73252">
        <ele>236</ele>
        <time>2020-01-21T09:42:31.000Z</time>
      </trkpt>
      <trkpt lat="49.17551" lon="6.73249">
        <ele>233</ele>
        <time>2020-01-21T09:42:41.000Z</time>
      </trkpt>
      <trkpt lat="49.17557" lon="6.73249">
        <ele>232</ele>
        <time>2020-01-21T09:42:51.000Z</time>
      </trkpt>
      <trkpt lat="49.17563" lon="6.73258">
        <ele>235</ele>
        <time>2020-01-21T09:43:01.000Z</time>
      </trkpt>
      <trkpt lat="49.1757" lon="6.73275">
        <ele>236</ele>
        <time>2020-01-21T09:43:11.000Z</time>
      </trkpt>
      <trkpt lat="49.17578" lon="6.73293">
        <ele>237</ele>
        <time>2020-01-21T09:43:21.000Z</time>
      </trkpt>
      <trkpt lat="49.17586" lon="6.73311">
        <ele>233</ele>
        <time>2020-01-21T09:43:31.000Z</time>
      </trkpt>
      <trkpt lat="49.17592" lon="6.73333">
        <ele>235</ele>
        <time>2020-01-21T09:43:41.000Z</time>
      </trkpt>
      <trkpt lat="49.17598" lon="6.73349">
        <ele>237</ele>
        <time>2020-01-21T09:43:51.000Z</time>
      </trkpt>
      <trkpt lat="49.17604" lon="6.7336">
        <ele>237</ele>
        <time>2020-01-21T09:44:01.000Z</time>
      </trkpt>
      <trkpt lat="49.17611" lon="6.73373">
        <ele>237</ele>
        <time>2020-01-21T09:44:11.000Z</time>
      </trkpt>
      <trkpt lat="49.1762" lon="6.73385">
        <ele>237</ele>
        <time>2020-01-21T09:44:21.000Z</time>
      </trkpt>
      <trkpt lat="49.17629" lon="6.73397">
        <ele>237</ele>
        <time>2020-01-21T09:44:31.000Z</time>
      </trkpt>
      <trkpt lat="49.17637" lon="6.7341">
        <ele>237</ele>
        <time>2020-01-21T09:44:41.000Z</time>
      </trkpt>
      <trkpt lat="49.17644" lon="6.73428">
        <ele>242</ele>
        <time>2020-01-21T09:44:51.000Z</time>
      </trkpt>
      <trkpt lat="49.17652" lon="6.73447">
        <ele>243</ele>
        <time>2020-01-21T09:45:01.000Z</time>
      </trkpt>
      <trkpt lat="49.17658" lon="6.73463">
        <ele>245</ele>
        <time>2020-01-21T09:45:11.000Z</time>
      </trkpt>
      <trkpt lat="49.17664" lon="6.73475">
        <ele>246</ele>
        <time>2020-01-21T09:45:21.000Z</time>
      </trkpt>
      <trkpt lat="49.1767" lon="6.7349">
        <ele>243</ele>
        <time>2020-01-21T09:45:31.000Z</time>
      </trkpt>
      <trkpt lat="49.17677" lon="6.73503">
        <ele>246</ele>
        <time>2020-01-21T09:45:41.000Z</time>
      </trkpt>
      <trkpt lat="49.17681" lon="6.73521">
        <ele>245</ele>
        <time>2020-01-21T09:45:51.000Z</time>
      </trkpt>
      <trkpt lat="49.17685" lon="6.73541">
        <ele>245</ele>
        <time>2020-01-21T09:46:01.000Z</time>
      </trkpt>
      <trkpt lat="49.17691" lon="6.73561">
        <ele>246</ele>
        <time>2020-01-21T09:46:11.000Z</time>
      </trkpt>
      <trkpt lat="49.17695" lon="6.7358">
        <ele>247</ele>
        <time>2020-01-21T09:46:21.000Z</time>
      </trkpt>
      <trkpt lat="49.17698" lon="6.736">
        <ele>249</ele>
        <time>2020-01-21T09:46:31.000Z</time>
      </trkpt>
      <trkpt lat="49.17699" lon="6.73618">
        <ele>248</ele>
        <time>2020-01-21T09:46:41.000Z</time>
      </trkpt>
      <trkpt lat="49.17699" lon="6.73635">
        <ele>249</ele>
        <time>2020-01-21T09:46:51.000Z</time>
      </trkpt>
      <trkpt lat="49.17697" lon="6.73651">
        <ele>249</ele>
        <time>2020-01-21T09:47:01.000Z</time>
      </trkpt>
      <trkpt lat="49.17702" lon="6.7366">
        <ele>249</ele>
        <time>2020-01-21T09:47:11.000Z</time>
      </trkpt>
      <trkpt lat="49.17707" lon="6.73663">
        <ele>248</ele>
        <time>2020-01-21T09:47:21.000Z</time>
      </trkpt>
      <trkpt lat="49.17708" lon="6.73677">
        <ele>249</ele>
        <time>2020-01-21T09:47:31.000Z</time>
      </trkpt>
      <trkpt lat="49.17718" lon="6.73686">
        <ele>247</ele>
        <time>2020-01-21T09:47:41.000Z</time>
      </trkpt>
      <trkpt lat="49.17721" lon="6.73704">
        <ele>248</ele>
        <time>2020-01-21T09:47:51.000Z</time>
      </trkpt>
      <trkpt lat="49.17726" lon="6.73724">
        <ele>248</ele>
        <time>2020-01-21T09:48:01.000Z</time>
      </trkpt>
      <trkpt lat="49.17734" lon="6.73745">
        <ele>246</ele>
        <time>2020-01-21T09:48:11.000Z</time>
      </trkpt>
      <trkpt lat="49.17738" lon="6.73766">
        <ele>247</ele>
        <time>2020-01-21T09:48:21.000Z</time>
      </trkpt>
      <trkpt lat="49.17732" lon="6.73788">
        <ele>249</ele>
        <time>2020-01-21T09:48:31.000Z</time>
      </trkpt>
      <trkpt lat="49.17726" lon="6.73808">
        <ele>249</ele>
        <time>2020-01-21T09:48:41.000Z</time>
      </trkpt>
      <trkpt lat="49.17724" lon="6.73831">
        <ele>249</ele>
        <time>2020-01-21T09:48:51.000Z</time>
      </trkpt>
      <trkpt lat="49.17717" lon="6.73847">
        <ele>250</ele>
        <time>2020-01-21T09:49:01.000Z</time>
      </trkpt>
      <trkpt lat="49.1771" lon="6.73862">
        <ele>250</ele>
        <time>2020-01-21T09:49:11.000Z</time>
      </trkpt>
      <trkpt lat="49.17701" lon="6.73875">
        <ele>251</ele>
        <time>2020-01-21T09:49:21.000Z</time>
      </trkpt>
      <trkpt lat="49.17693" lon="6.73886">
        <ele>251</ele>
        <time>2020-01-21T09:49:31.000Z</time>
      </trkpt>
      <trkpt lat="49.17685" lon="6.73897">
        <ele>251</ele>
        <time>2020-01-21T09:49:41.000Z</time>
      </trkpt>
      <trkpt lat="49.17686" lon="6.73907">
        <ele>251</ele>
        <time>2020-01-21T09:49:51.000Z</time>
      </trkpt>
      <trkpt lat="49.17689" lon="6.73907">
        <ele>251</ele>
        <time>2020-01-21T09:50:01.000Z</time>
      </trkpt>
      <trkpt lat="49.17689" lon="6.73895">
        <ele>251</ele>
        <time>2020-01-21T09:50:11.000Z</time>
      </trkpt>
      <trkpt lat="49.17684" lon="6.73886">
        <ele>251</ele>
        <time>2020-01-21T09:50:21.000Z</time>
      </trkpt>
      <trkpt lat="49.1768" lon="6.73888">
        <ele>251</ele>
        <time>2020-01-21T09:50:31.000Z</time>
      </trkpt>
      <trkpt lat="49.17684" lon="6.73882">
        <ele>251</ele>
        <time>2020-01-21T09:50:41.000Z</time>
      </trkpt>
      <trkpt lat="49.17694" lon="6.73876">
        <ele>251</ele>
        <time>2020-01-21T09:50:51.000Z</time>
      </trkpt>
      <trkpt lat="49.17707" lon="6.73876">
        <ele>250</ele>
        <time>2020-01-21T09:51:01.000Z</time>
      </trkpt>
      <trkpt lat="49.1772" lon="6.73872">
        <ele>250</ele>
        <time>2020-01-21T09:51:11.000Z</time>
      </trkpt>
      <trkpt lat="49.17735" lon="6.73874">
        <ele>249</ele>
        <time>2020-01-21T09:51:21.000Z</time>
      </trkpt>
      <trkpt lat="49.17755" lon="6.73879">
        <ele>242</ele>
        <time>2020-01-21T09:51:31.000Z</time>
      </trkpt>
      <trkpt lat="49.1777" lon="6.73886">
        <ele>241</ele>
        <time>2020-01-21T09:51:41.000Z</time>
      </trkpt>
      <trkpt lat="49.17784" lon="6.73892">
        <ele>240</ele>
        <time>2020-01-21T09:51:51.000Z</time>
      </trkpt>
      <trkpt lat="49.178" lon="6.73904">
        <ele>239</ele>
        <time>2020-01-21T09:52:01.000Z</time>
      </trkpt>
      <trkpt lat="49.17815" lon="6.73915">
        <ele>236</ele>
        <time>2020-01-21T09:52:11.000Z</time>
      </trkpt>
      <trkpt lat="49.17827" lon="6.73929">
        <ele>235</ele>
        <time>2020-01-21T09:52:21.000Z</time>
      </trkpt>
      <trkpt lat="49.1784" lon="6.73949">
        <ele>231</ele>
        <time>2020-01-21T09:52:31.000Z</time>
      </trkpt>
      <trkpt lat="49.17848" lon="6.73977">
        <ele>231</ele>
        <time>2020-01-21T09:52:41.000Z</time>
      </trkpt>
      <trkpt lat="49.1785" lon="6.74005">
        <ele>233</ele>
        <time>2020-01-21T09:52:51.000Z</time>
      </trkpt>
      <trkpt lat="49.17852" lon="6.74029">
        <ele>233</ele>
        <time>2020-01-21T09:53:01.000Z</time>
      </trkpt>
      <trkpt lat="49.17854" lon="6.7405">
        <ele>232</ele>
        <time>2020-01-21T09:53:11.000Z</time>
      </trkpt>
      <trkpt lat="49.17852" lon="6.74069">
        <ele>233</ele>
        <time>2020-01-21T09:53:21.000Z</time>
      </trkpt>
      <trkpt lat="49.17843" lon="6.74088">
        <ele>234</ele>
        <time>2020-01-21T09:53:31.000Z</time>
      </trkpt>
      <trkpt lat="49.17838" lon="6.74089">
        <ele>234</ele>
        <time>2020-01-21T09:53:41.000Z</time>
      </trkpt>
      <trkpt lat="49.17837" lon="6.74089">
        <ele>234</ele>
        <time>2020-01-21T09:53:51.000Z</time>
      </trkpt>
      <trkpt lat="49.17834" lon="6.74101">
        <ele>235</ele>
        <time>2020-01-21T09:54:01.000Z</time>
      </trkpt>
      <trkpt lat="49.17826" lon="6.74112">
        <ele>239</ele>
        <time>2020-01-21T09:54:11.000Z</time>
      </trkpt>
      <trkpt lat="49.17822" lon="6.74119">
        <ele>239</ele>
        <time>2020-01-21T09:54:21.000Z</time>
      </trkpt>
      <trkpt lat="49.17821" lon="6.74122">
        <ele>239</ele>
        <time>2020-01-21T09:54:42.000Z</time>
      </trkpt>
      <trkpt lat="49.17821" lon="6.74127">
        <ele>239</ele>
        <time>2020-01-21T09:54:52.000Z</time>
      </trkpt>
      <trkpt lat="49.17815" lon="6.74136">
        <ele>240</ele>
        <time>2020-01-21T09:55:02.000Z</time>
      </trkpt>
      <trkpt lat="49.17807" lon="6.74145">
        <ele>240</ele>
        <time>2020-01-21T09:55:12.000Z</time>
      </trkpt>
      <trkpt lat="49.17799" lon="6.74156">
        <ele>241</ele>
        <time>2020-01-21T09:55:22.000Z</time>
      </trkpt>
      <trkpt lat="49.1779" lon="6.74164">
        <ele>241</ele>
        <time>2020-01-21T09:55:32.000Z</time>
      </trkpt>
      <trkpt lat="49.17774" lon="6.74177">
        <ele>244</ele>
        <time>2020-01-21T09:55:42.000Z</time>
      </trkpt>
      <trkpt lat="49.17768" lon="6.74191">
        <ele>244</ele>
        <time>2020-01-21T09:55:52.000Z</time>
      </trkpt>
      <trkpt lat="49.1776" lon="6.74206">
        <ele>244</ele>
        <time>2020-01-21T09:56:02.000Z</time>
      </trkpt>
      <trkpt lat="49.17752" lon="6.7422">
        <ele>243</ele>
        <time>2020-01-21T09:56:12.000Z</time>
      </trkpt>
      <trkpt lat="49.17746" lon="6.74238">
        <ele>246</ele>
        <time>2020-01-21T09:56:22.000Z</time>
      </trkpt>
      <trkpt lat="49.1774" lon="6.74265">
        <ele>246</ele>
        <time>2020-01-21T09:56:32.000Z</time>
      </trkpt>
      <trkpt lat="49.17735" lon="6.74281">
        <ele>247</ele>
        <time>2020-01-21T09:56:42.000Z</time>
      </trkpt>
      <trkpt lat="49.1773" lon="6.74298">
        <ele>247</ele>
        <time>2020-01-21T09:56:52.000Z</time>
      </trkpt>
      <trkpt lat="49.17722" lon="6.74316">
        <ele>247</ele>
        <time>2020-01-21T09:57:02.000Z</time>
      </trkpt>
      <trkpt lat="49.17714" lon="6.74332">
        <ele>247</ele>
        <time>2020-01-21T09:57:12.000Z</time>
      </trkpt>
      <trkpt lat="49.17707" lon="6.74347">
        <ele>246</ele>
        <time>2020-01-21T09:57:22.000Z</time>
      </trkpt>
      <trkpt lat="49.177" lon="6.74362">
        <ele>247</ele>
        <time>2020-01-21T09:57:32.000Z</time>
      </trkpt>
      <trkpt lat="49.17695" lon="6.74379">
        <ele>246</ele>
        <time>2020-01-21T09:57:42.000Z</time>
      </trkpt>
      <trkpt lat="49.17697" lon="6.74392">
        <ele>246</ele>
        <time>2020-01-21T09:57:52.000Z</time>
      </trkpt>
      <trkpt lat="49.17701" lon="6.74402">
        <ele>246</ele>
        <time>2020-01-21T09:58:02.000Z</time>
      </trkpt>
      <trkpt lat="49.17704" lon="6.74415">
        <ele>246</ele>
        <time>2020-01-21T09:58:12.000Z</time>
      </trkpt>
      <trkpt lat="49.17703" lon="6.74435">
        <ele>247</ele>
        <time>2020-01-21T09:58:22.000Z</time>
      </trkpt>
      <trkpt lat="49.17698" lon="6.74455">
        <ele>247</ele>
        <time>2020-01-21T09:58:32.000Z</time>
      </trkpt>
      <trkpt lat="49.1769" lon="6.74472">
        <ele>247</ele>
        <time>2020-01-21T09:58:42.000Z</time>
      </trkpt>
      <trkpt lat="49.17678" lon="6.74486">
        <ele>246</ele>
        <time>2020-01-21T09:58:52.000Z</time>
      </trkpt>
      <trkpt lat="49.17664" lon="6.74499">
        <ele>246</ele>
        <time>2020-01-21T09:59:02.000Z</time>
      </trkpt>
      <trkpt lat="49.17656" lon="6.74513">
        <ele>249</ele>
        <time>2020-01-21T09:59:12.000Z</time>
      </trkpt>
      <trkpt lat="49.17649" lon="6.74527">
        <ele>250</ele>
        <time>2020-01-21T09:59:22.000Z</time>
      </trkpt>
      <trkpt lat="49.17649" lon="6.74542">
        <ele>251</ele>
        <time>2020-01-21T09:59:32.000Z</time>
      </trkpt>
      <trkpt lat="49.17651" lon="6.74546">
        <ele>251</ele>
        <time>2020-01-21T09:59:42.000Z</time>
      </trkpt>
      <trkpt lat="49.17651" lon="6.74548">
        <ele>251</ele>
        <time>2020-01-21T09:59:52.000Z</time>
      </trkpt>
      <trkpt lat="49.17649" lon="6.74557">
        <ele>252</ele>
        <time>2020-01-21T10:00:02.000Z</time>
      </trkpt>
      <trkpt lat="49.1765" lon="6.74559">
        <ele>252</ele>
        <time>2020-01-21T10:00:12.000Z</time>
      </trkpt>
      <trkpt lat="49.17644" lon="6.74563">
        <ele>252</ele>
        <time>2020-01-21T10:00:22.000Z</time>
      </trkpt>
      <trkpt lat="49.17644" lon="6.74578">
        <ele>252</ele>
        <time>2020-01-21T10:00:32.000Z</time>
      </trkpt>
      <trkpt lat="49.17641" lon="6.74592">
        <ele>257</ele>
        <time>2020-01-21T10:00:42.000Z</time>
      </trkpt>
      <trkpt lat="49.17636" lon="6.74611">
        <ele>258</ele>
        <time>2020-01-21T10:00:52.000Z</time>
      </trkpt>
      <trkpt lat="49.17631" lon="6.74628">
        <ele>259</ele>
        <time>2020-01-21T10:01:02.000Z</time>
      </trkpt>
      <trkpt lat="49.17629" lon="6.74639">
        <ele>260</ele>
        <time>2020-01-21T10:01:12.000Z</time>
      </trkpt>
      <trkpt lat="49.17631" lon="6.74645">
        <ele>260</ele>
        <time>2020-01-21T10:01:22.000Z</time>
      </trkpt>
      <trkpt lat="49.17626" lon="6.74651">
        <ele>261</ele>
        <time>2020-01-21T10:01:32.000Z</time>
      </trkpt>
      <trkpt lat="49.17626" lon="6.7466">
        <ele>261</ele>
        <time>2020-01-21T10:01:42.000Z</time>
      </trkpt>
      <trkpt lat="49.17627" lon="6.74664">
        <ele>261</ele>
        <time>2020-01-21T10:01:52.000Z</time>
      </trkpt>
      <trkpt lat="49.17631" lon="6.74676">
        <ele>265</ele>
        <time>2020-01-21T10:02:02.000Z</time>
      </trkpt>
      <trkpt lat="49.17627" lon="6.74682">
        <ele>266</ele>
        <time>2020-01-21T10:02:12.000Z</time>
      </trkpt>
      <trkpt lat="49.17626" lon="6.74699">
        <ele>266</ele>
        <time>2020-01-21T10:02:22.000Z</time>
      </trkpt>
      <trkpt lat="49.17628" lon="6.74709">
        <ele>266</ele>
        <time>2020-01-21T10:02:32.000Z</time>
      </trkpt>
      <trkpt lat="49.17628" lon="6.74715">
        <ele>266</ele>
        <time>2020-01-21T10:02:42.000Z</time>
      </trkpt>
      <trkpt lat="49.17628" lon="6.74718">
        <ele>266</ele>
        <time>2020-01-21T10:02:52.000Z</time>
      </trkpt>
      <trkpt lat="49.17629" lon="6.74719">
        <ele>266</ele>
        <time>2020-01-21T10:03:23.000Z</time>
      </trkpt>
      <trkpt lat="49.17628" lon="6.74718">
        <ele>266</ele>
        <time>2020-01-21T10:03:33.000Z</time>
      </trkpt>
      <trkpt lat="49.17627" lon="6.74721">
        <ele>267</ele>
        <time>2020-01-21T10:03:43.000Z</time>
      </trkpt>
      <trkpt lat="49.17627" lon="6.74724">
        <ele>267</ele>
        <time>2020-01-21T10:04:00.000Z</time>
      </trkpt>
      <trkpt lat="49.17627" lon="6.74722">
        <ele>267</ele>
        <time>2020-01-21T10:04:10.000Z</time>
      </trkpt>
      <trkpt lat="49.17628" lon="6.74722">
        <ele>267</ele>
        <time>2020-01-21T10:04:30.000Z</time>
      </trkpt>
      <trkpt lat="49.1763" lon="6.74725">
        <ele>267</ele>
        <time>2020-01-21T10:05:34.000Z</time>
      </trkpt>
      <trkpt lat="49.17635" lon="6.74734">
        <ele>267</ele>
        <time>2020-01-21T10:05:44.000Z</time>
      </trkpt>
      <trkpt lat="49.17645" lon="6.74747">
        <ele>267</ele>
        <time>2020-01-21T10:05:54.000Z</time>
      </trkpt>
      <trkpt lat="49.17655" lon="6.74765">
        <ele>269</ele>
        <time>2020-01-21T10:06:04.000Z</time>
      </trkpt>
      <trkpt lat="49.1766" lon="6.74776">
        <ele>269</ele>
        <time>2020-01-21T10:06:14.000Z</time>
      </trkpt>
      <trkpt lat="49.17665" lon="6.74789">
        <ele>270</ele>
        <time>2020-01-21T10:06:24.000Z</time>
      </trkpt>
      <trkpt lat="49.17671" lon="6.74806">
        <ele>267</ele>
        <time>2020-01-21T10:06:34.000Z</time>
      </trkpt>
      <trkpt lat="49.17673" lon="6.74816">
        <ele>268</ele>
        <time>2020-01-21T10:06:44.000Z</time>
      </trkpt>
      <trkpt lat="49.17673" lon="6.74838">
        <ele>270</ele>
        <time>2020-01-21T10:06:54.000Z</time>
      </trkpt>
      <trkpt lat="49.17673" lon="6.74845">
        <ele>270</ele>
        <time>2020-01-21T10:07:04.000Z</time>
      </trkpt>
      <trkpt lat="49.17671" lon="6.7485">
        <ele>270</ele>
        <time>2020-01-21T10:07:15.000Z</time>
      </trkpt>
      <trkpt lat="49.1767" lon="6.74852">
        <ele>270</ele>
        <time>2020-01-21T10:07:25.000Z</time>
      </trkpt>
      <trkpt lat="49.17665" lon="6.74862">
        <ele>272</ele>
        <time>2020-01-21T10:07:35.000Z</time>
      </trkpt>
      <trkpt lat="49.17656" lon="6.74874">
        <ele>273</ele>
        <time>2020-01-21T10:07:45.000Z</time>
      </trkpt>
      <trkpt lat="49.17649" lon="6.74885">
        <ele>273</ele>
        <time>2020-01-21T10:07:55.000Z</time>
      </trkpt>
      <trkpt lat="49.17643" lon="6.74895">
        <ele>273</ele>
        <time>2020-01-21T10:08:05.000Z</time>
      </trkpt>
      <trkpt lat="49.17636" lon="6.74906">
        <ele>273</ele>
        <time>2020-01-21T10:08:15.000Z</time>
      </trkpt>
      <trkpt lat="49.17623" lon="6.74921">
        <ele>275</ele>
        <time>2020-01-21T10:08:25.000Z</time>
      </trkpt>
      <trkpt lat="49.17614" lon="6.74933">
        <ele>275</ele>
        <time>2020-01-21T10:08:35.000Z</time>
      </trkpt>
      <trkpt lat="49.17608" lon="6.74943">
        <ele>275</ele>
        <time>2020-01-21T10:08:45.000Z</time>
      </trkpt>
      <trkpt lat="49.17597" lon="6.74957">
        <ele>276</ele>
        <time>2020-01-21T10:08:55.000Z</time>
      </trkpt>
      <trkpt lat="49.17583" lon="6.74969">
        <ele>280</ele>
        <time>2020-01-21T10:09:05.000Z</time>
      </trkpt>
      <trkpt lat="49.17574" lon="6.74981">
        <ele>280</ele>
        <time>2020-01-21T10:09:15.000Z</time>
      </trkpt>
      <trkpt lat="49.17566" lon="6.74991">
        <ele>280</ele>
        <time>2020-01-21T10:09:25.000Z</time>
      </trkpt>
      <trkpt lat="49.17556" lon="6.75002">
        <ele>282</ele>
        <time>2020-01-21T10:09:35.000Z</time>
      </trkpt>
      <trkpt lat="49.17549" lon="6.75012">
        <ele>282</ele>
        <time>2020-01-21T10:09:45.000Z</time>
      </trkpt>
      <trkpt lat="49.17541" lon="6.75025">
        <ele>283</ele>
        <time>2020-01-21T10:09:55.000Z</time>
      </trkpt>
      <trkpt lat="49.17533" lon="6.75037">
        <ele>284</ele>
        <time>2020-01-21T10:10:05.000Z</time>
      </trkpt>
      <trkpt lat="49.17524" lon="6.75049">
        <ele>284</ele>
        <time>2020-01-21T10:10:15.000Z</time>
      </trkpt>
      <trkpt lat="49.17515" lon="6.75059">
        <ele>285</ele>
        <time>2020-01-21T10:10:25.000Z</time>
      </trkpt>
      <trkpt lat="49.17506" lon="6.75074">
        <ele>286</ele>
        <time>2020-01-21T10:10:35.000Z</time>
      </trkpt>
      <trkpt lat="49.17501" lon="6.75093">
        <ele>287</ele>
        <time>2020-01-21T10:10:45.000Z</time>
      </trkpt>
      <trkpt lat="49.17498" lon="6.75111">
        <ele>289</ele>
        <time>2020-01-21T10:10:55.000Z</time>
      </trkpt>
      <trkpt lat="49.17491" lon="6.75123">
        <ele>289</ele>
        <time>2020-01-21T10:11:05.000Z</time>
      </trkpt>
      <trkpt lat="49.17481" lon="6.75128">
        <ele>289</ele>
        <time>2020-01-21T10:11:15.000Z</time>
      </trkpt>
      <trkpt lat="49.17466" lon="6.75133">
        <ele>289</ele>
        <time>2020-01-21T10:11:25.000Z</time>
      </trkpt>
      <trkpt lat="49.17453" lon="6.75138">
        <ele>289</ele>
        <time>2020-01-21T10:11:35.000Z</time>
      </trkpt>
      <trkpt lat="49.1745" lon="6.75142">
        <ele>289</ele>
        <time>2020-01-21T10:11:45.000Z</time>
      </trkpt>
      <trkpt lat="49.17446" lon="6.75154">
        <ele>289</ele>
        <time>2020-01-21T10:11:55.000Z</time>
      </trkpt>
      <trkpt lat="49.17435" lon="6.7517">
        <ele>289</ele>
        <time>2020-01-21T10:12:05.000Z</time>
      </trkpt>
      <trkpt lat="49.17424" lon="6.75179">
        <ele>289</ele>
        <time>2020-01-21T10:12:15.000Z</time>
      </trkpt>
      <trkpt lat="49.17415" lon="6.75188">
        <ele>289</ele>
        <time>2020-01-21T10:12:25.000Z</time>
      </trkpt>
      <trkpt lat="49.17402" lon="6.75203">
        <ele>289</ele>
        <time>2020-01-21T10:12:35.000Z</time>
      </trkpt>
      <trkpt lat="49.17389" lon="6.75216">
        <ele>289</ele>
        <time>2020-01-21T10:12:45.000Z</time>
      </trkpt>
      <trkpt lat="49.17377" lon="6.75227">
        <ele>289</ele>
        <time>2020-01-21T10:12:55.000Z</time>
      </trkpt>
      <trkpt lat="49.17368" lon="6.75238">
        <ele>289</ele>
        <time>2020-01-21T10:13:05.000Z</time>
      </trkpt>
      <trkpt lat="49.17368" lon="6.75241">
        <ele>289</ele>
        <time>2020-01-21T10:13:15.000Z</time>
      </trkpt>
      <trkpt lat="49.1737" lon="6.75242">
        <ele>289</ele>
        <time>2020-01-21T10:13:25.000Z</time>
      </trkpt>
      <trkpt lat="49.17367" lon="6.75251">
        <ele>289</ele>
        <time>2020-01-21T10:13:35.000Z</time>
      </trkpt>
      <trkpt lat="49.17356" lon="6.75262">
        <ele>289</ele>
        <time>2020-01-21T10:13:45.000Z</time>
      </trkpt>
      <trkpt lat="49.17344" lon="6.75273">
        <ele>290</ele>
        <time>2020-01-21T10:13:55.000Z</time>
      </trkpt>
      <trkpt lat="49.17335" lon="6.75282">
        <ele>290</ele>
        <time>2020-01-21T10:14:05.000Z</time>
      </trkpt>
      <trkpt lat="49.17324" lon="6.75295">
        <ele>293</ele>
        <time>2020-01-21T10:14:15.000Z</time>
      </trkpt>
      <trkpt lat="49.17317" lon="6.75305">
        <ele>293</ele>
        <time>2020-01-21T10:14:25.000Z</time>
      </trkpt>
      <trkpt lat="49.1731" lon="6.75317">
        <ele>293</ele>
        <time>2020-01-21T10:14:35.000Z</time>
      </trkpt>
      <trkpt lat="49.17302" lon="6.75328">
        <ele>293</ele>
        <time>2020-01-21T10:14:45.000Z</time>
      </trkpt>
      <trkpt lat="49.17292" lon="6.75342">
        <ele>295</ele>
        <time>2020-01-21T10:14:55.000Z</time>
      </trkpt>
      <trkpt lat="49.17279" lon="6.75357">
        <ele>295</ele>
        <time>2020-01-21T10:15:05.000Z</time>
      </trkpt>
      <trkpt lat="49.17269" lon="6.75369">
        <ele>295</ele>
        <time>2020-01-21T10:15:15.000Z</time>
      </trkpt>
      <trkpt lat="49.17258" lon="6.7538">
        <ele>296</ele>
        <time>2020-01-21T10:15:25.000Z</time>
      </trkpt>
      <trkpt lat="49.17247" lon="6.75393">
        <ele>298</ele>
        <time>2020-01-21T10:15:35.000Z</time>
      </trkpt>
      <trkpt lat="49.17237" lon="6.75401">
        <ele>298</ele>
        <time>2020-01-21T10:15:45.000Z</time>
      </trkpt>
      <trkpt lat="49.17228" lon="6.7541">
        <ele>298</ele>
        <time>2020-01-21T10:15:55.000Z</time>
      </trkpt>
      <trkpt lat="49.17218" lon="6.75417">
        <ele>299</ele>
        <time>2020-01-21T10:16:05.000Z</time>
      </trkpt>
      <trkpt lat="49.17209" lon="6.75424">
        <ele>299</ele>
        <time>2020-01-21T10:16:15.000Z</time>
      </trkpt>
      <trkpt lat="49.172" lon="6.75433">
        <ele>299</ele>
        <time>2020-01-21T10:16:25.000Z</time>
      </trkpt>
      <trkpt lat="49.17188" lon="6.75444">
        <ele>299</ele>
        <time>2020-01-21T10:16:35.000Z</time>
      </trkpt>
      <trkpt lat="49.17176" lon="6.75457">
        <ele>299</ele>
        <time>2020-01-21T10:16:45.000Z</time>
      </trkpt>
      <trkpt lat="49.17166" lon="6.75468">
        <ele>297</ele>
        <time>2020-01-21T10:16:55.000Z</time>
      </trkpt>
      <trkpt lat="49.17154" lon="6.7548">
        <ele>297</ele>
        <time>2020-01-21T10:17:05.000Z</time>
      </trkpt>
      <trkpt lat="49.17141" lon="6.75491">
        <ele>297</ele>
        <time>2020-01-21T10:17:15.000Z</time>
      </trkpt>
      <trkpt lat="49.1713" lon="6.75501">
        <ele>295</ele>
        <time>2020-01-21T10:17:25.000Z</time>
      </trkpt>
      <trkpt lat="49.17119" lon="6.7551">
        <ele>294</ele>
        <time>2020-01-21T10:17:35.000Z</time>
      </trkpt>
      <trkpt lat="49.17112" lon="6.75518">
        <ele>294</ele>
        <time>2020-01-21T10:17:45.000Z</time>
      </trkpt>
      <trkpt lat="49.17103" lon="6.75527">
        <ele>294</ele>
        <time>2020-01-21T10:17:55.000Z</time>
      </trkpt>
      <trkpt lat="49.17093" lon="6.75533">
        <ele>294</ele>
        <time>2020-01-21T10:18:05.000Z</time>
      </trkpt>
      <trkpt lat="49.17081" lon="6.75541">
        <ele>290</ele>
        <time>2020-01-21T10:18:15.000Z</time>
      </trkpt>
      <trkpt lat="49.17068" lon="6.75549">
        <ele>289</ele>
        <time>2020-01-21T10:18:25.000Z</time>
      </trkpt>
      <trkpt lat="49.17056" lon="6.75558">
        <ele>289</ele>
        <time>2020-01-21T10:18:35.000Z</time>
      </trkpt>
      <trkpt lat="49.17044" lon="6.75567">
        <ele>288</ele>
        <time>2020-01-21T10:18:45.000Z</time>
      </trkpt>
      <trkpt lat="49.17034" lon="6.75577">
        <ele>288</ele>
        <time>2020-01-21T10:18:55.000Z</time>
      </trkpt>
      <trkpt lat="49.17023" lon="6.75587">
        <ele>287</ele>
        <time>2020-01-21T10:19:05.000Z</time>
      </trkpt>
      <trkpt lat="49.17011" lon="6.75597">
        <ele>286</ele>
        <time>2020-01-21T10:19:15.000Z</time>
      </trkpt>
      <trkpt lat="49.17001" lon="6.75603">
        <ele>286</ele>
        <time>2020-01-21T10:19:25.000Z</time>
      </trkpt>
      <trkpt lat="49.16993" lon="6.75616">
        <ele>284</ele>
        <time>2020-01-21T10:19:35.000Z</time>
      </trkpt>
      <trkpt lat="49.16981" lon="6.75626">
        <ele>284</ele>
        <time>2020-01-21T10:19:45.000Z</time>
      </trkpt>
      <trkpt lat="49.16971" lon="6.75638">
        <ele>284</ele>
        <time>2020-01-21T10:19:55.000Z</time>
      </trkpt>
      <trkpt lat="49.16961" lon="6.75652">
        <ele>284</ele>
        <time>2020-01-21T10:20:05.000Z</time>
      </trkpt>
      <trkpt lat="49.16949" lon="6.75665">
        <ele>283</ele>
        <time>2020-01-21T10:20:15.000Z</time>
      </trkpt>
      <trkpt lat="49.16937" lon="6.75675">
        <ele>285</ele>
        <time>2020-01-21T10:20:25.000Z</time>
      </trkpt>
      <trkpt lat="49.16931" lon="6.75676">
        <ele>284</ele>
        <time>2020-01-21T10:20:35.000Z</time>
      </trkpt>
      <trkpt lat="49.16932" lon="6.75684">
        <ele>285</ele>
        <time>2020-01-21T10:20:45.000Z</time>
      </trkpt>
      <trkpt lat="49.16926" lon="6.75693">
        <ele>285</ele>
        <time>2020-01-21T10:20:55.000Z</time>
      </trkpt>
      <trkpt lat="49.16913" lon="6.75702">
        <ele>285</ele>
        <time>2020-01-21T10:21:05.000Z</time>
      </trkpt>
      <trkpt lat="49.16897" lon="6.75711">
        <ele>285</ele>
        <time>2020-01-21T10:21:15.000Z</time>
      </trkpt>
      <trkpt lat="49.1688" lon="6.75725">
        <ele>285</ele>
        <time>2020-01-21T10:21:25.000Z</time>
      </trkpt>
      <trkpt lat="49.16867" lon="6.75734">
        <ele>285</ele>
        <time>2020-01-21T10:21:35.000Z</time>
      </trkpt>
      <trkpt lat="49.16858" lon="6.75742">
        <ele>285</ele>
        <time>2020-01-21T10:21:45.000Z</time>
      </trkpt>
      <trkpt lat="49.16851" lon="6.75756">
        <ele>286</ele>
        <time>2020-01-21T10:21:55.000Z</time>
      </trkpt>
      <trkpt lat="49.16841" lon="6.75769">
        <ele>286</ele>
        <time>2020-01-21T10:22:05.000Z</time>
      </trkpt>
      <trkpt lat="49.1683" lon="6.7578">
        <ele>287</ele>
        <time>2020-01-21T10:22:15.000Z</time>
      </trkpt>
      <trkpt lat="49.16819" lon="6.75789">
        <ele>287</ele>
        <time>2020-01-21T10:22:25.000Z</time>
      </trkpt>
      <trkpt lat="49.16809" lon="6.75797">
        <ele>288</ele>
        <time>2020-01-21T10:22:35.000Z</time>
      </trkpt>
      <trkpt lat="49.16797" lon="6.75804">
        <ele>288</ele>
        <time>2020-01-21T10:22:45.000Z</time>
      </trkpt>
      <trkpt lat="49.16786" lon="6.7581">
        <ele>288</ele>
        <time>2020-01-21T10:22:55.000Z</time>
      </trkpt>
      <trkpt lat="49.16776" lon="6.75818">
        <ele>289</ele>
        <time>2020-01-21T10:23:05.000Z</time>
      </trkpt>
      <trkpt lat="49.16765" lon="6.75829">
        <ele>289</ele>
        <time>2020-01-21T10:23:15.000Z</time>
      </trkpt>
      <trkpt lat="49.16753" lon="6.75839">
        <ele>289</ele>
        <time>2020-01-21T10:23:25.000Z</time>
      </trkpt>
      <trkpt lat="49.16742" lon="6.7585">
        <ele>290</ele>
        <time>2020-01-21T10:23:35.000Z</time>
      </trkpt>
      <trkpt lat="49.1673" lon="6.75862">
        <ele>289</ele>
        <time>2020-01-21T10:23:45.000Z</time>
      </trkpt>
      <trkpt lat="49.1672" lon="6.75878">
        <ele>289</ele>
        <time>2020-01-21T10:23:55.000Z</time>
      </trkpt>
      <trkpt lat="49.16726" lon="6.75889">
        <ele>289</ele>
        <time>2020-01-21T10:24:05.000Z</time>
      </trkpt>
      <trkpt lat="49.16737" lon="6.75899">
        <ele>289</ele>
        <time>2020-01-21T10:24:15.000Z</time>
      </trkpt>
      <trkpt lat="49.1675" lon="6.75915">
        <ele>288</ele>
        <time>2020-01-21T10:24:25.000Z</time>
      </trkpt>
      <trkpt lat="49.1676" lon="6.75932">
        <ele>288</ele>
        <time>2020-01-21T10:24:35.000Z</time>
      </trkpt>
      <trkpt lat="49.16768" lon="6.75951">
        <ele>288</ele>
        <time>2020-01-21T10:24:45.000Z</time>
      </trkpt>
      <trkpt lat="49.16778" lon="6.75974">
        <ele>289</ele>
        <time>2020-01-21T10:24:55.000Z</time>
      </trkpt>
      <trkpt lat="49.16786" lon="6.75992">
        <ele>289</ele>
        <time>2020-01-21T10:25:05.000Z</time>
      </trkpt>
      <trkpt lat="49.16794" lon="6.76012">
        <ele>288</ele>
        <time>2020-01-21T10:25:15.000Z</time>
      </trkpt>
      <trkpt lat="49.168" lon="6.76029">
        <ele>288</ele>
        <time>2020-01-21T10:25:25.000Z</time>
      </trkpt>
      <trkpt lat="49.16805" lon="6.76045">
        <ele>288</ele>
        <time>2020-01-21T10:25:35.000Z</time>
      </trkpt>
      <trkpt lat="49.16811" lon="6.76061">
        <ele>287</ele>
        <time>2020-01-21T10:25:45.000Z</time>
      </trkpt>
      <trkpt lat="49.16818" lon="6.7608">
        <ele>287</ele>
        <time>2020-01-21T10:25:55.000Z</time>
      </trkpt>
      <trkpt lat="49.16821" lon="6.76098">
        <ele>285</ele>
        <time>2020-01-21T10:26:05.000Z</time>
      </trkpt>
      <trkpt lat="49.16824" lon="6.76118">
        <ele>285</ele>
        <time>2020-01-21T10:26:15.000Z</time>
      </trkpt>
      <trkpt lat="49.1683" lon="6.76137">
        <ele>285</ele>
        <time>2020-01-21T10:26:25.000Z</time>
      </trkpt>
      <trkpt lat="49.16838" lon="6.76157">
        <ele>284</ele>
        <time>2020-01-21T10:26:35.000Z</time>
      </trkpt>
      <trkpt lat="49.16846" lon="6.76174">
        <ele>283</ele>
        <time>2020-01-21T10:26:45.000Z</time>
      </trkpt>
      <trkpt lat="49.16852" lon="6.7619">
        <ele>282</ele>
        <time>2020-01-21T10:26:55.000Z</time>
      </trkpt>
      <trkpt lat="49.16863" lon="6.76204">
        <ele>282</ele>
        <time>2020-01-21T10:27:05.000Z</time>
      </trkpt>
      <trkpt lat="49.1687" lon="6.76221">
        <ele>282</ele>
        <time>2020-01-21T10:27:15.000Z</time>
      </trkpt>
      <trkpt lat="49.16878" lon="6.76238">
        <ele>281</ele>
        <time>2020-01-21T10:27:25.000Z</time>
      </trkpt>
      <trkpt lat="49.16884" lon="6.76255">
        <ele>278</ele>
        <time>2020-01-21T10:27:35.000Z</time>
      </trkpt>
      <trkpt lat="49.16892" lon="6.76274">
        <ele>277</ele>
        <time>2020-01-21T10:27:45.000Z</time>
      </trkpt>
      <trkpt lat="49.16896" lon="6.76292">
        <ele>276</ele>
        <time>2020-01-21T10:27:55.000Z</time>
      </trkpt>
      <trkpt lat="49.16897" lon="6.76313">
        <ele>275</ele>
        <time>2020-01-21T10:28:05.000Z</time>
      </trkpt>
      <trkpt lat="49.169" lon="6.76331">
        <ele>274</ele>
        <time>2020-01-21T10:28:15.000Z</time>
      </trkpt>
      <trkpt lat="49.16908" lon="6.76348">
        <ele>272</ele>
        <time>2020-01-21T10:28:25.000Z</time>
      </trkpt>
      <trkpt lat="49.16916" lon="6.76366">
        <ele>271</ele>
        <time>2020-01-21T10:28:35.000Z</time>
      </trkpt>
      <trkpt lat="49.16916" lon="6.7638">
        <ele>271</ele>
        <time>2020-01-21T10:28:45.000Z</time>
      </trkpt>
      <trkpt lat="49.16898" lon="6.76395">
        <ele>270</ele>
        <time>2020-01-21T10:28:55.000Z</time>
      </trkpt>
      <trkpt lat="49.16882" lon="6.76408">
        <ele>270</ele>
        <time>2020-01-21T10:29:05.000Z</time>
      </trkpt>
      <trkpt lat="49.16869" lon="6.76419">
        <ele>268</ele>
        <time>2020-01-21T10:29:15.000Z</time>
      </trkpt>
      <trkpt lat="49.16858" lon="6.7643">
        <ele>268</ele>
        <time>2020-01-21T10:29:25.000Z</time>
      </trkpt>
      <trkpt lat="49.16847" lon="6.7644">
        <ele>268</ele>
        <time>2020-01-21T10:29:35.000Z</time>
      </trkpt>
      <trkpt lat="49.16835" lon="6.76452">
        <ele>268</ele>
        <time>2020-01-21T10:29:45.000Z</time>
      </trkpt>
      <trkpt lat="49.16824" lon="6.76464">
        <ele>267</ele>
        <time>2020-01-21T10:29:55.000Z</time>
      </trkpt>
      <trkpt lat="49.16813" lon="6.76475">
        <ele>266</ele>
        <time>2020-01-21T10:30:05.000Z</time>
      </trkpt>
      <trkpt lat="49.16802" lon="6.76486">
        <ele>266</ele>
        <time>2020-01-21T10:30:15.000Z</time>
      </trkpt>
      <trkpt lat="49.1679" lon="6.76494">
        <ele>266</ele>
        <time>2020-01-21T10:30:25.000Z</time>
      </trkpt>
      <trkpt lat="49.16781" lon="6.76503">
        <ele>263</ele>
        <time>2020-01-21T10:30:35.000Z</time>
      </trkpt>
      <trkpt lat="49.16772" lon="6.76519">
        <ele>263</ele>
        <time>2020-01-21T10:30:45.000Z</time>
      </trkpt>
      <trkpt lat="49.16766" lon="6.76535">
        <ele>263</ele>
        <time>2020-01-21T10:30:55.000Z</time>
      </trkpt>
      <trkpt lat="49.1676" lon="6.76551">
        <ele>262</ele>
        <time>2020-01-21T10:31:05.000Z</time>
      </trkpt>
      <trkpt lat="49.16759" lon="6.76567">
        <ele>262</ele>
        <time>2020-01-21T10:31:15.000Z</time>
      </trkpt>
      <trkpt lat="49.1676" lon="6.76582">
        <ele>261</ele>
        <time>2020-01-21T10:31:25.000Z</time>
      </trkpt>
      <trkpt lat="49.16761" lon="6.76601">
        <ele>261</ele>
        <time>2020-01-21T10:31:35.000Z</time>
      </trkpt>
      <trkpt lat="49.16762" lon="6.76619">
        <ele>261</ele>
        <time>2020-01-21T10:31:45.000Z</time>
      </trkpt>
      <trkpt lat="49.16763" lon="6.76636">
        <ele>261</ele>
        <time>2020-01-21T10:31:55.000Z</time>
      </trkpt>
      <trkpt lat="49.16764" lon="6.76654">
        <ele>261</ele>
        <time>2020-01-21T10:32:05.000Z</time>
      </trkpt>
      <trkpt lat="49.16762" lon="6.76674">
        <ele>260</ele>
        <time>2020-01-21T10:32:15.000Z</time>
      </trkpt>
      <trkpt lat="49.1676" lon="6.76695">
        <ele>259</ele>
        <time>2020-01-21T10:32:25.000Z</time>
      </trkpt>
      <trkpt lat="49.16756" lon="6.76712">
        <ele>258</ele>
        <time>2020-01-21T10:32:35.000Z</time>
      </trkpt>
      <trkpt lat="49.16753" lon="6.76729">
        <ele>257</ele>
        <time>2020-01-21T10:32:45.000Z</time>
      </trkpt>
      <trkpt lat="49.1675" lon="6.76747">
        <ele>256</ele>
        <time>2020-01-21T10:32:55.000Z</time>
      </trkpt>
      <trkpt lat="49.16749" lon="6.76767">
        <ele>257</ele>
        <time>2020-01-21T10:33:05.000Z</time>
      </trkpt>
      <trkpt lat="49.16748" lon="6.76787">
        <ele>257</ele>
        <time>2020-01-21T10:33:15.000Z</time>
      </trkpt>
      <trkpt lat="49.1675" lon="6.76809">
        <ele>256</ele>
        <time>2020-01-21T10:33:25.000Z</time>
      </trkpt>
      <trkpt lat="49.16753" lon="6.76829">
        <ele>253</ele>
        <time>2020-01-21T10:33:35.000Z</time>
      </trkpt>
      <trkpt lat="49.16753" lon="6.76849">
        <ele>253</ele>
        <time>2020-01-21T10:33:45.000Z</time>
      </trkpt>
      <trkpt lat="49.1675" lon="6.76869">
        <ele>252</ele>
        <time>2020-01-21T10:33:55.000Z</time>
      </trkpt>
      <trkpt lat="49.16745" lon="6.76888">
        <ele>253</ele>
        <time>2020-01-21T10:34:05.000Z</time>
      </trkpt>
      <trkpt lat="49.16741" lon="6.76907">
        <ele>252</ele>
        <time>2020-01-21T10:34:15.000Z</time>
      </trkpt>
      <trkpt lat="49.1674" lon="6.76926">
        <ele>250</ele>
        <time>2020-01-21T10:34:25.000Z</time>
      </trkpt>
      <trkpt lat="49.1674" lon="6.76945">
        <ele>250</ele>
        <time>2020-01-21T10:34:35.000Z</time>
      </trkpt>
      <trkpt lat="49.16735" lon="6.76965">
        <ele>250</ele>
        <time>2020-01-21T10:34:45.000Z</time>
      </trkpt>
      <trkpt lat="49.16731" lon="6.76984">
        <ele>250</ele>
        <time>2020-01-21T10:34:55.000Z</time>
      </trkpt>
      <trkpt lat="49.16728" lon="6.77002">
        <ele>247</ele>
        <time>2020-01-21T10:35:05.000Z</time>
      </trkpt>
      <trkpt lat="49.16726" lon="6.77021">
        <ele>247</ele>
        <time>2020-01-21T10:35:15.000Z</time>
      </trkpt>
      <trkpt lat="49.16726" lon="6.77042">
        <ele>247</ele>
        <time>2020-01-21T10:35:25.000Z</time>
      </trkpt>
      <trkpt lat="49.16725" lon="6.77062">
        <ele>246</ele>
        <time>2020-01-21T10:35:35.000Z</time>
      </trkpt>
      <trkpt lat="49.16725" lon="6.77084">
        <ele>244</ele>
        <time>2020-01-21T10:35:45.000Z</time>
      </trkpt>
      <trkpt lat="49.16727" lon="6.77106">
        <ele>244</ele>
        <time>2020-01-21T10:35:55.000Z</time>
      </trkpt>
      <trkpt lat="49.16728" lon="6.77126">
        <ele>243</ele>
        <time>2020-01-21T10:36:05.000Z</time>
      </trkpt>
      <trkpt lat="49.16729" lon="6.77146">
        <ele>243</ele>
        <time>2020-01-21T10:36:15.000Z</time>
      </trkpt>
      <trkpt lat="49.16732" lon="6.77167">
        <ele>242</ele>
        <time>2020-01-21T10:36:25.000Z</time>
      </trkpt>
      <trkpt lat="49.16735" lon="6.77187">
        <ele>240</ele>
        <time>2020-01-21T10:36:35.000Z</time>
      </trkpt>
      <trkpt lat="49.1674" lon="6.77205">
        <ele>240</ele>
        <time>2020-01-21T10:36:45.000Z</time>
      </trkpt>
      <trkpt lat="49.16747" lon="6.77224">
        <ele>239</ele>
        <time>2020-01-21T10:36:55.000Z</time>
      </trkpt>
      <trkpt lat="49.16758" lon="6.77244">
        <ele>238</ele>
        <time>2020-01-21T10:37:05.000Z</time>
      </trkpt>
      <trkpt lat="49.16765" lon="6.77262">
        <ele>237</ele>
        <time>2020-01-21T10:37:15.000Z</time>
      </trkpt>
      <trkpt lat="49.16769" lon="6.77278">
        <ele>237</ele>
        <time>2020-01-21T10:37:25.000Z</time>
      </trkpt>
      <trkpt lat="49.16775" lon="6.77295">
        <ele>237</ele>
        <time>2020-01-21T10:37:35.000Z</time>
      </trkpt>
      <trkpt lat="49.16781" lon="6.77312">
        <ele>237</ele>
        <time>2020-01-21T10:37:45.000Z</time>
      </trkpt>
      <trkpt lat="49.16784" lon="6.77331">
        <ele>237</ele>
        <time>2020-01-21T10:37:55.000Z</time>
      </trkpt>
      <trkpt lat="49.1678" lon="6.7735">
        <ele>238</ele>
        <time>2020-01-21T10:38:05.000Z</time>
      </trkpt>
      <trkpt lat="49.16773" lon="6.77366">
        <ele>239</ele>
        <time>2020-01-21T10:38:15.000Z</time>
      </trkpt>
      <trkpt lat="49.1677" lon="6.77378">
        <ele>239</ele>
        <time>2020-01-21T10:38:25.000Z</time>
      </trkpt>
      <trkpt lat="49.16774" lon="6.77396">
        <ele>239</ele>
        <time>2020-01-21T10:38:35.000Z</time>
      </trkpt>
      <trkpt lat="49.16778" lon="6.77415">
        <ele>239</ele>
        <time>2020-01-21T10:38:45.000Z</time>
      </trkpt>
      <trkpt lat="49.16782" lon="6.77431">
        <ele>242</ele>
        <time>2020-01-21T10:38:55.000Z</time>
      </trkpt>
      <trkpt lat="49.16786" lon="6.77447">
        <ele>242</ele>
        <time>2020-01-21T10:39:05.000Z</time>
      </trkpt>
      <trkpt lat="49.16789" lon="6.77464">
        <ele>243</ele>
        <time>2020-01-21T10:39:15.000Z</time>
      </trkpt>
      <trkpt lat="49.16786" lon="6.77481">
        <ele>243</ele>
        <time>2020-01-21T10:39:25.000Z</time>
      </trkpt>
      <trkpt lat="49.16782" lon="6.77498">
        <ele>243</ele>
        <time>2020-01-21T10:39:35.000Z</time>
      </trkpt>
      <trkpt lat="49.16778" lon="6.77514">
        <ele>244</ele>
        <time>2020-01-21T10:39:45.000Z</time>
      </trkpt>
      <trkpt lat="49.16769" lon="6.77521">
        <ele>244</ele>
        <time>2020-01-21T10:39:55.000Z</time>
      </trkpt>
      <trkpt lat="49.16757" lon="6.7752">
        <ele>243</ele>
        <time>2020-01-21T10:40:05.000Z</time>
      </trkpt>
      <trkpt lat="49.16751" lon="6.77525">
        <ele>243</ele>
        <time>2020-01-21T10:40:39.000Z</time>
      </trkpt>
      <trkpt lat="49.16745" lon="6.77529">
        <ele>236</ele>
        <time>2020-01-21T10:40:49.000Z</time>
      </trkpt>
      <trkpt lat="49.16734" lon="6.77531">
        <ele>236</ele>
        <time>2020-01-21T10:40:59.000Z</time>
      </trkpt>
      <trkpt lat="49.16724" lon="6.77529">
        <ele>236</ele>
        <time>2020-01-21T10:41:09.000Z</time>
      </trkpt>
      <trkpt lat="49.16719" lon="6.77525">
        <ele>235</ele>
        <time>2020-01-21T10:41:19.000Z</time>
      </trkpt>
      <trkpt lat="49.16713" lon="6.77521">
        <ele>235</ele>
        <time>2020-01-21T10:41:29.000Z</time>
      </trkpt>
      <trkpt lat="49.16707" lon="6.7753">
        <ele>235</ele>
        <time>2020-01-21T10:41:39.000Z</time>
      </trkpt>
      <trkpt lat="49.16702" lon="6.77538">
        <ele>234</ele>
        <time>2020-01-21T10:41:49.000Z</time>
      </trkpt>
      <trkpt lat="49.167" lon="6.77541">
        <ele>234</ele>
        <time>2020-01-21T10:41:59.000Z</time>
      </trkpt>
      <trkpt lat="49.16699" lon="6.77543">
        <ele>234</ele>
        <time>2020-01-21T10:42:09.000Z</time>
      </trkpt>
      <trkpt lat="49.16701" lon="6.77544">
        <ele>234</ele>
        <time>2020-01-21T10:43:53.000Z</time>
      </trkpt>
      <trkpt lat="49.16706" lon="6.77556">
        <ele>234</ele>
        <time>2020-01-21T10:44:03.000Z</time>
      </trkpt>
      <trkpt lat="49.167" lon="6.77572">
        <ele>233</ele>
        <time>2020-01-21T10:44:13.000Z</time>
      </trkpt>
      <trkpt lat="49.16694" lon="6.77592">
        <ele>230</ele>
        <time>2020-01-21T10:44:23.000Z</time>
      </trkpt>
      <trkpt lat="49.16689" lon="6.77613">
        <ele>230</ele>
        <time>2020-01-21T10:44:33.000Z</time>
      </trkpt>
      <trkpt lat="49.16684" lon="6.77622">
        <ele>229</ele>
        <time>2020-01-21T10:44:43.000Z</time>
      </trkpt>
      <trkpt lat="49.16685" lon="6.77621">
        <ele>229</ele>
        <time>2020-01-21T10:45:05.000Z</time>
      </trkpt>
      <trkpt lat="49.16686" lon="6.77621">
        <ele>229</ele>
        <time>2020-01-21T10:45:19.000Z</time>
      </trkpt>
      <trkpt lat="49.16687" lon="6.77621">
        <ele>229</ele>
        <time>2020-01-21T10:45:41.000Z</time>
      </trkpt>
      <trkpt lat="49.16686" lon="6.77623">
        <ele>229</ele>
        <time>2020-01-21T10:46:06.000Z</time>
      </trkpt>
      <trkpt lat="49.1668" lon="6.77633">
        <ele>228</ele>
        <time>2020-01-21T10:46:16.000Z</time>
      </trkpt>
      <trkpt lat="49.16675" lon="6.77641">
        <ele>227</ele>
        <time>2020-01-21T10:46:26.000Z</time>
      </trkpt>
      <trkpt lat="49.16671" lon="6.7765">
        <ele>225</ele>
        <time>2020-01-21T10:46:36.000Z</time>
      </trkpt>
      <trkpt lat="49.16669" lon="6.77653">
        <ele>225</ele>
        <time>2020-01-21T10:47:09.000Z</time>
      </trkpt>
      <trkpt lat="49.16668" lon="6.77664">
        <ele>221</ele>
        <time>2020-01-21T10:47:19.000Z</time>
      </trkpt>
      <trkpt lat="49.16668" lon="6.77671">
        <ele>221</ele>
        <time>2020-01-21T10:47:29.000Z</time>
      </trkpt>
      <trkpt lat="49.16666" lon="6.77675">
        <ele>219</ele>
        <time>2020-01-21T10:47:39.000Z</time>
      </trkpt>
      <trkpt lat="49.16663" lon="6.77679">
        <ele>218</ele>
        <time>2020-01-21T10:47:57.000Z</time>
      </trkpt>
      <trkpt lat="49.16661" lon="6.77685">
        <ele>218</ele>
        <time>2020-01-21T10:48:07.000Z</time>
      </trkpt>
      <trkpt lat="49.16652" lon="6.77692">
        <ele>217</ele>
        <time>2020-01-21T10:48:17.000Z</time>
      </trkpt>
      <trkpt lat="49.16641" lon="6.77703">
        <ele>216</ele>
        <time>2020-01-21T10:48:27.000Z</time>
      </trkpt>
      <trkpt lat="49.1663" lon="6.77716">
        <ele>216</ele>
        <time>2020-01-21T10:48:37.000Z</time>
      </trkpt>
      <trkpt lat="49.16619" lon="6.77727">
        <ele>215</ele>
        <time>2020-01-21T10:48:47.000Z</time>
      </trkpt>
      <trkpt lat="49.16614" lon="6.77732">
        <ele>215</ele>
        <time>2020-01-21T10:48:57.000Z</time>
      </trkpt>
      <trkpt lat="49.16607" lon="6.77742">
        <ele>215</ele>
        <time>2020-01-21T10:49:07.000Z</time>
      </trkpt>
      <trkpt lat="49.166" lon="6.77751">
        <ele>214</ele>
        <time>2020-01-21T10:49:17.000Z</time>
      </trkpt>
      <trkpt lat="49.16591" lon="6.77762">
        <ele>214</ele>
        <time>2020-01-21T10:49:27.000Z</time>
      </trkpt>
      <trkpt lat="49.16583" lon="6.77773">
        <ele>214</ele>
        <time>2020-01-21T10:49:37.000Z</time>
      </trkpt>
      <trkpt lat="49.16576" lon="6.77783">
        <ele>213</ele>
        <time>2020-01-21T10:49:47.000Z</time>
      </trkpt>
      <trkpt lat="49.16572" lon="6.77795">
        <ele>213</ele>
        <time>2020-01-21T10:49:57.000Z</time>
      </trkpt>
      <trkpt lat="49.16571" lon="6.77799">
        <ele>213</ele>
        <time>2020-01-21T10:50:07.000Z</time>
      </trkpt>
      <trkpt lat="49.16571" lon="6.77801">
        <ele>213</ele>
        <time>2020-01-21T10:50:29.000Z</time>
      </trkpt>
      <trkpt lat="49.1657" lon="6.778">
        <ele>213</ele>
        <time>2020-01-21T10:50:49.000Z</time>
      </trkpt>
      <trkpt lat="49.16569" lon="6.778">
        <ele>213</ele>
        <time>2020-01-21T10:51:33.000Z</time>
      </trkpt>
      <trkpt lat="49.16563" lon="6.77808">
        <ele>213</ele>
        <time>2020-01-21T10:51:43.000Z</time>
      </trkpt>
      <trkpt lat="49.16558" lon="6.77822">
        <ele>213</ele>
        <time>2020-01-21T10:51:53.000Z</time>
      </trkpt>
      <trkpt lat="49.16552" lon="6.77836">
        <ele>212</ele>
        <time>2020-01-21T10:52:03.000Z</time>
      </trkpt>
      <trkpt lat="49.16544" lon="6.77849">
        <ele>212</ele>
        <time>2020-01-21T10:52:13.000Z</time>
      </trkpt>
      <trkpt lat="49.16537" lon="6.77866">
        <ele>212</ele>
        <time>2020-01-21T10:52:23.000Z</time>
      </trkpt>
      <trkpt lat="49.16528" lon="6.77889">
        <ele>213</ele>
        <time>2020-01-21T10:52:33.000Z</time>
      </trkpt>
      <trkpt lat="49.16521" lon="6.77906">
        <ele>213</ele>
        <time>2020-01-21T10:52:43.000Z</time>
      </trkpt>
      <trkpt lat="49.16514" lon="6.77922">
        <ele>213</ele>
        <time>2020-01-21T10:52:53.000Z</time>
      </trkpt>
      <trkpt lat="49.16506" lon="6.77938">
        <ele>213</ele>
        <time>2020-01-21T10:53:03.000Z</time>
      </trkpt>
      <trkpt lat="49.16499" lon="6.77953">
        <ele>217</ele>
        <time>2020-01-21T10:53:13.000Z</time>
      </trkpt>
      <trkpt lat="49.16492" lon="6.7797">
        <ele>217</ele>
        <time>2020-01-21T10:53:23.000Z</time>
      </trkpt>
      <trkpt lat="49.16486" lon="6.77986">
        <ele>216</ele>
        <time>2020-01-21T10:53:33.000Z</time>
      </trkpt>
      <trkpt lat="49.16482" lon="6.78003">
        <ele>214</ele>
        <time>2020-01-21T10:53:43.000Z</time>
      </trkpt>
      <trkpt lat="49.16477" lon="6.78015">
        <ele>215</ele>
        <time>2020-01-21T10:53:53.000Z</time>
      </trkpt>
      <trkpt lat="49.16467" lon="6.78032">
        <ele>216</ele>
        <time>2020-01-21T10:54:03.000Z</time>
      </trkpt>
      <trkpt lat="49.16461" lon="6.78047">
        <ele>216</ele>
        <time>2020-01-21T10:54:13.000Z</time>
      </trkpt>
      <trkpt lat="49.16451" lon="6.78067">
        <ele>216</ele>
        <time>2020-01-21T10:54:23.000Z</time>
      </trkpt>
      <trkpt lat="49.16443" lon="6.78081">
        <ele>217</ele>
        <time>2020-01-21T10:54:33.000Z</time>
      </trkpt>
      <trkpt lat="49.16442" lon="6.78083">
        <ele>217</ele>
        <time>2020-01-21T10:54:43.000Z</time>
      </trkpt>
      <trkpt lat="49.16438" lon="6.78089">
        <ele>215</ele>
        <time>2020-01-21T10:54:58.000Z</time>
      </trkpt>
      <trkpt lat="49.1643" lon="6.781">
        <ele>215</ele>
        <time>2020-01-21T10:55:08.000Z</time>
      </trkpt>
      <trkpt lat="49.16421" lon="6.78117">
        <ele>214</ele>
        <time>2020-01-21T10:55:18.000Z</time>
      </trkpt>
      <trkpt lat="49.16414" lon="6.78133">
        <ele>221</ele>
        <time>2020-01-21T10:55:28.000Z</time>
      </trkpt>
      <trkpt lat="49.16408" lon="6.78149">
        <ele>220</ele>
        <time>2020-01-21T10:55:38.000Z</time>
      </trkpt>
      <trkpt lat="49.16399" lon="6.78168">
        <ele>215</ele>
        <time>2020-01-21T10:55:48.000Z</time>
      </trkpt>
      <trkpt lat="49.16391" lon="6.78187">
        <ele>216</ele>
        <time>2020-01-21T10:55:58.000Z</time>
      </trkpt>
      <trkpt lat="49.16385" lon="6.78205">
        <ele>216</ele>
        <time>2020-01-21T10:56:08.000Z</time>
      </trkpt>
      <trkpt lat="49.16379" lon="6.78222">
        <ele>216</ele>
        <time>2020-01-21T10:56:18.000Z</time>
      </trkpt>
      <trkpt lat="49.16372" lon="6.7824">
        <ele>215</ele>
        <time>2020-01-21T10:56:28.000Z</time>
      </trkpt>
      <trkpt lat="49.16368" lon="6.7826">
        <ele>213</ele>
        <time>2020-01-21T10:56:38.000Z</time>
      </trkpt>
      <trkpt lat="49.16364" lon="6.78272">
        <ele>213</ele>
        <time>2020-01-21T10:56:48.000Z</time>
      </trkpt>
      <trkpt lat="49.16359" lon="6.78288">
        <ele>213</ele>
        <time>2020-01-21T10:56:58.000Z</time>
      </trkpt>
      <trkpt lat="49.16354" lon="6.78305">
        <ele>212</ele>
        <time>2020-01-21T10:57:08.000Z</time>
      </trkpt>
      <trkpt lat="49.16347" lon="6.78327">
        <ele>212</ele>
        <time>2020-01-21T10:57:18.000Z</time>
      </trkpt>
      <trkpt lat="49.16339" lon="6.78349">
        <ele>212</ele>
        <time>2020-01-21T10:57:28.000Z</time>
      </trkpt>
      <trkpt lat="49.16335" lon="6.78367">
        <ele>212</ele>
        <time>2020-01-21T10:57:38.000Z</time>
      </trkpt>
      <trkpt lat="49.16332" lon="6.78388">
        <ele>215</ele>
        <time>2020-01-21T10:57:48.000Z</time>
      </trkpt>
      <trkpt lat="49.16331" lon="6.78406">
        <ele>215</ele>
        <time>2020-01-21T10:57:58.000Z</time>
      </trkpt>
      <trkpt lat="49.16329" lon="6.78426">
        <ele>215</ele>
        <time>2020-01-21T10:58:08.000Z</time>
      </trkpt>
      <trkpt lat="49.16329" lon="6.78446">
        <ele>216</ele>
        <time>2020-01-21T10:58:18.000Z</time>
      </trkpt>
      <trkpt lat="49.16333" lon="6.78462">
        <ele>217</ele>
        <time>2020-01-21T10:58:28.000Z</time>
      </trkpt>
      <trkpt lat="49.16336" lon="6.78479">
        <ele>214</ele>
        <time>2020-01-21T10:58:38.000Z</time>
      </trkpt>
      <trkpt lat="49.16333" lon="6.78494">
        <ele>215</ele>
        <time>2020-01-21T10:58:48.000Z</time>
      </trkpt>
      <trkpt lat="49.16343" lon="6.78498">
        <ele>215</ele>
        <time>2020-01-21T10:58:58.000Z</time>
      </trkpt>
      <trkpt lat="49.16349" lon="6.78507">
        <ele>214</ele>
        <time>2020-01-21T10:59:08.000Z</time>
      </trkpt>
      <trkpt lat="49.16352" lon="6.7851">
        <ele>213</ele>
        <time>2020-01-21T10:59:18.000Z</time>
      </trkpt>
      <trkpt lat="49.16353" lon="6.78511">
        <ele>213</ele>
        <time>2020-01-21T10:59:28.000Z</time>
      </trkpt>
      <trkpt lat="49.1636" lon="6.78511">
        <ele>213</ele>
        <time>2020-01-21T10:59:38.000Z</time>
      </trkpt>
      <trkpt lat="49.16371" lon="6.78518">
        <ele>212</ele>
        <time>2020-01-21T10:59:48.000Z</time>
      </trkpt>
      <trkpt lat="49.16381" lon="6.78528">
        <ele>212</ele>
        <time>2020-01-21T10:59:58.000Z</time>
      </trkpt>
      <trkpt lat="49.16396" lon="6.78543">
        <ele>211</ele>
        <time>2020-01-21T11:00:08.000Z</time>
      </trkpt>
      <trkpt lat="49.16407" lon="6.78556">
        <ele>211</ele>
        <time>2020-01-21T11:00:18.000Z</time>
      </trkpt>
      <trkpt lat="49.16416" lon="6.78568">
        <ele>211</ele>
        <time>2020-01-21T11:00:28.000Z</time>
      </trkpt>
      <trkpt lat="49.16424" lon="6.78581">
        <ele>210</ele>
        <time>2020-01-21T11:00:38.000Z</time>
      </trkpt>
      <trkpt lat="49.16433" lon="6.78594">
        <ele>210</ele>
        <time>2020-01-21T11:00:48.000Z</time>
      </trkpt>
      <trkpt lat="49.16444" lon="6.78603">
        <ele>210</ele>
        <time>2020-01-21T11:00:58.000Z</time>
      </trkpt>
      <trkpt lat="49.16455" lon="6.78613">
        <ele>210</ele>
        <time>2020-01-21T11:01:08.000Z</time>
      </trkpt>
      <trkpt lat="49.16467" lon="6.7862">
        <ele>210</ele>
        <time>2020-01-21T11:01:18.000Z</time>
      </trkpt>
      <trkpt lat="49.1648" lon="6.78626">
        <ele>210</ele>
        <time>2020-01-21T11:01:28.000Z</time>
      </trkpt>
      <trkpt lat="49.16492" lon="6.7863">
        <ele>211</ele>
        <time>2020-01-21T11:01:38.000Z</time>
      </trkpt>
      <trkpt lat="49.16506" lon="6.78634">
        <ele>212</ele>
        <time>2020-01-21T11:01:48.000Z</time>
      </trkpt>
      <trkpt lat="49.16519" lon="6.78638">
        <ele>212</ele>
        <time>2020-01-21T11:01:58.000Z</time>
      </trkpt>
      <trkpt lat="49.1653" lon="6.78641">
        <ele>213</ele>
        <time>2020-01-21T11:02:08.000Z</time>
      </trkpt>
      <trkpt lat="49.1654" lon="6.78644">
        <ele>213</ele>
        <time>2020-01-21T11:02:18.000Z</time>
      </trkpt>
      <trkpt lat="49.16553" lon="6.78647">
        <ele>214</ele>
        <time>2020-01-21T11:02:28.000Z</time>
      </trkpt>
      <trkpt lat="49.16564" lon="6.78647">
        <ele>214</ele>
        <time>2020-01-21T11:02:38.000Z</time>
      </trkpt>
      <trkpt lat="49.16577" lon="6.78645">
        <ele>214</ele>
        <time>2020-01-21T11:02:48.000Z</time>
      </trkpt>
      <trkpt lat="49.16588" lon="6.78647">
        <ele>225</ele>
        <time>2020-01-21T11:02:58.000Z</time>
      </trkpt>
      <trkpt lat="49.1659" lon="6.78648">
        <ele>225</ele>
        <time>2020-01-21T11:03:08.000Z</time>
      </trkpt>
      <trkpt lat="49.16589" lon="6.78644">
        <ele>225</ele>
        <time>2020-01-21T11:05:28.000Z</time>
      </trkpt>
      <trkpt lat="49.1659" lon="6.78645">
        <ele>225</ele>
        <time>2020-01-21T11:05:38.000Z</time>
      </trkpt>
      <trkpt lat="49.16591" lon="6.78647">
        <ele>225</ele>
        <time>2020-01-21T11:06:13.000Z</time>
      </trkpt>
      <trkpt lat="49.16584" lon="6.78667">
        <ele>218</ele>
        <time>2020-01-21T11:29:21.381Z</time>
      </trkpt>
      <trkpt lat="49.16585" lon="6.78642">
        <ele>225</ele>
        <time>2020-01-21T11:29:31.000Z</time>
      </trkpt>
      <trkpt lat="49.16591" lon="6.78653">
        <ele>224</ele>
        <time>2020-01-21T11:40:40.361Z</time>
      </trkpt>
      <trkpt lat="49.16591" lon="6.78648">
        <ele>225</ele>
        <time>2020-01-21T11:40:50.000Z</time>
      </trkpt>
      <trkpt lat="49.16586" lon="6.78664">
        <ele>219</ele>
        <time>2020-01-21T11:42:34.000Z</time>
      </trkpt>
      <trkpt lat="49.16589" lon="6.78682">
        <ele>231</ele>
        <time>2020-01-21T11:42:44.000Z</time>
      </trkpt>
      <trkpt lat="49.16592" lon="6.78696">
        <ele>236</ele>
        <time>2020-01-21T11:42:54.000Z</time>
      </trkpt>
      <trkpt lat="49.16592" lon="6.78713">
        <ele>238</ele>
        <time>2020-01-21T11:43:04.000Z</time>
      </trkpt>
      <trkpt lat="49.16589" lon="6.7873">
        <ele>236</ele>
        <time>2020-01-21T11:43:14.000Z</time>
      </trkpt>
      <trkpt lat="49.16587" lon="6.78744">
        <ele>229</ele>
        <time>2020-01-21T11:43:24.000Z</time>
      </trkpt>
      <trkpt lat="49.16582" lon="6.78757">
        <ele>222</ele>
        <time>2020-01-21T11:43:34.000Z</time>
      </trkpt>
      <trkpt lat="49.16579" lon="6.78763">
        <ele>221</ele>
        <time>2020-01-21T11:43:44.000Z</time>
      </trkpt>
      <trkpt lat="49.1658" lon="6.78764">
        <ele>221</ele>
        <time>2020-01-21T11:44:14.000Z</time>
      </trkpt>
      <trkpt lat="49.1658" lon="6.78774">
        <ele>221</ele>
        <time>2020-01-21T11:44:24.000Z</time>
      </trkpt>
      <trkpt lat="49.16578" lon="6.78794">
        <ele>221</ele>
        <time>2020-01-21T11:44:34.000Z</time>
      </trkpt>
      <trkpt lat="49.16573" lon="6.78813">
        <ele>223</ele>
        <time>2020-01-21T11:44:44.000Z</time>
      </trkpt>
      <trkpt lat="49.16568" lon="6.78834">
        <ele>228</ele>
        <time>2020-01-21T11:44:54.000Z</time>
      </trkpt>
      <trkpt lat="49.16564" lon="6.78853">
        <ele>227</ele>
        <time>2020-01-21T11:45:04.000Z</time>
      </trkpt>
      <trkpt lat="49.16556" lon="6.78875">
        <ele>227</ele>
        <time>2020-01-21T11:45:14.000Z</time>
      </trkpt>
      <trkpt lat="49.16549" lon="6.78888">
        <ele>227</ele>
        <time>2020-01-21T11:45:24.000Z</time>
      </trkpt>
      <trkpt lat="49.1654" lon="6.78901">
        <ele>225</ele>
        <time>2020-01-21T11:45:34.000Z</time>
      </trkpt>
      <trkpt lat="49.16535" lon="6.78908">
        <ele>223</ele>
        <time>2020-01-21T11:45:44.000Z</time>
      </trkpt>
      <trkpt lat="49.16528" lon="6.78917">
        <ele>220</ele>
        <time>2020-01-21T11:45:54.000Z</time>
      </trkpt>
      <trkpt lat="49.16519" lon="6.78929">
        <ele>232</ele>
        <time>2020-01-21T11:46:04.000Z</time>
      </trkpt>
      <trkpt lat="49.16507" lon="6.78938">
        <ele>231</ele>
        <time>2020-01-21T11:46:14.000Z</time>
      </trkpt>
      <trkpt lat="49.16494" lon="6.78948">
        <ele>212</ele>
        <time>2020-01-21T11:46:24.000Z</time>
      </trkpt>
      <trkpt lat="49.16481" lon="6.78959">
        <ele>214</ele>
        <time>2020-01-21T11:46:34.000Z</time>
      </trkpt>
      <trkpt lat="49.16466" lon="6.78966">
        <ele>213</ele>
        <time>2020-01-21T11:46:44.000Z</time>
      </trkpt>
      <trkpt lat="49.16451" lon="6.78976">
        <ele>211</ele>
        <time>2020-01-21T11:46:54.000Z</time>
      </trkpt>
      <trkpt lat="49.16438" lon="6.78987">
        <ele>209</ele>
        <time>2020-01-21T11:47:04.000Z</time>
      </trkpt>
      <trkpt lat="49.16429" lon="6.78997">
        <ele>206</ele>
        <time>2020-01-21T11:47:14.000Z</time>
      </trkpt>
      <trkpt lat="49.16418" lon="6.79006">
        <ele>210</ele>
        <time>2020-01-21T11:47:24.000Z</time>
      </trkpt>
      <trkpt lat="49.16406" lon="6.79015">
        <ele>207</ele>
        <time>2020-01-21T11:47:34.000Z</time>
      </trkpt>
      <trkpt lat="49.16396" lon="6.79027">
        <ele>210</ele>
        <time>2020-01-21T11:47:44.000Z</time>
      </trkpt>
      <trkpt lat="49.16386" lon="6.79034">
        <ele>211</ele>
        <time>2020-01-21T11:47:54.000Z</time>
      </trkpt>
      <trkpt lat="49.16378" lon="6.79038">
        <ele>211</ele>
        <time>2020-01-21T11:48:04.000Z</time>
      </trkpt>
      <trkpt lat="49.16378" lon="6.7904">
        <ele>211</ele>
        <time>2020-01-21T11:48:45.000Z</time>
      </trkpt>
      <trkpt lat="49.1638" lon="6.79039">
        <ele>211</ele>
        <time>2020-01-21T11:48:55.000Z</time>
      </trkpt>
      <trkpt lat="49.1638" lon="6.79041">
        <ele>212</ele>
        <time>2020-01-21T11:51:28.000Z</time>
      </trkpt>
      <trkpt lat="49.16373" lon="6.79055">
        <ele>212</ele>
        <time>2020-01-21T11:51:38.000Z</time>
      </trkpt>
      <trkpt lat="49.16362" lon="6.79066">
        <ele>212</ele>
        <time>2020-01-21T11:51:48.000Z</time>
      </trkpt>
      <trkpt lat="49.16355" lon="6.79078">
        <ele>211</ele>
        <time>2020-01-21T11:51:58.000Z</time>
      </trkpt>
      <trkpt lat="49.16347" lon="6.79091">
        <ele>222</ele>
        <time>2020-01-21T11:52:08.000Z</time>
      </trkpt>
      <trkpt lat="49.16339" lon="6.79105">
        <ele>226</ele>
        <time>2020-01-21T11:52:18.000Z</time>
      </trkpt>
      <trkpt lat="49.16332" lon="6.79121">
        <ele>215</ele>
        <time>2020-01-21T11:52:28.000Z</time>
      </trkpt>
      <trkpt lat="49.16325" lon="6.7914">
        <ele>219</ele>
        <time>2020-01-21T11:52:38.000Z</time>
      </trkpt>
      <trkpt lat="49.16316" lon="6.79157">
        <ele>222</ele>
        <time>2020-01-21T11:52:48.000Z</time>
      </trkpt>
      <trkpt lat="49.16307" lon="6.79171">
        <ele>231</ele>
        <time>2020-01-21T11:52:58.000Z</time>
      </trkpt>
      <trkpt lat="49.16298" lon="6.79186">
        <ele>231</ele>
        <time>2020-01-21T11:53:08.000Z</time>
      </trkpt>
      <trkpt lat="49.16289" lon="6.79201">
        <ele>231</ele>
        <time>2020-01-21T11:53:18.000Z</time>
      </trkpt>
      <trkpt lat="49.16279" lon="6.79213">
        <ele>231</ele>
        <time>2020-01-21T11:53:28.000Z</time>
      </trkpt>
      <trkpt lat="49.16268" lon="6.79225">
        <ele>230</ele>
        <time>2020-01-21T11:53:38.000Z</time>
      </trkpt>
      <trkpt lat="49.16257" lon="6.79236">
        <ele>228</ele>
        <time>2020-01-21T11:53:48.000Z</time>
      </trkpt>
      <trkpt lat="49.16245" lon="6.79245">
        <ele>221</ele>
        <time>2020-01-21T11:53:58.000Z</time>
      </trkpt>
      <trkpt lat="49.16228" lon="6.7925">
        <ele>222</ele>
        <time>2020-01-21T11:54:08.000Z</time>
      </trkpt>
      <trkpt lat="49.16213" lon="6.79256">
        <ele>220</ele>
        <time>2020-01-21T11:54:18.000Z</time>
      </trkpt>
      <trkpt lat="49.16197" lon="6.79262">
        <ele>218</ele>
        <time>2020-01-21T11:54:28.000Z</time>
      </trkpt>
      <trkpt lat="49.16181" lon="6.79267">
        <ele>216</ele>
        <time>2020-01-21T11:54:38.000Z</time>
      </trkpt>
      <trkpt lat="49.16166" lon="6.79269">
        <ele>211</ele>
        <time>2020-01-21T11:54:48.000Z</time>
      </trkpt>
      <trkpt lat="49.16153" lon="6.79272">
        <ele>211</ele>
        <time>2020-01-21T11:54:58.000Z</time>
      </trkpt>
      <trkpt lat="49.16139" lon="6.79273">
        <ele>212</ele>
        <time>2020-01-21T11:55:08.000Z</time>
      </trkpt>
      <trkpt lat="49.16125" lon="6.79274">
        <ele>212</ele>
        <time>2020-01-21T11:55:18.000Z</time>
      </trkpt>
      <trkpt lat="49.16113" lon="6.79278">
        <ele>212</ele>
        <time>2020-01-21T11:55:28.000Z</time>
      </trkpt>
      <trkpt lat="49.16101" lon="6.79282">
        <ele>212</ele>
        <time>2020-01-21T11:55:38.000Z</time>
      </trkpt>
      <trkpt lat="49.1609" lon="6.79286">
        <ele>213</ele>
        <time>2020-01-21T11:55:48.000Z</time>
      </trkpt>
      <trkpt lat="49.16078" lon="6.79291">
        <ele>214</ele>
        <time>2020-01-21T11:55:58.000Z</time>
      </trkpt>
      <trkpt lat="49.16065" lon="6.79294">
        <ele>214</ele>
        <time>2020-01-21T11:56:08.000Z</time>
      </trkpt>
      <trkpt lat="49.16053" lon="6.79299">
        <ele>215</ele>
        <time>2020-01-21T11:56:18.000Z</time>
      </trkpt>
      <trkpt lat="49.16042" lon="6.79305">
        <ele>215</ele>
        <time>2020-01-21T11:56:28.000Z</time>
      </trkpt>
      <trkpt lat="49.16031" lon="6.79313">
        <ele>215</ele>
        <time>2020-01-21T11:56:38.000Z</time>
      </trkpt>
      <trkpt lat="49.1602" lon="6.79321">
        <ele>215</ele>
        <time>2020-01-21T11:56:48.000Z</time>
      </trkpt>
      <trkpt lat="49.16009" lon="6.79331">
        <ele>215</ele>
        <time>2020-01-21T11:56:58.000Z</time>
      </trkpt>
      <trkpt lat="49.15997" lon="6.79341">
        <ele>215</ele>
        <time>2020-01-21T11:57:08.000Z</time>
      </trkpt>
      <trkpt lat="49.15985" lon="6.79349">
        <ele>216</ele>
        <time>2020-01-21T11:57:18.000Z</time>
      </trkpt>
      <trkpt lat="49.15972" lon="6.79359">
        <ele>216</ele>
        <time>2020-01-21T11:57:28.000Z</time>
      </trkpt>
      <trkpt lat="49.15959" lon="6.79369">
        <ele>217</ele>
        <time>2020-01-21T11:57:38.000Z</time>
      </trkpt>
      <trkpt lat="49.15949" lon="6.79381">
        <ele>217</ele>
        <time>2020-01-21T11:57:48.000Z</time>
      </trkpt>
      <trkpt lat="49.15944" lon="6.79395">
        <ele>217</ele>
        <time>2020-01-21T11:57:58.000Z</time>
      </trkpt>
      <trkpt lat="49.15944" lon="6.79413">
        <ele>217</ele>
        <time>2020-01-21T11:58:08.000Z</time>
      </trkpt>
      <trkpt lat="49.15944" lon="6.79428">
        <ele>216</ele>
        <time>2020-01-21T11:58:18.000Z</time>
      </trkpt>
      <trkpt lat="49.15943" lon="6.79445">
        <ele>215</ele>
        <time>2020-01-21T11:58:28.000Z</time>
      </trkpt>
      <trkpt lat="49.15942" lon="6.79464">
        <ele>215</ele>
        <time>2020-01-21T11:58:38.000Z</time>
      </trkpt>
      <trkpt lat="49.15939" lon="6.79482">
        <ele>215</ele>
        <time>2020-01-21T11:58:48.000Z</time>
      </trkpt>
      <trkpt lat="49.15936" lon="6.79501">
        <ele>216</ele>
        <time>2020-01-21T11:58:58.000Z</time>
      </trkpt>
      <trkpt lat="49.15934" lon="6.79518">
        <ele>216</ele>
        <time>2020-01-21T11:59:08.000Z</time>
      </trkpt>
      <trkpt lat="49.15936" lon="6.7953">
        <ele>215</ele>
        <time>2020-01-21T11:59:18.000Z</time>
      </trkpt>
      <trkpt lat="49.15933" lon="6.79529">
        <ele>215</ele>
        <time>2020-01-21T11:59:40.000Z</time>
      </trkpt>
      <trkpt lat="49.15932" lon="6.7953">
        <ele>215</ele>
        <time>2020-01-21T11:59:53.000Z</time>
      </trkpt>
      <trkpt lat="49.1593" lon="6.79541">
        <ele>215</ele>
        <time>2020-01-21T12:00:03.000Z</time>
      </trkpt>
      <trkpt lat="49.15926" lon="6.79558">
        <ele>216</ele>
        <time>2020-01-21T12:00:13.000Z</time>
      </trkpt>
      <trkpt lat="49.15923" lon="6.7958">
        <ele>217</ele>
        <time>2020-01-21T12:00:23.000Z</time>
      </trkpt>
      <trkpt lat="49.15918" lon="6.79601">
        <ele>218</ele>
        <time>2020-01-21T12:00:33.000Z</time>
      </trkpt>
      <trkpt lat="49.15912" lon="6.79619">
        <ele>220</ele>
        <time>2020-01-21T12:00:43.000Z</time>
      </trkpt>
      <trkpt lat="49.15906" lon="6.79636">
        <ele>220</ele>
        <time>2020-01-21T12:00:53.000Z</time>
      </trkpt>
      <trkpt lat="49.159" lon="6.79651">
        <ele>221</ele>
        <time>2020-01-21T12:01:03.000Z</time>
      </trkpt>
      <trkpt lat="49.15892" lon="6.79667">
        <ele>222</ele>
        <time>2020-01-21T12:01:13.000Z</time>
      </trkpt>
      <trkpt lat="49.15885" lon="6.79682">
        <ele>222</ele>
        <time>2020-01-21T12:01:23.000Z</time>
      </trkpt>
      <trkpt lat="49.1588" lon="6.79697">
        <ele>222</ele>
        <time>2020-01-21T12:01:33.000Z</time>
      </trkpt>
      <trkpt lat="49.15875" lon="6.79712">
        <ele>222</ele>
        <time>2020-01-21T12:01:43.000Z</time>
      </trkpt>
      <trkpt lat="49.15868" lon="6.79726">
        <ele>223</ele>
        <time>2020-01-21T12:01:53.000Z</time>
      </trkpt>
      <trkpt lat="49.15861" lon="6.7974">
        <ele>223</ele>
        <time>2020-01-21T12:02:03.000Z</time>
      </trkpt>
      <trkpt lat="49.15854" lon="6.79753">
        <ele>226</ele>
        <time>2020-01-21T12:02:13.000Z</time>
      </trkpt>
      <trkpt lat="49.15847" lon="6.79767">
        <ele>226</ele>
        <time>2020-01-21T12:02:23.000Z</time>
      </trkpt>
      <trkpt lat="49.1584" lon="6.79779">
        <ele>227</ele>
        <time>2020-01-21T12:02:33.000Z</time>
      </trkpt>
      <trkpt lat="49.15834" lon="6.79792">
        <ele>228</ele>
        <time>2020-01-21T12:02:43.000Z</time>
      </trkpt>
      <trkpt lat="49.15828" lon="6.79803">
        <ele>239</ele>
        <time>2020-01-21T12:02:53.000Z</time>
      </trkpt>
      <trkpt lat="49.15826" lon="6.79814">
        <ele>239</ele>
        <time>2020-01-21T12:03:03.000Z</time>
      </trkpt>
      <trkpt lat="49.15832" lon="6.79812">
        <ele>239</ele>
        <time>2020-01-21T12:03:13.000Z</time>
      </trkpt>
      <trkpt lat="49.15827" lon="6.79811">
        <ele>239</ele>
        <time>2020-01-21T12:03:35.000Z</time>
      </trkpt>
      <trkpt lat="49.1582" lon="6.79823">
        <ele>239</ele>
        <time>2020-01-21T12:03:45.000Z</time>
      </trkpt>
      <trkpt lat="49.15815" lon="6.79832">
        <ele>240</ele>
        <time>2020-01-21T12:03:55.000Z</time>
      </trkpt>
      <trkpt lat="49.15812" lon="6.79849">
        <ele>244</ele>
        <time>2020-01-21T12:04:05.000Z</time>
      </trkpt>
      <trkpt lat="49.15816" lon="6.7987">
        <ele>245</ele>
        <time>2020-01-21T12:04:15.000Z</time>
      </trkpt>
      <trkpt lat="49.15819" lon="6.79874">
        <ele>245</ele>
        <time>2020-01-21T12:04:25.000Z</time>
      </trkpt>
      <trkpt lat="49.15818" lon="6.79873">
        <ele>245</ele>
        <time>2020-01-21T12:05:26.000Z</time>
      </trkpt>
      <trkpt lat="49.15817" lon="6.79875">
        <ele>245</ele>
        <time>2020-01-21T12:05:43.000Z</time>
      </trkpt>
      <trkpt lat="49.15812" lon="6.79891">
        <ele>245</ele>
        <time>2020-01-21T12:05:53.000Z</time>
      </trkpt>
      <trkpt lat="49.15806" lon="6.79909">
        <ele>246</ele>
        <time>2020-01-21T12:06:03.000Z</time>
      </trkpt>
      <trkpt lat="49.158" lon="6.79926">
        <ele>249</ele>
        <time>2020-01-21T12:06:13.000Z</time>
      </trkpt>
      <trkpt lat="49.15792" lon="6.79931">
        <ele>251</ele>
        <time>2020-01-21T12:06:23.000Z</time>
      </trkpt>
      <trkpt lat="49.15791" lon="6.79927">
        <ele>251</ele>
        <time>2020-01-21T12:06:33.000Z</time>
      </trkpt>
      <trkpt lat="49.15792" lon="6.79927">
        <ele>250</ele>
        <time>2020-01-21T12:06:43.000Z</time>
      </trkpt>
      <trkpt lat="49.15792" lon="6.79925">
        <ele>250</ele>
        <time>2020-01-21T12:06:53.000Z</time>
      </trkpt>
      <trkpt lat="49.1579" lon="6.7993">
        <ele>251</ele>
        <time>2020-01-21T12:07:03.000Z</time>
      </trkpt>
      <trkpt lat="49.15783" lon="6.79932">
        <ele>252</ele>
        <time>2020-01-21T12:07:20.000Z</time>
      </trkpt>
      <trkpt lat="49.15781" lon="6.79932">
        <ele>252</ele>
        <time>2020-01-21T12:07:30.000Z</time>
      </trkpt>
      <trkpt lat="49.1578" lon="6.79935">
        <ele>252</ele>
        <time>2020-01-21T12:08:27.000Z</time>
      </trkpt>
      <trkpt lat="49.15781" lon="6.79939">
        <ele>252</ele>
        <time>2020-01-21T12:09:25.000Z</time>
      </trkpt>
      <trkpt lat="49.15785" lon="6.79947">
        <ele>252</ele>
        <time>2020-01-21T12:09:35.000Z</time>
      </trkpt>
      <trkpt lat="49.15785" lon="6.79961">
        <ele>252</ele>
        <time>2020-01-21T12:09:45.000Z</time>
      </trkpt>
      <trkpt lat="49.15787" lon="6.79975">
        <ele>252</ele>
        <time>2020-01-21T12:09:55.000Z</time>
      </trkpt>
      <trkpt lat="49.15792" lon="6.79997">
        <ele>252</ele>
        <time>2020-01-21T12:10:05.000Z</time>
      </trkpt>
      <trkpt lat="49.15794" lon="6.80011">
        <ele>256</ele>
        <time>2020-01-21T12:10:15.000Z</time>
      </trkpt>
      <trkpt lat="49.15794" lon="6.80025">
        <ele>257</ele>
        <time>2020-01-21T12:10:25.000Z</time>
      </trkpt>
      <trkpt lat="49.15795" lon="6.80042">
        <ele>258</ele>
        <time>2020-01-21T12:10:35.000Z</time>
      </trkpt>
      <trkpt lat="49.15792" lon="6.8006">
        <ele>259</ele>
        <time>2020-01-21T12:10:45.000Z</time>
      </trkpt>
      <trkpt lat="49.15782" lon="6.80078">
        <ele>259</ele>
        <time>2020-01-21T12:10:55.000Z</time>
      </trkpt>
      <trkpt lat="49.15775" lon="6.80094">
        <ele>265</ele>
        <time>2020-01-21T12:11:05.000Z</time>
      </trkpt>
      <trkpt lat="49.15771" lon="6.8011">
        <ele>265</ele>
        <time>2020-01-21T12:11:15.000Z</time>
      </trkpt>
      <trkpt lat="49.15768" lon="6.80129">
        <ele>266</ele>
        <time>2020-01-21T12:11:25.000Z</time>
      </trkpt>
      <trkpt lat="49.15767" lon="6.80148">
        <ele>267</ele>
        <time>2020-01-21T12:11:35.000Z</time>
      </trkpt>
      <trkpt lat="49.15768" lon="6.80164">
        <ele>267</ele>
        <time>2020-01-21T12:11:45.000Z</time>
      </trkpt>
      <trkpt lat="49.15768" lon="6.80178">
        <ele>271</ele>
        <time>2020-01-21T12:11:55.000Z</time>
      </trkpt>
      <trkpt lat="49.15765" lon="6.80193">
        <ele>272</ele>
        <time>2020-01-21T12:12:05.000Z</time>
      </trkpt>
      <trkpt lat="49.15755" lon="6.80203">
        <ele>272</ele>
        <time>2020-01-21T12:12:15.000Z</time>
      </trkpt>
      <trkpt lat="49.15741" lon="6.80209">
        <ele>269</ele>
        <time>2020-01-21T12:12:25.000Z</time>
      </trkpt>
      <trkpt lat="49.15726" lon="6.80218">
        <ele>270</ele>
        <time>2020-01-21T12:12:35.000Z</time>
      </trkpt>
      <trkpt lat="49.15713" lon="6.80234">
        <ele>270</ele>
        <time>2020-01-21T12:12:45.000Z</time>
      </trkpt>
      <trkpt lat="49.15706" lon="6.8025">
        <ele>274</ele>
        <time>2020-01-21T12:12:55.000Z</time>
      </trkpt>
      <trkpt lat="49.15703" lon="6.80262">
        <ele>274</ele>
        <time>2020-01-21T12:13:05.000Z</time>
      </trkpt>
      <trkpt lat="49.157" lon="6.80273">
        <ele>274</ele>
        <time>2020-01-21T12:13:15.000Z</time>
      </trkpt>
      <trkpt lat="49.15695" lon="6.80286">
        <ele>274</ele>
        <time>2020-01-21T12:13:25.000Z</time>
      </trkpt>
      <trkpt lat="49.1569" lon="6.80298">
        <ele>275</ele>
        <time>2020-01-21T12:13:35.000Z</time>
      </trkpt>
      <trkpt lat="49.15684" lon="6.80309">
        <ele>275</ele>
        <time>2020-01-21T12:13:45.000Z</time>
      </trkpt>
      <trkpt lat="49.15679" lon="6.80323">
        <ele>275</ele>
        <time>2020-01-21T12:13:55.000Z</time>
      </trkpt>
      <trkpt lat="49.15672" lon="6.80339">
        <ele>277</ele>
        <time>2020-01-21T12:14:05.000Z</time>
      </trkpt>
      <trkpt lat="49.15664" lon="6.80353">
        <ele>278</ele>
        <time>2020-01-21T12:14:15.000Z</time>
      </trkpt>
      <trkpt lat="49.15657" lon="6.80367">
        <ele>279</ele>
        <time>2020-01-21T12:14:25.000Z</time>
      </trkpt>
      <trkpt lat="49.15649" lon="6.80384">
        <ele>279</ele>
        <time>2020-01-21T12:14:35.000Z</time>
      </trkpt>
      <trkpt lat="49.15642" lon="6.804">
        <ele>279</ele>
        <time>2020-01-21T12:14:45.000Z</time>
      </trkpt>
      <trkpt lat="49.15635" lon="6.80416">
        <ele>279</ele>
        <time>2020-01-21T12:14:55.000Z</time>
      </trkpt>
      <trkpt lat="49.15629" lon="6.8043">
        <ele>280</ele>
        <time>2020-01-21T12:15:05.000Z</time>
      </trkpt>
      <trkpt lat="49.15623" lon="6.80447">
        <ele>280</ele>
        <time>2020-01-21T12:15:15.000Z</time>
      </trkpt>
      <trkpt lat="49.15617" lon="6.80462">
        <ele>281</ele>
        <time>2020-01-21T12:15:25.000Z</time>
      </trkpt>
      <trkpt lat="49.1561" lon="6.80477">
        <ele>281</ele>
        <time>2020-01-21T12:15:35.000Z</time>
      </trkpt>
      <trkpt lat="49.15603" lon="6.8049">
        <ele>281</ele>
        <time>2020-01-21T12:15:45.000Z</time>
      </trkpt>
      <trkpt lat="49.15602" lon="6.80505">
        <ele>281</ele>
        <time>2020-01-21T12:15:55.000Z</time>
      </trkpt>
      <trkpt lat="49.15608" lon="6.80516">
        <ele>282</ele>
        <time>2020-01-21T12:16:05.000Z</time>
      </trkpt>
      <trkpt lat="49.15616" lon="6.80525">
        <ele>282</ele>
        <time>2020-01-21T12:16:15.000Z</time>
      </trkpt>
      <trkpt lat="49.15613" lon="6.80532">
        <ele>282</ele>
        <time>2020-01-21T12:16:25.000Z</time>
      </trkpt>
      <trkpt lat="49.15619" lon="6.80547">
        <ele>282</ele>
        <time>2020-01-21T12:16:35.000Z</time>
      </trkpt>
      <trkpt lat="49.15629" lon="6.80558">
        <ele>282</ele>
        <time>2020-01-21T12:16:45.000Z</time>
      </trkpt>
      <trkpt lat="49.1564" lon="6.80569">
        <ele>282</ele>
        <time>2020-01-21T12:16:55.000Z</time>
      </trkpt>
      <trkpt lat="49.15649" lon="6.80585">
        <ele>282</ele>
        <time>2020-01-21T12:17:05.000Z</time>
      </trkpt>
      <trkpt lat="49.15658" lon="6.806">
        <ele>281</ele>
        <time>2020-01-21T12:17:15.000Z</time>
      </trkpt>
      <trkpt lat="49.15665" lon="6.80615">
        <ele>281</ele>
        <time>2020-01-21T12:17:25.000Z</time>
      </trkpt>
      <trkpt lat="49.15674" lon="6.80631">
        <ele>283</ele>
        <time>2020-01-21T12:17:35.000Z</time>
      </trkpt>
      <trkpt lat="49.15682" lon="6.80646">
        <ele>283</ele>
        <time>2020-01-21T12:17:45.000Z</time>
      </trkpt>
      <trkpt lat="49.15689" lon="6.80661">
        <ele>283</ele>
        <time>2020-01-21T12:17:55.000Z</time>
      </trkpt>
      <trkpt lat="49.15696" lon="6.80676">
        <ele>282</ele>
        <time>2020-01-21T12:18:05.000Z</time>
      </trkpt>
      <trkpt lat="49.15703" lon="6.80687">
        <ele>282</ele>
        <time>2020-01-21T12:18:15.000Z</time>
      </trkpt>
      <trkpt lat="49.15709" lon="6.807">
        <ele>282</ele>
        <time>2020-01-21T12:18:25.000Z</time>
      </trkpt>
      <trkpt lat="49.15718" lon="6.80715">
        <ele>282</ele>
        <time>2020-01-21T12:18:35.000Z</time>
      </trkpt>
      <trkpt lat="49.1573" lon="6.8073">
        <ele>283</ele>
        <time>2020-01-21T12:18:45.000Z</time>
      </trkpt>
      <trkpt lat="49.15741" lon="6.80745">
        <ele>285</ele>
        <time>2020-01-21T12:18:55.000Z</time>
      </trkpt>
      <trkpt lat="49.1575" lon="6.80761">
        <ele>284</ele>
        <time>2020-01-21T12:19:05.000Z</time>
      </trkpt>
      <trkpt lat="49.15757" lon="6.80776">
        <ele>287</ele>
        <time>2020-01-21T12:19:15.000Z</time>
      </trkpt>
      <trkpt lat="49.15761" lon="6.80782">
        <ele>287</ele>
        <time>2020-01-21T12:19:25.000Z</time>
      </trkpt>
      <trkpt lat="49.15771" lon="6.80792">
        <ele>288</ele>
        <time>2020-01-21T12:19:35.000Z</time>
      </trkpt>
      <trkpt lat="49.15779" lon="6.80807">
        <ele>288</ele>
        <time>2020-01-21T12:19:45.000Z</time>
      </trkpt>
      <trkpt lat="49.15787" lon="6.80822">
        <ele>288</ele>
        <time>2020-01-21T12:19:55.000Z</time>
      </trkpt>
      <trkpt lat="49.15792" lon="6.8084">
        <ele>288</ele>
        <time>2020-01-21T12:20:05.000Z</time>
      </trkpt>
      <trkpt lat="49.15795" lon="6.80859">
        <ele>288</ele>
        <time>2020-01-21T12:20:15.000Z</time>
      </trkpt>
      <trkpt lat="49.15803" lon="6.80868">
        <ele>288</ele>
        <time>2020-01-21T12:20:25.000Z</time>
      </trkpt>
      <trkpt lat="49.15808" lon="6.80883">
        <ele>289</ele>
        <time>2020-01-21T12:20:35.000Z</time>
      </trkpt>
      <trkpt lat="49.15813" lon="6.80901">
        <ele>290</ele>
        <time>2020-01-21T12:20:45.000Z</time>
      </trkpt>
      <trkpt lat="49.15809" lon="6.80914">
        <ele>289</ele>
        <time>2020-01-21T12:20:55.000Z</time>
      </trkpt>
      <trkpt lat="49.15809" lon="6.80918">
        <ele>290</ele>
        <time>2020-01-21T12:21:05.000Z</time>
      </trkpt>
      <trkpt lat="49.1581" lon="6.80921">
        <ele>290</ele>
        <time>2020-01-21T12:21:15.000Z</time>
      </trkpt>
      <trkpt lat="49.1581" lon="6.80933">
        <ele>289</ele>
        <time>2020-01-21T12:21:25.000Z</time>
      </trkpt>
      <trkpt lat="49.15815" lon="6.80942">
        <ele>289</ele>
        <time>2020-01-21T12:21:35.000Z</time>
      </trkpt>
      <trkpt lat="49.1582" lon="6.80951">
        <ele>289</ele>
        <time>2020-01-21T12:21:45.000Z</time>
      </trkpt>
      <trkpt lat="49.15828" lon="6.80961">
        <ele>290</ele>
        <time>2020-01-21T12:21:55.000Z</time>
      </trkpt>
      <trkpt lat="49.15835" lon="6.8096">
        <ele>294</ele>
        <time>2020-01-21T12:22:05.000Z</time>
      </trkpt>
      <trkpt lat="49.15846" lon="6.80953">
        <ele>294</ele>
        <time>2020-01-21T12:22:15.000Z</time>
      </trkpt>
      <trkpt lat="49.15852" lon="6.80949">
        <ele>294</ele>
        <time>2020-01-21T12:22:25.000Z</time>
      </trkpt>
      <trkpt lat="49.15866" lon="6.80941">
        <ele>294</ele>
        <time>2020-01-21T12:22:35.000Z</time>
      </trkpt>
      <trkpt lat="49.15875" lon="6.80937">
        <ele>295</ele>
        <time>2020-01-21T12:22:45.000Z</time>
      </trkpt>
      <trkpt lat="49.15876" lon="6.80936">
        <ele>295</ele>
        <time>2020-01-21T12:22:58.000Z</time>
      </trkpt>
      <trkpt lat="49.15888" lon="6.80932">
        <ele>296</ele>
        <time>2020-01-21T12:23:08.000Z</time>
      </trkpt>
      <trkpt lat="49.15902" lon="6.80936">
        <ele>296</ele>
        <time>2020-01-21T12:23:18.000Z</time>
      </trkpt>
      <trkpt lat="49.15915" lon="6.80943">
        <ele>296</ele>
        <time>2020-01-21T12:23:28.000Z</time>
      </trkpt>
      <trkpt lat="49.15932" lon="6.80945">
        <ele>300</ele>
        <time>2020-01-21T12:23:38.000Z</time>
      </trkpt>
      <trkpt lat="49.15943" lon="6.80948">
        <ele>300</ele>
        <time>2020-01-21T12:23:48.000Z</time>
      </trkpt>
      <trkpt lat="49.15954" lon="6.80954">
        <ele>300</ele>
        <time>2020-01-21T12:23:58.000Z</time>
      </trkpt>
      <trkpt lat="49.15967" lon="6.80965">
        <ele>300</ele>
        <time>2020-01-21T12:24:08.000Z</time>
      </trkpt>
      <trkpt lat="49.15978" lon="6.80981">
        <ele>300</ele>
        <time>2020-01-21T12:24:18.000Z</time>
      </trkpt>
      <trkpt lat="49.15981" lon="6.80987">
        <ele>301</ele>
        <time>2020-01-21T12:24:28.000Z</time>
      </trkpt>
      <trkpt lat="49.15988" lon="6.80993">
        <ele>301</ele>
        <time>2020-01-21T12:24:38.000Z</time>
      </trkpt>
      <trkpt lat="49.15995" lon="6.80996">
        <ele>301</ele>
        <time>2020-01-21T12:24:48.000Z</time>
      </trkpt>
      <trkpt lat="49.16008" lon="6.81013">
        <ele>303</ele>
        <time>2020-01-21T12:24:58.000Z</time>
      </trkpt>
      <trkpt lat="49.16016" lon="6.81024">
        <ele>304</ele>
        <time>2020-01-21T12:25:08.000Z</time>
      </trkpt>
      <trkpt lat="49.16022" lon="6.81031">
        <ele>304</ele>
        <time>2020-01-21T12:25:18.000Z</time>
      </trkpt>
      <trkpt lat="49.16033" lon="6.81048">
        <ele>305</ele>
        <time>2020-01-21T12:25:28.000Z</time>
      </trkpt>
      <trkpt lat="49.16042" lon="6.81066">
        <ele>305</ele>
        <time>2020-01-21T12:25:38.000Z</time>
      </trkpt>
      <trkpt lat="49.16055" lon="6.81085">
        <ele>303</ele>
        <time>2020-01-21T12:25:48.000Z</time>
      </trkpt>
      <trkpt lat="49.16065" lon="6.81092">
        <ele>305</ele>
        <time>2020-01-21T12:25:58.000Z</time>
      </trkpt>
      <trkpt lat="49.16079" lon="6.81101">
        <ele>305</ele>
        <time>2020-01-21T12:26:08.000Z</time>
      </trkpt>
      <trkpt lat="49.16088" lon="6.8111">
        <ele>310</ele>
        <time>2020-01-21T12:26:18.000Z</time>
      </trkpt>
      <trkpt lat="49.16095" lon="6.8112">
        <ele>310</ele>
        <time>2020-01-21T12:26:28.000Z</time>
      </trkpt>
      <trkpt lat="49.16103" lon="6.81129">
        <ele>310</ele>
        <time>2020-01-21T12:26:38.000Z</time>
      </trkpt>
      <trkpt lat="49.16113" lon="6.81136">
        <ele>310</ele>
        <time>2020-01-21T12:26:48.000Z</time>
      </trkpt>
      <trkpt lat="49.16124" lon="6.81145">
        <ele>310</ele>
        <time>2020-01-21T12:26:58.000Z</time>
      </trkpt>
      <trkpt lat="49.16134" lon="6.81157">
        <ele>311</ele>
        <time>2020-01-21T12:27:08.000Z</time>
      </trkpt>
      <trkpt lat="49.16153" lon="6.81173">
        <ele>307</ele>
        <time>2020-01-21T12:27:18.000Z</time>
      </trkpt>
      <trkpt lat="49.16161" lon="6.81179">
        <ele>307</ele>
        <time>2020-01-21T12:27:28.000Z</time>
      </trkpt>
      <trkpt lat="49.16172" lon="6.81187">
        <ele>310</ele>
        <time>2020-01-21T12:27:38.000Z</time>
      </trkpt>
      <trkpt lat="49.16176" lon="6.8119">
        <ele>310</ele>
        <time>2020-01-21T12:27:48.000Z</time>
      </trkpt>
      <trkpt lat="49.16192" lon="6.812">
        <ele>310</ele>
        <time>2020-01-21T12:27:58.000Z</time>
      </trkpt>
      <trkpt lat="49.16205" lon="6.81207">
        <ele>311</ele>
        <time>2020-01-21T12:28:08.000Z</time>
      </trkpt>
      <trkpt lat="49.16216" lon="6.81213">
        <ele>311</ele>
        <time>2020-01-21T12:28:18.000Z</time>
      </trkpt>
      <trkpt lat="49.16223" lon="6.81216">
        <ele>312</ele>
        <time>2020-01-21T12:28:28.000Z</time>
      </trkpt>
      <trkpt lat="49.16225" lon="6.81216">
        <ele>312</ele>
        <time>2020-01-21T12:28:38.000Z</time>
      </trkpt>
      <trkpt lat="49.16226" lon="6.81217">
        <ele>312</ele>
        <time>2020-01-21T12:29:45.000Z</time>
      </trkpt>
      <trkpt lat="49.16243" lon="6.81232">
        <ele>313</ele>
        <time>2020-01-21T12:29:55.000Z</time>
      </trkpt>
      <trkpt lat="49.16258" lon="6.81258">
        <ele>311</ele>
        <time>2020-01-21T12:30:05.000Z</time>
      </trkpt>
      <trkpt lat="49.16266" lon="6.81274">
        <ele>308</ele>
        <time>2020-01-21T12:30:15.000Z</time>
      </trkpt>
      <trkpt lat="49.16272" lon="6.81284">
        <ele>307</ele>
        <time>2020-01-21T12:30:25.000Z</time>
      </trkpt>
      <trkpt lat="49.16281" lon="6.81299">
        <ele>306</ele>
        <time>2020-01-21T12:30:35.000Z</time>
      </trkpt>
      <trkpt lat="49.16291" lon="6.81315">
        <ele>305</ele>
        <time>2020-01-21T12:30:45.000Z</time>
      </trkpt>
      <trkpt lat="49.16306" lon="6.81337">
        <ele>301</ele>
        <time>2020-01-21T12:30:55.000Z</time>
      </trkpt>
      <trkpt lat="49.1631" lon="6.81341">
        <ele>301</ele>
        <time>2020-01-21T12:31:05.000Z</time>
      </trkpt>
      <trkpt lat="49.16314" lon="6.81354">
        <ele>301</ele>
        <time>2020-01-21T12:31:15.000Z</time>
      </trkpt>
      <trkpt lat="49.16324" lon="6.81381">
        <ele>301</ele>
        <time>2020-01-21T12:31:25.000Z</time>
      </trkpt>
      <trkpt lat="49.16338" lon="6.81396">
        <ele>297</ele>
        <time>2020-01-21T12:31:35.000Z</time>
      </trkpt>
      <trkpt lat="49.16347" lon="6.81404">
        <ele>297</ele>
        <time>2020-01-21T12:31:45.000Z</time>
      </trkpt>
      <trkpt lat="49.16352" lon="6.81412">
        <ele>297</ele>
        <time>2020-01-21T12:31:55.000Z</time>
      </trkpt>
      <trkpt lat="49.16363" lon="6.81427">
        <ele>298</ele>
        <time>2020-01-21T12:32:05.000Z</time>
      </trkpt>
      <trkpt lat="49.16371" lon="6.8144">
        <ele>298</ele>
        <time>2020-01-21T12:32:15.000Z</time>
      </trkpt>
      <trkpt lat="49.16378" lon="6.81457">
        <ele>298</ele>
        <time>2020-01-21T12:32:25.000Z</time>
      </trkpt>
      <trkpt lat="49.16384" lon="6.81464">
        <ele>298</ele>
        <time>2020-01-21T12:32:35.000Z</time>
      </trkpt>
      <trkpt lat="49.16398" lon="6.81483">
        <ele>298</ele>
        <time>2020-01-21T12:32:45.000Z</time>
      </trkpt>
      <trkpt lat="49.16411" lon="6.815">
        <ele>297</ele>
        <time>2020-01-21T12:32:55.000Z</time>
      </trkpt>
      <trkpt lat="49.16418" lon="6.81522">
        <ele>294</ele>
        <time>2020-01-21T12:33:05.000Z</time>
      </trkpt>
      <trkpt lat="49.16426" lon="6.81541">
        <ele>292</ele>
        <time>2020-01-21T12:33:15.000Z</time>
      </trkpt>
      <trkpt lat="49.16434" lon="6.81556">
        <ele>292</ele>
        <time>2020-01-21T12:33:25.000Z</time>
      </trkpt>
      <trkpt lat="49.16444" lon="6.81572">
        <ele>292</ele>
        <time>2020-01-21T12:33:35.000Z</time>
      </trkpt>
      <trkpt lat="49.16454" lon="6.81588">
        <ele>291</ele>
        <time>2020-01-21T12:33:45.000Z</time>
      </trkpt>
      <trkpt lat="49.16458" lon="6.81601">
        <ele>290</ele>
        <time>2020-01-21T12:33:55.000Z</time>
      </trkpt>
      <trkpt lat="49.16466" lon="6.81613">
        <ele>290</ele>
        <time>2020-01-21T12:34:05.000Z</time>
      </trkpt>
      <trkpt lat="49.16471" lon="6.81616">
        <ele>289</ele>
        <time>2020-01-21T12:34:15.000Z</time>
      </trkpt>
      <trkpt lat="49.16472" lon="6.81616">
        <ele>289</ele>
        <time>2020-01-21T12:34:25.000Z</time>
      </trkpt>
      <trkpt lat="49.16473" lon="6.81618">
        <ele>289</ele>
        <time>2020-01-21T12:34:42.000Z</time>
      </trkpt>
      <trkpt lat="49.16473" lon="6.8162">
        <ele>289</ele>
        <time>2020-01-21T12:34:52.000Z</time>
      </trkpt>
      <trkpt lat="49.1648" lon="6.81625">
        <ele>289</ele>
        <time>2020-01-21T12:35:02.000Z</time>
      </trkpt>
      <trkpt lat="49.16493" lon="6.81636">
        <ele>288</ele>
        <time>2020-01-21T12:35:12.000Z</time>
      </trkpt>
      <trkpt lat="49.16499" lon="6.81642">
        <ele>288</ele>
        <time>2020-01-21T12:35:22.000Z</time>
      </trkpt>
      <trkpt lat="49.16502" lon="6.81648">
        <ele>284</ele>
        <time>2020-01-21T12:35:32.000Z</time>
      </trkpt>
      <trkpt lat="49.16515" lon="6.81674">
        <ele>284</ele>
        <time>2020-01-21T12:35:42.000Z</time>
      </trkpt>
      <trkpt lat="49.16525" lon="6.81688">
        <ele>283</ele>
        <time>2020-01-21T12:35:52.000Z</time>
      </trkpt>
      <trkpt lat="49.16528" lon="6.81696">
        <ele>282</ele>
        <time>2020-01-21T12:36:02.000Z</time>
      </trkpt>
      <trkpt lat="49.16534" lon="6.81709">
        <ele>282</ele>
        <time>2020-01-21T12:36:12.000Z</time>
      </trkpt>
      <trkpt lat="49.16536" lon="6.81712">
        <ele>282</ele>
        <time>2020-01-21T12:36:22.000Z</time>
      </trkpt>
      <trkpt lat="49.16537" lon="6.81713">
        <ele>282</ele>
        <time>2020-01-21T12:36:38.000Z</time>
      </trkpt>
      <trkpt lat="49.16553" lon="6.81712">
        <ele>281</ele>
        <time>2020-01-21T12:36:48.000Z</time>
      </trkpt>
      <trkpt lat="49.16569" lon="6.81702">
        <ele>281</ele>
        <time>2020-01-21T12:36:58.000Z</time>
      </trkpt>
      <trkpt lat="49.1658" lon="6.81693">
        <ele>280</ele>
        <time>2020-01-21T12:37:08.000Z</time>
      </trkpt>
      <trkpt lat="49.16586" lon="6.81687">
        <ele>277</ele>
        <time>2020-01-21T12:37:18.000Z</time>
      </trkpt>
      <trkpt lat="49.16592" lon="6.81683">
        <ele>277</ele>
        <time>2020-01-21T12:37:28.000Z</time>
      </trkpt>
      <trkpt lat="49.16598" lon="6.8168">
        <ele>276</ele>
        <time>2020-01-21T12:37:38.000Z</time>
      </trkpt>
      <trkpt lat="49.16601" lon="6.81679">
        <ele>276</ele>
        <time>2020-01-21T12:37:48.000Z</time>
      </trkpt>
      <trkpt lat="49.16611" lon="6.81683">
        <ele>275</ele>
        <time>2020-01-21T12:37:58.000Z</time>
      </trkpt>
      <trkpt lat="49.16615" lon="6.81687">
        <ele>275</ele>
        <time>2020-01-21T12:38:08.000Z</time>
      </trkpt>
      <trkpt lat="49.16625" lon="6.81703">
        <ele>275</ele>
        <time>2020-01-21T12:38:18.000Z</time>
      </trkpt>
      <trkpt lat="49.16631" lon="6.81708">
        <ele>274</ele>
        <time>2020-01-21T12:38:28.000Z</time>
      </trkpt>
      <trkpt lat="49.16635" lon="6.81709">
        <ele>274</ele>
        <time>2020-01-21T12:38:38.000Z</time>
      </trkpt>
      <trkpt lat="49.16648" lon="6.81714">
        <ele>274</ele>
        <time>2020-01-21T12:38:48.000Z</time>
      </trkpt>
      <trkpt lat="49.16662" lon="6.8172">
        <ele>274</ele>
        <time>2020-01-21T12:38:58.000Z</time>
      </trkpt>
      <trkpt lat="49.16678" lon="6.8173">
        <ele>269</ele>
        <time>2020-01-21T12:39:08.000Z</time>
      </trkpt>
      <trkpt lat="49.16685" lon="6.81733">
        <ele>269</ele>
        <time>2020-01-21T12:39:18.000Z</time>
      </trkpt>
      <trkpt lat="49.167" lon="6.81747">
        <ele>268</ele>
        <time>2020-01-21T12:39:28.000Z</time>
      </trkpt>
      <trkpt lat="49.16711" lon="6.81756">
        <ele>268</ele>
        <time>2020-01-21T12:39:38.000Z</time>
      </trkpt>
      <trkpt lat="49.16715" lon="6.8176">
        <ele>268</ele>
        <time>2020-01-21T12:39:48.000Z</time>
      </trkpt>
      <trkpt lat="49.16723" lon="6.81768">
        <ele>267</ele>
        <time>2020-01-21T12:39:58.000Z</time>
      </trkpt>
      <trkpt lat="49.16729" lon="6.81775">
        <ele>267</ele>
        <time>2020-01-21T12:40:08.000Z</time>
      </trkpt>
      <trkpt lat="49.16749" lon="6.81792">
        <ele>267</ele>
        <time>2020-01-21T12:40:18.000Z</time>
      </trkpt>
      <trkpt lat="49.16753" lon="6.81803">
        <ele>262</ele>
        <time>2020-01-21T12:40:28.000Z</time>
      </trkpt>
      <trkpt lat="49.16757" lon="6.81817">
        <ele>263</ele>
        <time>2020-01-21T12:40:38.000Z</time>
      </trkpt>
      <trkpt lat="49.16756" lon="6.81818">
        <ele>263</ele>
        <time>2020-01-21T12:40:48.000Z</time>
      </trkpt>
      <trkpt lat="49.16755" lon="6.81812">
        <ele>263</ele>
        <time>2020-01-21T12:40:58.000Z</time>
      </trkpt>
      <trkpt lat="49.16756" lon="6.81805">
        <ele>262</ele>
        <time>2020-01-21T12:41:08.000Z</time>
      </trkpt>
      <trkpt lat="49.16763" lon="6.81794">
        <ele>261</ele>
        <time>2020-01-21T12:41:18.000Z</time>
      </trkpt>
      <trkpt lat="49.1677" lon="6.81785">
        <ele>260</ele>
        <time>2020-01-21T12:41:28.000Z</time>
      </trkpt>
      <trkpt lat="49.1678" lon="6.81778">
        <ele>260</ele>
        <time>2020-01-21T12:41:38.000Z</time>
      </trkpt>
      <trkpt lat="49.16798" lon="6.8178">
        <ele>259</ele>
        <time>2020-01-21T12:41:48.000Z</time>
      </trkpt>
      <trkpt lat="49.16802" lon="6.81784">
        <ele>258</ele>
        <time>2020-01-21T12:41:58.000Z</time>
      </trkpt>
      <trkpt lat="49.16804" lon="6.81788">
        <ele>258</ele>
        <time>2020-01-21T12:42:08.000Z</time>
      </trkpt>
      <trkpt lat="49.16806" lon="6.8179">
        <ele>258</ele>
        <time>2020-01-21T12:42:18.000Z</time>
      </trkpt>
      <trkpt lat="49.16807" lon="6.81783">
        <ele>258</ele>
        <time>2020-01-21T12:42:28.000Z</time>
      </trkpt>
      <trkpt lat="49.16813" lon="6.81776">
        <ele>258</ele>
        <time>2020-01-21T12:42:38.000Z</time>
      </trkpt>
      <trkpt lat="49.16827" lon="6.81773">
        <ele>257</ele>
        <time>2020-01-21T12:42:48.000Z</time>
      </trkpt>
      <trkpt lat="49.16851" lon="6.81774">
        <ele>252</ele>
        <time>2020-01-21T12:42:58.000Z</time>
      </trkpt>
      <trkpt lat="49.1687" lon="6.81777">
        <ele>251</ele>
        <time>2020-01-21T12:43:08.000Z</time>
      </trkpt>
      <trkpt lat="49.16882" lon="6.81787">
        <ele>251</ele>
        <time>2020-01-21T12:43:18.000Z</time>
      </trkpt>
      <trkpt lat="49.1689" lon="6.81813">
        <ele>250</ele>
        <time>2020-01-21T12:43:28.000Z</time>
      </trkpt>
      <trkpt lat="49.16899" lon="6.81833">
        <ele>248</ele>
        <time>2020-01-21T12:43:38.000Z</time>
      </trkpt>
      <trkpt lat="49.169" lon="6.81836">
        <ele>249</ele>
        <time>2020-01-21T12:43:48.000Z</time>
      </trkpt>
      <trkpt lat="49.16901" lon="6.81835">
        <ele>249</ele>
        <time>2020-01-21T12:44:29.000Z</time>
      </trkpt>
      <trkpt lat="49.16905" lon="6.81837">
        <ele>248</ele>
        <time>2020-01-21T12:44:39.000Z</time>
      </trkpt>
      <trkpt lat="49.16911" lon="6.81839">
        <ele>247</ele>
        <time>2020-01-21T12:44:49.000Z</time>
      </trkpt>
      <trkpt lat="49.16919" lon="6.8184">
        <ele>245</ele>
        <time>2020-01-21T12:44:59.000Z</time>
      </trkpt>
      <trkpt lat="49.16926" lon="6.81839">
        <ele>245</ele>
        <time>2020-01-21T12:45:09.000Z</time>
      </trkpt>
      <trkpt lat="49.16934" lon="6.81843">
        <ele>246</ele>
        <time>2020-01-21T12:45:19.000Z</time>
      </trkpt>
      <trkpt lat="49.16951" lon="6.81853">
        <ele>246</ele>
        <time>2020-01-21T12:45:29.000Z</time>
      </trkpt>
      <trkpt lat="49.16954" lon="6.81855">
        <ele>246</ele>
        <time>2020-01-21T12:45:39.000Z</time>
      </trkpt>
      <trkpt lat="49.16956" lon="6.81856">
        <ele>246</ele>
        <time>2020-01-21T12:45:49.000Z</time>
      </trkpt>
      <trkpt lat="49.16973" lon="6.81863">
        <ele>246</ele>
        <time>2020-01-21T12:45:59.000Z</time>
      </trkpt>
      <trkpt lat="49.16992" lon="6.81881">
        <ele>246</ele>
        <time>2020-01-21T12:46:09.000Z</time>
      </trkpt>
      <trkpt lat="49.17002" lon="6.81889">
        <ele>243</ele>
        <time>2020-01-21T12:46:19.000Z</time>
      </trkpt>
      <trkpt lat="49.17006" lon="6.81891">
        <ele>243</ele>
        <time>2020-01-21T12:46:29.000Z</time>
      </trkpt>
      <trkpt lat="49.17014" lon="6.81897">
        <ele>243</ele>
        <time>2020-01-21T12:46:39.000Z</time>
      </trkpt>
      <trkpt lat="49.17019" lon="6.81899">
        <ele>242</ele>
        <time>2020-01-21T12:46:49.000Z</time>
      </trkpt>
      <trkpt lat="49.17026" lon="6.81902">
        <ele>242</ele>
        <time>2020-01-21T12:46:59.000Z</time>
      </trkpt>
      <trkpt lat="49.17028" lon="6.81903">
        <ele>242</ele>
        <time>2020-01-21T12:47:09.000Z</time>
      </trkpt>
      <trkpt lat="49.17034" lon="6.81909">
        <ele>242</ele>
        <time>2020-01-21T12:47:19.000Z</time>
      </trkpt>
      <trkpt lat="49.17054" lon="6.81931">
        <ele>241</ele>
        <time>2020-01-21T12:47:29.000Z</time>
      </trkpt>
      <trkpt lat="49.17067" lon="6.81936">
        <ele>240</ele>
        <time>2020-01-21T12:47:39.000Z</time>
      </trkpt>
      <trkpt lat="49.17084" lon="6.81938">
        <ele>234</ele>
        <time>2020-01-21T12:47:49.000Z</time>
      </trkpt>
      <trkpt lat="49.17098" lon="6.81941">
        <ele>233</ele>
        <time>2020-01-21T12:47:59.000Z</time>
      </trkpt>
      <trkpt lat="49.17107" lon="6.81951">
        <ele>232</ele>
        <time>2020-01-21T12:48:09.000Z</time>
      </trkpt>
      <trkpt lat="49.17113" lon="6.81971">
        <ele>232</ele>
        <time>2020-01-21T12:48:19.000Z</time>
      </trkpt>
      <trkpt lat="49.17119" lon="6.81996">
        <ele>231</ele>
        <time>2020-01-21T12:48:29.000Z</time>
      </trkpt>
      <trkpt lat="49.17128" lon="6.82016">
        <ele>231</ele>
        <time>2020-01-21T12:48:39.000Z</time>
      </trkpt>
      <trkpt lat="49.17133" lon="6.82033">
        <ele>231</ele>
        <time>2020-01-21T12:48:49.000Z</time>
      </trkpt>
      <trkpt lat="49.17138" lon="6.82047">
        <ele>231</ele>
        <time>2020-01-21T12:48:59.000Z</time>
      </trkpt>
      <trkpt lat="49.17141" lon="6.82063">
        <ele>231</ele>
        <time>2020-01-21T12:49:09.000Z</time>
      </trkpt>
      <trkpt lat="49.17146" lon="6.82071">
        <ele>231</ele>
        <time>2020-01-21T12:49:19.000Z</time>
      </trkpt>
      <trkpt lat="49.17147" lon="6.82072">
        <ele>231</ele>
        <time>2020-01-21T12:49:29.000Z</time>
      </trkpt>
      <trkpt lat="49.17146" lon="6.82073">
        <ele>231</ele>
        <time>2020-01-21T12:49:53.000Z</time>
      </trkpt>
      <trkpt lat="49.1714" lon="6.82078">
        <ele>231</ele>
        <time>2020-01-21T12:50:03.000Z</time>
      </trkpt>
      <trkpt lat="49.1714" lon="6.82082">
        <ele>232</ele>
        <time>2020-01-21T12:50:13.000Z</time>
      </trkpt>
      <trkpt lat="49.17141" lon="6.8209">
        <ele>233</ele>
        <time>2020-01-21T12:50:23.000Z</time>
      </trkpt>
      <trkpt lat="49.17144" lon="6.821">
        <ele>233</ele>
        <time>2020-01-21T12:50:33.000Z</time>
      </trkpt>
      <trkpt lat="49.17147" lon="6.82115">
        <ele>233</ele>
        <time>2020-01-21T12:50:43.000Z</time>
      </trkpt>
      <trkpt lat="49.1715" lon="6.82136">
        <ele>232</ele>
        <time>2020-01-21T12:50:53.000Z</time>
      </trkpt>
      <trkpt lat="49.17155" lon="6.82155">
        <ele>231</ele>
        <time>2020-01-21T12:51:03.000Z</time>
      </trkpt>
      <trkpt lat="49.17159" lon="6.82172">
        <ele>230</ele>
        <time>2020-01-21T12:51:13.000Z</time>
      </trkpt>
      <trkpt lat="49.17161" lon="6.82191">
        <ele>231</ele>
        <time>2020-01-21T12:51:23.000Z</time>
      </trkpt>
      <trkpt lat="49.17161" lon="6.82209">
        <ele>232</ele>
        <time>2020-01-21T12:51:33.000Z</time>
      </trkpt>
      <trkpt lat="49.17164" lon="6.82224">
        <ele>231</ele>
        <time>2020-01-21T12:51:43.000Z</time>
      </trkpt>
      <trkpt lat="49.17166" lon="6.8223">
        <ele>230</ele>
        <time>2020-01-21T12:51:53.000Z</time>
      </trkpt>
      <trkpt lat="49.17168" lon="6.82232">
        <ele>231</ele>
        <time>2020-01-21T12:53:49.000Z</time>
      </trkpt>
      <trkpt lat="49.17167" lon="6.82233">
        <ele>231</ele>
        <time>2020-01-21T12:54:15.000Z</time>
      </trkpt>
      <trkpt lat="49.17167" lon="6.82237">
        <ele>230</ele>
        <time>2020-01-21T12:54:25.000Z</time>
      </trkpt>
      <trkpt lat="49.17168" lon="6.82236">
        <ele>230</ele>
        <time>2020-01-21T12:54:35.000Z</time>
      </trkpt>
      <trkpt lat="49.17169" lon="6.82236">
        <ele>230</ele>
        <time>2020-01-21T12:54:45.000Z</time>
      </trkpt>
      <trkpt lat="49.17171" lon="6.82238">
        <ele>230</ele>
        <time>2020-01-21T12:55:24.000Z</time>
      </trkpt>
      <trkpt lat="49.17179" lon="6.82239">
        <ele>231</ele>
        <time>2020-01-21T12:55:34.000Z</time>
      </trkpt>
      <trkpt lat="49.17188" lon="6.82242">
        <ele>232</ele>
        <time>2020-01-21T12:55:44.000Z</time>
      </trkpt>
      <trkpt lat="49.17189" lon="6.82242">
        <ele>232</ele>
        <time>2020-01-21T12:55:54.000Z</time>
      </trkpt>
      <trkpt lat="49.17195" lon="6.82233">
        <ele>233</ele>
        <time>2020-01-21T12:56:04.000Z</time>
      </trkpt>
      <trkpt lat="49.17201" lon="6.82217">
        <ele>234</ele>
        <time>2020-01-21T12:56:14.000Z</time>
      </trkpt>
      <trkpt lat="49.17201" lon="6.82199">
        <ele>234</ele>
        <time>2020-01-21T12:56:24.000Z</time>
      </trkpt>
      <trkpt lat="49.172" lon="6.82187">
        <ele>234</ele>
        <time>2020-01-21T12:56:34.000Z</time>
      </trkpt>
      <trkpt lat="49.17199" lon="6.8218">
        <ele>234</ele>
        <time>2020-01-21T12:56:44.000Z</time>
      </trkpt>
      <trkpt lat="49.17206" lon="6.82173">
        <ele>235</ele>
        <time>2020-01-21T12:56:54.000Z</time>
      </trkpt>
      <trkpt lat="49.17215" lon="6.82156">
        <ele>236</ele>
        <time>2020-01-21T12:57:04.000Z</time>
      </trkpt>
      <trkpt lat="49.17219" lon="6.82145">
        <ele>236</ele>
        <time>2020-01-21T12:57:14.000Z</time>
      </trkpt>
      <trkpt lat="49.17222" lon="6.82131">
        <ele>236</ele>
        <time>2020-01-21T12:57:24.000Z</time>
      </trkpt>
      <trkpt lat="49.17221" lon="6.82112">
        <ele>236</ele>
        <time>2020-01-21T12:57:34.000Z</time>
      </trkpt>
      <trkpt lat="49.17222" lon="6.82095">
        <ele>236</ele>
        <time>2020-01-21T12:57:44.000Z</time>
      </trkpt>
      <trkpt lat="49.17223" lon="6.82078">
        <ele>236</ele>
        <time>2020-01-21T12:57:54.000Z</time>
      </trkpt>
      <trkpt lat="49.17224" lon="6.8206">
        <ele>236</ele>
        <time>2020-01-21T12:58:04.000Z</time>
      </trkpt>
      <trkpt lat="49.17228" lon="6.82032">
        <ele>236</ele>
        <time>2020-01-21T12:58:14.000Z</time>
      </trkpt>
      <trkpt lat="49.17228" lon="6.82015">
        <ele>237</ele>
        <time>2020-01-21T12:58:24.000Z</time>
      </trkpt>
      <trkpt lat="49.17229" lon="6.81998">
        <ele>239</ele>
        <time>2020-01-21T12:58:34.000Z</time>
      </trkpt>
      <trkpt lat="49.17227" lon="6.81985">
        <ele>238</ele>
        <time>2020-01-21T12:58:44.000Z</time>
      </trkpt>
      <trkpt lat="49.17225" lon="6.81982">
        <ele>238</ele>
        <time>2020-01-21T12:58:54.000Z</time>
      </trkpt>
      <trkpt lat="49.17226" lon="6.81986">
        <ele>238</ele>
        <time>2020-01-21T12:59:15.000Z</time>
      </trkpt>
      <trkpt lat="49.17219" lon="6.81978">
        <ele>237</ele>
        <time>2020-01-21T12:59:25.000Z</time>
      </trkpt>
      <trkpt lat="49.17213" lon="6.81961">
        <ele>237</ele>
        <time>2020-01-21T12:59:35.000Z</time>
      </trkpt>
      <trkpt lat="49.17204" lon="6.81945">
        <ele>236</ele>
        <time>2020-01-21T12:59:45.000Z</time>
      </trkpt>
      <trkpt lat="49.17199" lon="6.81931">
        <ele>236</ele>
        <time>2020-01-21T12:59:55.000Z</time>
      </trkpt>
      <trkpt lat="49.17193" lon="6.81919">
        <ele>235</ele>
        <time>2020-01-21T13:00:05.000Z</time>
      </trkpt>
      <trkpt lat="49.17185" lon="6.81892">
        <ele>238</ele>
        <time>2020-01-21T13:00:15.000Z</time>
      </trkpt>
      <trkpt lat="49.17182" lon="6.81869">
        <ele>239</ele>
        <time>2020-01-21T13:00:25.000Z</time>
      </trkpt>
      <trkpt lat="49.17175" lon="6.8186">
        <ele>238</ele>
        <time>2020-01-21T13:00:35.000Z</time>
      </trkpt>
      <trkpt lat="49.17169" lon="6.81849">
        <ele>237</ele>
        <time>2020-01-21T13:00:45.000Z</time>
      </trkpt>
      <trkpt lat="49.17158" lon="6.81844">
        <ele>235</ele>
        <time>2020-01-21T13:00:55.000Z</time>
      </trkpt>
      <trkpt lat="49.17146" lon="6.81839">
        <ele>235</ele>
        <time>2020-01-21T13:01:05.000Z</time>
      </trkpt>
      <trkpt lat="49.17135" lon="6.81834">
        <ele>236</ele>
        <time>2020-01-21T13:01:15.000Z</time>
      </trkpt>
      <trkpt lat="49.17128" lon="6.81823">
        <ele>238</ele>
        <time>2020-01-21T13:01:25.000Z</time>
      </trkpt>
      <trkpt lat="49.17129" lon="6.81806">
        <ele>238</ele>
        <time>2020-01-21T13:01:35.000Z</time>
      </trkpt>
      <trkpt lat="49.17126" lon="6.81784">
        <ele>238</ele>
        <time>2020-01-21T13:01:45.000Z</time>
      </trkpt>
      <trkpt lat="49.17118" lon="6.81762">
        <ele>240</ele>
        <time>2020-01-21T13:01:55.000Z</time>
      </trkpt>
      <trkpt lat="49.17115" lon="6.81742">
        <ele>241</ele>
        <time>2020-01-21T13:02:05.000Z</time>
      </trkpt>
      <trkpt lat="49.17115" lon="6.81725">
        <ele>241</ele>
        <time>2020-01-21T13:02:15.000Z</time>
      </trkpt>
      <trkpt lat="49.17119" lon="6.81711">
        <ele>241</ele>
        <time>2020-01-21T13:02:25.000Z</time>
      </trkpt>
      <trkpt lat="49.17129" lon="6.81696">
        <ele>240</ele>
        <time>2020-01-21T13:02:35.000Z</time>
      </trkpt>
      <trkpt lat="49.17138" lon="6.8168">
        <ele>239</ele>
        <time>2020-01-21T13:02:45.000Z</time>
      </trkpt>
      <trkpt lat="49.17142" lon="6.81659">
        <ele>242</ele>
        <time>2020-01-21T13:02:55.000Z</time>
      </trkpt>
      <trkpt lat="49.17148" lon="6.81651">
        <ele>242</ele>
        <time>2020-01-21T13:03:05.000Z</time>
      </trkpt>
      <trkpt lat="49.17153" lon="6.81646">
        <ele>242</ele>
        <time>2020-01-21T13:03:15.000Z</time>
      </trkpt>
      <trkpt lat="49.1715" lon="6.81642">
        <ele>242</ele>
        <time>2020-01-21T13:03:25.000Z</time>
      </trkpt>
      <trkpt lat="49.1716" lon="6.81639">
        <ele>242</ele>
        <time>2020-01-21T13:03:35.000Z</time>
      </trkpt>
      <trkpt lat="49.17162" lon="6.81635">
        <ele>242</ele>
        <time>2020-01-21T13:03:45.000Z</time>
      </trkpt>
      <trkpt lat="49.17177" lon="6.81624">
        <ele>236</ele>
        <time>2020-01-21T13:03:55.000Z</time>
      </trkpt>
      <trkpt lat="49.17189" lon="6.81611">
        <ele>237</ele>
        <time>2020-01-21T13:04:05.000Z</time>
      </trkpt>
      <trkpt lat="49.172" lon="6.81596">
        <ele>237</ele>
        <time>2020-01-21T13:04:15.000Z</time>
      </trkpt>
      <trkpt lat="49.17206" lon="6.81587">
        <ele>237</ele>
        <time>2020-01-21T13:04:25.000Z</time>
      </trkpt>
      <trkpt lat="49.17214" lon="6.81581">
        <ele>242</ele>
        <time>2020-01-21T13:04:35.000Z</time>
      </trkpt>
      <trkpt lat="49.17231" lon="6.81571">
        <ele>241</ele>
        <time>2020-01-21T13:04:45.000Z</time>
      </trkpt>
      <trkpt lat="49.17245" lon="6.81564">
        <ele>240</ele>
        <time>2020-01-21T13:04:55.000Z</time>
      </trkpt>
      <trkpt lat="49.17255" lon="6.81555">
        <ele>236</ele>
        <time>2020-01-21T13:05:05.000Z</time>
      </trkpt>
      <trkpt lat="49.17268" lon="6.81539">
        <ele>237</ele>
        <time>2020-01-21T13:05:15.000Z</time>
      </trkpt>
      <trkpt lat="49.17272" lon="6.81532">
        <ele>237</ele>
        <time>2020-01-21T13:05:25.000Z</time>
      </trkpt>
      <trkpt lat="49.17278" lon="6.81516">
        <ele>238</ele>
        <time>2020-01-21T13:05:35.000Z</time>
      </trkpt>
      <trkpt lat="49.17281" lon="6.81503">
        <ele>238</ele>
        <time>2020-01-21T13:05:45.000Z</time>
      </trkpt>
      <trkpt lat="49.17287" lon="6.81487">
        <ele>240</ele>
        <time>2020-01-21T13:05:55.000Z</time>
      </trkpt>
      <trkpt lat="49.1729" lon="6.81466">
        <ele>239</ele>
        <time>2020-01-21T13:06:05.000Z</time>
      </trkpt>
      <trkpt lat="49.1729" lon="6.81452">
        <ele>239</ele>
        <time>2020-01-21T13:06:15.000Z</time>
      </trkpt>
      <trkpt lat="49.17287" lon="6.81435">
        <ele>240</ele>
        <time>2020-01-21T13:06:25.000Z</time>
      </trkpt>
      <trkpt lat="49.17283" lon="6.8142">
        <ele>240</ele>
        <time>2020-01-21T13:06:35.000Z</time>
      </trkpt>
      <trkpt lat="49.17278" lon="6.81396">
        <ele>240</ele>
        <time>2020-01-21T13:06:45.000Z</time>
      </trkpt>
      <trkpt lat="49.1727" lon="6.81377">
        <ele>240</ele>
        <time>2020-01-21T13:06:55.000Z</time>
      </trkpt>
      <trkpt lat="49.17259" lon="6.81368">
        <ele>240</ele>
        <time>2020-01-21T13:07:05.000Z</time>
      </trkpt>
      <trkpt lat="49.17251" lon="6.81359">
        <ele>241</ele>
        <time>2020-01-21T13:07:15.000Z</time>
      </trkpt>
      <trkpt lat="49.17247" lon="6.81344">
        <ele>244</ele>
        <time>2020-01-21T13:07:25.000Z</time>
      </trkpt>
      <trkpt lat="49.17245" lon="6.81333">
        <ele>243</ele>
        <time>2020-01-21T13:07:35.000Z</time>
      </trkpt>
      <trkpt lat="49.17246" lon="6.81337">
        <ele>243</ele>
        <time>2020-01-21T13:08:03.000Z</time>
      </trkpt>
      <trkpt lat="49.17247" lon="6.81317">
        <ele>243</ele>
        <time>2020-01-21T13:08:13.000Z</time>
      </trkpt>
      <trkpt lat="49.17244" lon="6.81295">
        <ele>243</ele>
        <time>2020-01-21T13:08:23.000Z</time>
      </trkpt>
      <trkpt lat="49.17243" lon="6.81267">
        <ele>241</ele>
        <time>2020-01-21T13:08:33.000Z</time>
      </trkpt>
      <trkpt lat="49.17246" lon="6.81243">
        <ele>239</ele>
        <time>2020-01-21T13:08:43.000Z</time>
      </trkpt>
      <trkpt lat="49.17253" lon="6.8123">
        <ele>236</ele>
        <time>2020-01-21T13:08:53.000Z</time>
      </trkpt>
      <trkpt lat="49.17263" lon="6.81206">
        <ele>236</ele>
        <time>2020-01-21T13:09:03.000Z</time>
      </trkpt>
      <trkpt lat="49.17265" lon="6.81184">
        <ele>237</ele>
        <time>2020-01-21T13:09:13.000Z</time>
      </trkpt>
      <trkpt lat="49.17261" lon="6.81166">
        <ele>238</ele>
        <time>2020-01-21T13:09:23.000Z</time>
      </trkpt>
      <trkpt lat="49.17258" lon="6.8115">
        <ele>237</ele>
        <time>2020-01-21T13:09:33.000Z</time>
      </trkpt>
      <trkpt lat="49.17257" lon="6.81134">
        <ele>236</ele>
        <time>2020-01-21T13:09:43.000Z</time>
      </trkpt>
      <trkpt lat="49.17253" lon="6.81118">
        <ele>235</ele>
        <time>2020-01-21T13:09:53.000Z</time>
      </trkpt>
      <trkpt lat="49.17242" lon="6.81109">
        <ele>242</ele>
        <time>2020-01-21T13:10:03.000Z</time>
      </trkpt>
      <trkpt lat="49.17232" lon="6.81104">
        <ele>242</ele>
        <time>2020-01-21T13:10:13.000Z</time>
      </trkpt>
      <trkpt lat="49.17224" lon="6.81095">
        <ele>242</ele>
        <time>2020-01-21T13:10:23.000Z</time>
      </trkpt>
      <trkpt lat="49.17218" lon="6.81089">
        <ele>243</ele>
        <time>2020-01-21T13:10:33.000Z</time>
      </trkpt>
      <trkpt lat="49.17211" lon="6.81083">
        <ele>241</ele>
        <time>2020-01-21T13:10:43.000Z</time>
      </trkpt>
      <trkpt lat="49.17203" lon="6.81079">
        <ele>242</ele>
        <time>2020-01-21T13:10:53.000Z</time>
      </trkpt>
      <trkpt lat="49.1719" lon="6.81073">
        <ele>243</ele>
        <time>2020-01-21T13:11:03.000Z</time>
      </trkpt>
      <trkpt lat="49.17177" lon="6.81066">
        <ele>244</ele>
        <time>2020-01-21T13:11:13.000Z</time>
      </trkpt>
      <trkpt lat="49.17165" lon="6.81057">
        <ele>248</ele>
        <time>2020-01-21T13:11:23.000Z</time>
      </trkpt>
      <trkpt lat="49.17155" lon="6.81049">
        <ele>247</ele>
        <time>2020-01-21T13:11:33.000Z</time>
      </trkpt>
      <trkpt lat="49.17145" lon="6.8104">
        <ele>247</ele>
        <time>2020-01-21T13:11:43.000Z</time>
      </trkpt>
      <trkpt lat="49.17137" lon="6.81028">
        <ele>247</ele>
        <time>2020-01-21T13:11:53.000Z</time>
      </trkpt>
      <trkpt lat="49.17128" lon="6.81017">
        <ele>248</ele>
        <time>2020-01-21T13:12:03.000Z</time>
      </trkpt>
      <trkpt lat="49.17117" lon="6.81006">
        <ele>248</ele>
        <time>2020-01-21T13:12:13.000Z</time>
      </trkpt>
      <trkpt lat="49.17105" lon="6.80992">
        <ele>247</ele>
        <time>2020-01-21T13:12:23.000Z</time>
      </trkpt>
      <trkpt lat="49.17094" lon="6.80978">
        <ele>247</ele>
        <time>2020-01-21T13:12:33.000Z</time>
      </trkpt>
      <trkpt lat="49.17086" lon="6.80965">
        <ele>246</ele>
        <time>2020-01-21T13:12:43.000Z</time>
      </trkpt>
      <trkpt lat="49.17079" lon="6.80953">
        <ele>251</ele>
        <time>2020-01-21T13:12:53.000Z</time>
      </trkpt>
      <trkpt lat="49.17072" lon="6.8094">
        <ele>250</ele>
        <time>2020-01-21T13:13:03.000Z</time>
      </trkpt>
      <trkpt lat="49.17067" lon="6.80923">
        <ele>249</ele>
        <time>2020-01-21T13:13:13.000Z</time>
      </trkpt>
      <trkpt lat="49.17062" lon="6.80906">
        <ele>248</ele>
        <time>2020-01-21T13:13:23.000Z</time>
      </trkpt>
      <trkpt lat="49.17053" lon="6.80889">
        <ele>249</ele>
        <time>2020-01-21T13:13:33.000Z</time>
      </trkpt>
      <trkpt lat="49.17042" lon="6.80869">
        <ele>250</ele>
        <time>2020-01-21T13:13:43.000Z</time>
      </trkpt>
      <trkpt lat="49.17035" lon="6.80852">
        <ele>251</ele>
        <time>2020-01-21T13:13:53.000Z</time>
      </trkpt>
      <trkpt lat="49.17029" lon="6.80839">
        <ele>251</ele>
        <time>2020-01-21T13:14:03.000Z</time>
      </trkpt>
      <trkpt lat="49.17025" lon="6.80826">
        <ele>254</ele>
        <time>2020-01-21T13:14:13.000Z</time>
      </trkpt>
      <trkpt lat="49.17022" lon="6.80811">
        <ele>254</ele>
        <time>2020-01-21T13:14:23.000Z</time>
      </trkpt>
      <trkpt lat="49.1702" lon="6.80796">
        <ele>254</ele>
        <time>2020-01-21T13:14:33.000Z</time>
      </trkpt>
      <trkpt lat="49.1702" lon="6.80785">
        <ele>254</ele>
        <time>2020-01-21T13:14:43.000Z</time>
      </trkpt>
      <trkpt lat="49.17021" lon="6.80778">
        <ele>255</ele>
        <time>2020-01-21T13:14:53.000Z</time>
      </trkpt>
      <trkpt lat="49.17025" lon="6.80771">
        <ele>255</ele>
        <time>2020-01-21T13:15:03.000Z</time>
      </trkpt>
      <trkpt lat="49.17026" lon="6.80768">
        <ele>255</ele>
        <time>2020-01-21T13:15:24.000Z</time>
      </trkpt>
      <trkpt lat="49.17026" lon="6.80766">
        <ele>255</ele>
        <time>2020-01-21T13:15:38.000Z</time>
      </trkpt>
      <trkpt lat="49.17025" lon="6.80764">
        <ele>255</ele>
        <time>2020-01-21T13:15:48.000Z</time>
      </trkpt>
      <trkpt lat="49.1702" lon="6.80755">
        <ele>255</ele>
        <time>2020-01-21T13:15:58.000Z</time>
      </trkpt>
      <trkpt lat="49.17018" lon="6.80751">
        <ele>256</ele>
        <time>2020-01-21T13:16:08.000Z</time>
      </trkpt>
      <trkpt lat="49.17014" lon="6.80742">
        <ele>259</ele>
        <time>2020-01-21T13:16:18.000Z</time>
      </trkpt>
      <trkpt lat="49.17011" lon="6.80739">
        <ele>259</ele>
        <time>2020-01-21T13:16:28.000Z</time>
      </trkpt>
      <trkpt lat="49.1701" lon="6.80738">
        <ele>259</ele>
        <time>2020-01-21T13:17:13.000Z</time>
      </trkpt>
      <trkpt lat="49.17005" lon="6.80738">
        <ele>258</ele>
        <time>2020-01-21T13:17:23.000Z</time>
      </trkpt>
      <trkpt lat="49.17006" lon="6.80738">
        <ele>258</ele>
        <time>2020-01-21T13:17:46.000Z</time>
      </trkpt>
      <trkpt lat="49.17007" lon="6.80734">
        <ele>259</ele>
        <time>2020-01-21T13:17:56.000Z</time>
      </trkpt>
      <trkpt lat="49.17006" lon="6.80734">
        <ele>259</ele>
        <time>2020-01-21T13:18:35.000Z</time>
      </trkpt>
      <trkpt lat="49.17003" lon="6.80726">
        <ele>259</ele>
        <time>2020-01-21T13:18:45.000Z</time>
      </trkpt>
      <trkpt lat="49.17001" lon="6.80715">
        <ele>260</ele>
        <time>2020-01-21T13:18:55.000Z</time>
      </trkpt>
      <trkpt lat="49.16995" lon="6.80704">
        <ele>266</ele>
        <time>2020-01-21T13:19:05.000Z</time>
      </trkpt>
      <trkpt lat="49.16992" lon="6.80695">
        <ele>266</ele>
        <time>2020-01-21T13:19:15.000Z</time>
      </trkpt>
      <trkpt lat="49.16986" lon="6.80679">
        <ele>265</ele>
        <time>2020-01-21T13:19:25.000Z</time>
      </trkpt>
      <trkpt lat="49.16982" lon="6.80667">
        <ele>265</ele>
        <time>2020-01-21T13:19:35.000Z</time>
      </trkpt>
      <trkpt lat="49.16979" lon="6.8065">
        <ele>267</ele>
        <time>2020-01-21T13:19:45.000Z</time>
      </trkpt>
      <trkpt lat="49.16976" lon="6.80625">
        <ele>268</ele>
        <time>2020-01-21T13:19:55.000Z</time>
      </trkpt>
      <trkpt lat="49.16975" lon="6.80604">
        <ele>267</ele>
        <time>2020-01-21T13:20:05.000Z</time>
      </trkpt>
      <trkpt lat="49.16977" lon="6.80583">
        <ele>267</ele>
        <time>2020-01-21T13:20:15.000Z</time>
      </trkpt>
      <trkpt lat="49.16976" lon="6.80567">
        <ele>268</ele>
        <time>2020-01-21T13:20:25.000Z</time>
      </trkpt>
      <trkpt lat="49.16974" lon="6.8055">
        <ele>268</ele>
        <time>2020-01-21T13:20:35.000Z</time>
      </trkpt>
      <trkpt lat="49.16975" lon="6.80547">
        <ele>268</ele>
        <time>2020-01-21T13:20:45.000Z</time>
      </trkpt>
      <trkpt lat="49.16978" lon="6.80546">
        <ele>268</ele>
        <time>2020-01-21T13:20:55.000Z</time>
      </trkpt>
      <trkpt lat="49.16977" lon="6.80545">
        <ele>268</ele>
        <time>2020-01-21T13:21:24.000Z</time>
      </trkpt>
      <trkpt lat="49.16984" lon="6.80545">
        <ele>268</ele>
        <time>2020-01-21T13:21:34.000Z</time>
      </trkpt>
      <trkpt lat="49.1698" lon="6.80546">
        <ele>268</ele>
        <time>2020-01-21T13:21:44.000Z</time>
      </trkpt>
      <trkpt lat="49.16981" lon="6.80545">
        <ele>268</ele>
        <time>2020-01-21T13:23:02.000Z</time>
      </trkpt>
      <trkpt lat="49.16991" lon="6.80545">
        <ele>268</ele>
        <time>2020-01-21T13:23:12.000Z</time>
      </trkpt>
      <trkpt lat="49.1699" lon="6.80544">
        <ele>268</ele>
        <time>2020-01-21T13:23:22.000Z</time>
      </trkpt>
      <trkpt lat="49.16985" lon="6.80531">
        <ele>268</ele>
        <time>2020-01-21T13:23:32.000Z</time>
      </trkpt>
      <trkpt lat="49.16986" lon="6.80519">
        <ele>269</ele>
        <time>2020-01-21T13:23:42.000Z</time>
      </trkpt>
      <trkpt lat="49.16984" lon="6.80505">
        <ele>269</ele>
        <time>2020-01-21T13:23:52.000Z</time>
      </trkpt>
      <trkpt lat="49.16983" lon="6.80492">
        <ele>271</ele>
        <time>2020-01-21T13:24:02.000Z</time>
      </trkpt>
      <trkpt lat="49.16982" lon="6.80474">
        <ele>272</ele>
        <time>2020-01-21T13:24:12.000Z</time>
      </trkpt>
      <trkpt lat="49.1698" lon="6.80461">
        <ele>273</ele>
        <time>2020-01-21T13:24:22.000Z</time>
      </trkpt>
      <trkpt lat="49.1698" lon="6.80448">
        <ele>273</ele>
        <time>2020-01-21T13:24:32.000Z</time>
      </trkpt>
      <trkpt lat="49.16974" lon="6.80425">
        <ele>274</ele>
        <time>2020-01-21T13:24:42.000Z</time>
      </trkpt>
      <trkpt lat="49.16969" lon="6.80412">
        <ele>277</ele>
        <time>2020-01-21T13:24:52.000Z</time>
      </trkpt>
      <trkpt lat="49.16962" lon="6.80398">
        <ele>278</ele>
        <time>2020-01-21T13:25:02.000Z</time>
      </trkpt>
      <trkpt lat="49.16955" lon="6.80381">
        <ele>278</ele>
        <time>2020-01-21T13:25:12.000Z</time>
      </trkpt>
      <trkpt lat="49.16949" lon="6.80367">
        <ele>279</ele>
        <time>2020-01-21T13:25:22.000Z</time>
      </trkpt>
      <trkpt lat="49.16944" lon="6.80351">
        <ele>280</ele>
        <time>2020-01-21T13:25:32.000Z</time>
      </trkpt>
      <trkpt lat="49.16934" lon="6.80332">
        <ele>283</ele>
        <time>2020-01-21T13:25:42.000Z</time>
      </trkpt>
      <trkpt lat="49.16929" lon="6.80322">
        <ele>283</ele>
        <time>2020-01-21T13:25:52.000Z</time>
      </trkpt>
      <trkpt lat="49.16923" lon="6.80309">
        <ele>283</ele>
        <time>2020-01-21T13:26:02.000Z</time>
      </trkpt>
      <trkpt lat="49.16914" lon="6.80299">
        <ele>288</ele>
        <time>2020-01-21T13:26:12.000Z</time>
      </trkpt>
      <trkpt lat="49.16902" lon="6.80287">
        <ele>288</ele>
        <time>2020-01-21T13:26:22.000Z</time>
      </trkpt>
      <trkpt lat="49.16897" lon="6.80274">
        <ele>289</ele>
        <time>2020-01-21T13:26:32.000Z</time>
      </trkpt>
      <trkpt lat="49.16889" lon="6.80254">
        <ele>289</ele>
        <time>2020-01-21T13:26:42.000Z</time>
      </trkpt>
      <trkpt lat="49.1688" lon="6.80238">
        <ele>291</ele>
        <time>2020-01-21T13:26:52.000Z</time>
      </trkpt>
      <trkpt lat="49.16874" lon="6.8023">
        <ele>292</ele>
        <time>2020-01-21T13:27:02.000Z</time>
      </trkpt>
      <trkpt lat="49.16862" lon="6.80214">
        <ele>292</ele>
        <time>2020-01-21T13:27:12.000Z</time>
      </trkpt>
      <trkpt lat="49.16853" lon="6.80202">
        <ele>293</ele>
        <time>2020-01-21T13:27:22.000Z</time>
      </trkpt>
      <trkpt lat="49.16847" lon="6.80188">
        <ele>294</ele>
        <time>2020-01-21T13:27:32.000Z</time>
      </trkpt>
      <trkpt lat="49.16843" lon="6.80177">
        <ele>294</ele>
        <time>2020-01-21T13:27:42.000Z</time>
      </trkpt>
      <trkpt lat="49.16838" lon="6.80155">
        <ele>296</ele>
        <time>2020-01-21T13:27:52.000Z</time>
      </trkpt>
      <trkpt lat="49.16831" lon="6.80135">
        <ele>300</ele>
        <time>2020-01-21T13:28:02.000Z</time>
      </trkpt>
      <trkpt lat="49.16827" lon="6.80122">
        <ele>300</ele>
        <time>2020-01-21T13:28:12.000Z</time>
      </trkpt>
      <trkpt lat="49.16823" lon="6.80101">
        <ele>300</ele>
        <time>2020-01-21T13:28:22.000Z</time>
      </trkpt>
      <trkpt lat="49.1682" lon="6.80081">
        <ele>301</ele>
        <time>2020-01-21T13:28:32.000Z</time>
      </trkpt>
      <trkpt lat="49.16815" lon="6.80062">
        <ele>303</ele>
        <time>2020-01-21T13:28:42.000Z</time>
      </trkpt>
      <trkpt lat="49.16812" lon="6.80044">
        <ele>304</ele>
        <time>2020-01-21T13:28:52.000Z</time>
      </trkpt>
      <trkpt lat="49.16811" lon="6.80031">
        <ele>304</ele>
        <time>2020-01-21T13:29:02.000Z</time>
      </trkpt>
      <trkpt lat="49.16808" lon="6.80017">
        <ele>304</ele>
        <time>2020-01-21T13:29:12.000Z</time>
      </trkpt>
      <trkpt lat="49.16801" lon="6.80001">
        <ele>305</ele>
        <time>2020-01-21T13:29:22.000Z</time>
      </trkpt>
      <trkpt lat="49.16798" lon="6.7999">
        <ele>306</ele>
        <time>2020-01-21T13:29:32.000Z</time>
      </trkpt>
      <trkpt lat="49.16796" lon="6.79981">
        <ele>306</ele>
        <time>2020-01-21T13:29:42.000Z</time>
      </trkpt>
      <trkpt lat="49.16793" lon="6.79967">
        <ele>306</ele>
        <time>2020-01-21T13:29:52.000Z</time>
      </trkpt>
      <trkpt lat="49.16789" lon="6.79944">
        <ele>307</ele>
        <time>2020-01-21T13:30:02.000Z</time>
      </trkpt>
      <trkpt lat="49.16787" lon="6.79918">
        <ele>307</ele>
        <time>2020-01-21T13:30:12.000Z</time>
      </trkpt>
      <trkpt lat="49.16787" lon="6.79905">
        <ele>307</ele>
        <time>2020-01-21T13:30:22.000Z</time>
      </trkpt>
      <trkpt lat="49.16791" lon="6.79889">
        <ele>308</ele>
        <time>2020-01-21T13:30:32.000Z</time>
      </trkpt>
      <trkpt lat="49.16796" lon="6.79872">
        <ele>308</ele>
        <time>2020-01-21T13:30:42.000Z</time>
      </trkpt>
      <trkpt lat="49.16799" lon="6.7986">
        <ele>308</ele>
        <time>2020-01-21T13:30:52.000Z</time>
      </trkpt>
      <trkpt lat="49.16804" lon="6.79836">
        <ele>307</ele>
        <time>2020-01-21T13:31:02.000Z</time>
      </trkpt>
      <trkpt lat="49.16807" lon="6.79826">
        <ele>309</ele>
        <time>2020-01-21T13:31:12.000Z</time>
      </trkpt>
      <trkpt lat="49.16813" lon="6.79811">
        <ele>310</ele>
        <time>2020-01-21T13:31:22.000Z</time>
      </trkpt>
      <trkpt lat="49.16817" lon="6.798">
        <ele>310</ele>
        <time>2020-01-21T13:31:32.000Z</time>
      </trkpt>
      <trkpt lat="49.16823" lon="6.79794">
        <ele>310</ele>
        <time>2020-01-21T13:31:42.000Z</time>
      </trkpt>
      <trkpt lat="49.16829" lon="6.79787">
        <ele>310</ele>
        <time>2020-01-21T13:31:52.000Z</time>
      </trkpt>
      <trkpt lat="49.16833" lon="6.79776">
        <ele>309</ele>
        <time>2020-01-21T13:32:02.000Z</time>
      </trkpt>
      <trkpt lat="49.16831" lon="6.79762">
        <ele>308</ele>
        <time>2020-01-21T13:32:12.000Z</time>
      </trkpt>
      <trkpt lat="49.16826" lon="6.79752">
        <ele>308</ele>
        <time>2020-01-21T13:32:22.000Z</time>
      </trkpt>
      <trkpt lat="49.16818" lon="6.79737">
        <ele>311</ele>
        <time>2020-01-21T13:32:32.000Z</time>
      </trkpt>
      <trkpt lat="49.16811" lon="6.79724">
        <ele>312</ele>
        <time>2020-01-21T13:32:42.000Z</time>
      </trkpt>
      <trkpt lat="49.16804" lon="6.79712">
        <ele>313</ele>
        <time>2020-01-21T13:32:52.000Z</time>
      </trkpt>
      <trkpt lat="49.16794" lon="6.79695">
        <ele>314</ele>
        <time>2020-01-21T13:33:02.000Z</time>
      </trkpt>
      <trkpt lat="49.16786" lon="6.79681">
        <ele>315</ele>
        <time>2020-01-21T13:33:12.000Z</time>
      </trkpt>
      <trkpt lat="49.16778" lon="6.79669">
        <ele>316</ele>
        <time>2020-01-21T13:33:22.000Z</time>
      </trkpt>
      <trkpt lat="49.16769" lon="6.79655">
        <ele>315</ele>
        <time>2020-01-21T13:33:32.000Z</time>
      </trkpt>
      <trkpt lat="49.16762" lon="6.79641">
        <ele>314</ele>
        <time>2020-01-21T13:33:42.000Z</time>
      </trkpt>
      <trkpt lat="49.16756" lon="6.79625">
        <ele>313</ele>
        <time>2020-01-21T13:33:52.000Z</time>
      </trkpt>
      <trkpt lat="49.16749" lon="6.79612">
        <ele>318</ele>
        <time>2020-01-21T13:34:02.000Z</time>
      </trkpt>
      <trkpt lat="49.16742" lon="6.796">
        <ele>317</ele>
        <time>2020-01-21T13:34:12.000Z</time>
      </trkpt>
      <trkpt lat="49.16735" lon="6.79587">
        <ele>317</ele>
        <time>2020-01-21T13:34:22.000Z</time>
      </trkpt>
      <trkpt lat="49.16729" lon="6.79574">
        <ele>315</ele>
        <time>2020-01-21T13:34:32.000Z</time>
      </trkpt>
      <trkpt lat="49.16722" lon="6.79564">
        <ele>315</ele>
        <time>2020-01-21T13:34:42.000Z</time>
      </trkpt>
      <trkpt lat="49.16714" lon="6.79552">
        <ele>315</ele>
        <time>2020-01-21T13:34:52.000Z</time>
      </trkpt>
      <trkpt lat="49.16706" lon="6.79541">
        <ele>315</ele>
        <time>2020-01-21T13:35:02.000Z</time>
      </trkpt>
      <trkpt lat="49.16698" lon="6.79531">
        <ele>315</ele>
        <time>2020-01-21T13:35:12.000Z</time>
      </trkpt>
      <trkpt lat="49.1669" lon="6.79524">
        <ele>315</ele>
        <time>2020-01-21T13:35:22.000Z</time>
      </trkpt>
      <trkpt lat="49.16681" lon="6.79513">
        <ele>316</ele>
        <time>2020-01-21T13:35:32.000Z</time>
      </trkpt>
      <trkpt lat="49.16671" lon="6.79503">
        <ele>317</ele>
        <time>2020-01-21T13:35:41.001Z</time>
      </trkpt>
      <trkpt lat="49.1666" lon="6.79494">
        <ele>316</ele>
        <time>2020-01-21T13:35:51.001Z</time>
      </trkpt>
      <trkpt lat="49.16649" lon="6.79483">
        <ele>315</ele>
        <time>2020-01-21T13:36:01.001Z</time>
      </trkpt>
      <trkpt lat="49.16639" lon="6.79476">
        <ele>314</ele>
        <time>2020-01-21T13:36:11.001Z</time>
      </trkpt>
      <trkpt lat="49.16631" lon="6.79468">
        <ele>314</ele>
        <time>2020-01-21T13:36:21.001Z</time>
      </trkpt>
      <trkpt lat="49.16622" lon="6.79457">
        <ele>313</ele>
        <time>2020-01-21T13:36:31.001Z</time>
      </trkpt>
      <trkpt lat="49.16612" lon="6.79444">
        <ele>313</ele>
        <time>2020-01-21T13:36:41.001Z</time>
      </trkpt>
      <trkpt lat="49.16604" lon="6.79428">
        <ele>314</ele>
        <time>2020-01-21T13:36:51.001Z</time>
      </trkpt>
      <trkpt lat="49.16598" lon="6.79411">
        <ele>314</ele>
        <time>2020-01-21T13:37:01.001Z</time>
      </trkpt>
      <trkpt lat="49.16595" lon="6.79391">
        <ele>314</ele>
        <time>2020-01-21T13:37:11.001Z</time>
      </trkpt>
      <trkpt lat="49.16594" lon="6.79372">
        <ele>314</ele>
        <time>2020-01-21T13:37:21.001Z</time>
      </trkpt>
      <trkpt lat="49.16591" lon="6.79353">
        <ele>315</ele>
        <time>2020-01-21T13:37:31.001Z</time>
      </trkpt>
      <trkpt lat="49.16584" lon="6.79335">
        <ele>318</ele>
        <time>2020-01-21T13:37:41.001Z</time>
      </trkpt>
      <trkpt lat="49.16578" lon="6.79321">
        <ele>318</ele>
        <time>2020-01-21T13:37:51.001Z</time>
      </trkpt>
      <trkpt lat="49.16574" lon="6.79308">
        <ele>319</ele>
        <time>2020-01-21T13:38:01.001Z</time>
      </trkpt>
      <trkpt lat="49.16571" lon="6.79294">
        <ele>319</ele>
        <time>2020-01-21T13:38:11.001Z</time>
      </trkpt>
      <trkpt lat="49.16567" lon="6.7928">
        <ele>320</ele>
        <time>2020-01-21T13:38:21.001Z</time>
      </trkpt>
      <trkpt lat="49.16564" lon="6.79264">
        <ele>320</ele>
        <time>2020-01-21T13:38:31.001Z</time>
      </trkpt>
      <trkpt lat="49.16561" lon="6.79247">
        <ele>321</ele>
        <time>2020-01-21T13:38:41.001Z</time>
      </trkpt>
      <trkpt lat="49.16558" lon="6.79226">
        <ele>321</ele>
        <time>2020-01-21T13:38:51.001Z</time>
      </trkpt>
      <trkpt lat="49.16555" lon="6.79202">
        <ele>322</ele>
        <time>2020-01-21T13:39:01.001Z</time>
      </trkpt>
      <trkpt lat="49.16553" lon="6.79183">
        <ele>322</ele>
        <time>2020-01-21T13:39:11.001Z</time>
      </trkpt>
      <trkpt lat="49.1655" lon="6.79164">
        <ele>318</ele>
        <time>2020-01-21T13:39:21.001Z</time>
      </trkpt>
      <trkpt lat="49.16546" lon="6.79147">
        <ele>317</ele>
        <time>2020-01-21T13:39:31.001Z</time>
      </trkpt>
      <trkpt lat="49.16544" lon="6.79131">
        <ele>315</ele>
        <time>2020-01-21T13:39:41.001Z</time>
      </trkpt>
      <trkpt lat="49.16541" lon="6.79112">
        <ele>314</ele>
        <time>2020-01-21T13:39:51.001Z</time>
      </trkpt>
      <trkpt lat="49.16536" lon="6.79095">
        <ele>311</ele>
        <time>2020-01-21T13:40:01.001Z</time>
      </trkpt>
      <trkpt lat="49.16538" lon="6.79085">
        <ele>311</ele>
        <time>2020-01-21T13:40:11.001Z</time>
      </trkpt>
      <trkpt lat="49.16541" lon="6.79079">
        <ele>295</ele>
        <time>2020-01-21T13:40:21.001Z</time>
      </trkpt>
      <trkpt lat="49.16539" lon="6.79072">
        <ele>294</ele>
        <time>2020-01-21T13:40:31.001Z</time>
      </trkpt>
      <trkpt lat="49.16537" lon="6.79069">
        <ele>293</ele>
        <time>2020-01-21T13:40:41.001Z</time>
      </trkpt>
      <trkpt lat="49.16536" lon="6.79068">
        <ele>292</ele>
        <time>2020-01-21T13:40:51.001Z</time>
      </trkpt>
      <trkpt lat="49.16537" lon="6.79068">
        <ele>293</ele>
        <time>2020-01-21T13:43:19.001Z</time>
      </trkpt>
      <trkpt lat="49.16539" lon="6.79067">
        <ele>293</ele>
        <time>2020-01-21T13:43:55.001Z</time>
      </trkpt>
      <trkpt lat="49.16546" lon="6.79057">
        <ele>293</ele>
        <time>2020-01-21T13:44:05.001Z</time>
      </trkpt>
      <trkpt lat="49.16556" lon="6.79044">
        <ele>293</ele>
        <time>2020-01-21T13:44:15.001Z</time>
      </trkpt>
      <trkpt lat="49.16567" lon="6.79035">
        <ele>294</ele>
        <time>2020-01-21T13:44:25.001Z</time>
      </trkpt>
      <trkpt lat="49.16575" lon="6.79028">
        <ele>294</ele>
        <time>2020-01-21T13:44:35.001Z</time>
      </trkpt>
      <trkpt lat="49.16587" lon="6.79016">
        <ele>308</ele>
        <time>2020-01-21T13:44:45.001Z</time>
      </trkpt>
      <trkpt lat="49.16596" lon="6.79004">
        <ele>307</ele>
        <time>2020-01-21T13:44:55.001Z</time>
      </trkpt>
      <trkpt lat="49.16601" lon="6.78991">
        <ele>298</ele>
        <time>2020-01-21T13:45:05.001Z</time>
      </trkpt>
      <trkpt lat="49.16607" lon="6.78978">
        <ele>296</ele>
        <time>2020-01-21T13:45:15.001Z</time>
      </trkpt>
      <trkpt lat="49.16613" lon="6.7896">
        <ele>294</ele>
        <time>2020-01-21T13:45:25.001Z</time>
      </trkpt>
      <trkpt lat="49.16619" lon="6.78941">
        <ele>291</ele>
        <time>2020-01-21T13:45:35.001Z</time>
      </trkpt>
      <trkpt lat="49.16623" lon="6.78923">
        <ele>290</ele>
        <time>2020-01-21T13:45:45.001Z</time>
      </trkpt>
      <trkpt lat="49.16626" lon="6.78904">
        <ele>276</ele>
        <time>2020-01-21T13:45:55.001Z</time>
      </trkpt>
      <trkpt lat="49.16631" lon="6.78885">
        <ele>276</ele>
        <time>2020-01-21T13:46:05.001Z</time>
      </trkpt>
      <trkpt lat="49.16636" lon="6.78866">
        <ele>276</ele>
        <time>2020-01-21T13:46:15.001Z</time>
      </trkpt>
      <trkpt lat="49.1664" lon="6.78848">
        <ele>277</ele>
        <time>2020-01-21T13:46:25.001Z</time>
      </trkpt>
      <trkpt lat="49.16644" lon="6.7883">
        <ele>272</ele>
        <time>2020-01-21T13:46:35.001Z</time>
      </trkpt>
      <trkpt lat="49.16649" lon="6.78813">
        <ele>271</ele>
        <time>2020-01-21T13:46:45.001Z</time>
      </trkpt>
      <trkpt lat="49.16655" lon="6.78796">
        <ele>269</ele>
        <time>2020-01-21T13:46:55.001Z</time>
      </trkpt>
      <trkpt lat="49.16659" lon="6.7878">
        <ele>270</ele>
        <time>2020-01-21T13:47:05.001Z</time>
      </trkpt>
      <trkpt lat="49.16664" lon="6.78762">
        <ele>275</ele>
        <time>2020-01-21T13:47:15.001Z</time>
      </trkpt>
      <trkpt lat="49.16669" lon="6.78744">
        <ele>287</ele>
        <time>2020-01-21T13:47:25.001Z</time>
      </trkpt>
      <trkpt lat="49.16676" lon="6.78727">
        <ele>289</ele>
        <time>2020-01-21T13:47:35.001Z</time>
      </trkpt>
      <trkpt lat="49.16682" lon="6.78711">
        <ele>289</ele>
        <time>2020-01-21T13:47:45.001Z</time>
      </trkpt>
      <trkpt lat="49.16689" lon="6.78694">
        <ele>287</ele>
        <time>2020-01-21T13:47:55.001Z</time>
      </trkpt>
      <trkpt lat="49.16696" lon="6.78678">
        <ele>286</ele>
        <time>2020-01-21T13:48:05.001Z</time>
      </trkpt>
      <trkpt lat="49.16704" lon="6.78662">
        <ele>276</ele>
        <time>2020-01-21T13:48:15.001Z</time>
      </trkpt>
      <trkpt lat="49.16713" lon="6.78654">
        <ele>280</ele>
        <time>2020-01-21T13:48:25.001Z</time>
      </trkpt>
      <trkpt lat="49.1672" lon="6.78639">
        <ele>280</ele>
        <time>2020-01-21T13:48:35.001Z</time>
      </trkpt>
      <trkpt lat="49.16726" lon="6.78626">
        <ele>279</ele>
        <time>2020-01-21T13:48:45.001Z</time>
      </trkpt>
      <trkpt lat="49.16729" lon="6.78612">
        <ele>278</ele>
        <time>2020-01-21T13:48:55.001Z</time>
      </trkpt>
      <trkpt lat="49.16731" lon="6.78594">
        <ele>278</ele>
        <time>2020-01-21T13:49:05.001Z</time>
      </trkpt>
      <trkpt lat="49.16737" lon="6.78579">
        <ele>271</ele>
        <time>2020-01-21T13:49:15.001Z</time>
      </trkpt>
      <trkpt lat="49.16743" lon="6.78561">
        <ele>265</ele>
        <time>2020-01-21T13:49:25.001Z</time>
      </trkpt>
      <trkpt lat="49.16751" lon="6.78546">
        <ele>282</ele>
        <time>2020-01-21T13:49:35.001Z</time>
      </trkpt>
      <trkpt lat="49.16756" lon="6.78531">
        <ele>280</ele>
        <time>2020-01-21T13:49:45.001Z</time>
      </trkpt>
      <trkpt lat="49.16762" lon="6.78516">
        <ele>276</ele>
        <time>2020-01-21T13:49:55.001Z</time>
      </trkpt>
      <trkpt lat="49.16767" lon="6.785">
        <ele>270</ele>
        <time>2020-01-21T13:50:05.001Z</time>
      </trkpt>
      <trkpt lat="49.16773" lon="6.78482">
        <ele>272</ele>
        <time>2020-01-21T13:50:15.001Z</time>
      </trkpt>
      <trkpt lat="49.16778" lon="6.78466">
        <ele>274</ele>
        <time>2020-01-21T13:50:25.001Z</time>
      </trkpt>
      <trkpt lat="49.16781" lon="6.78452">
        <ele>274</ele>
        <time>2020-01-21T13:50:35.001Z</time>
      </trkpt>
      <trkpt lat="49.1678" lon="6.78446">
        <ele>273</ele>
        <time>2020-01-21T13:50:45.001Z</time>
      </trkpt>
      <trkpt lat="49.16781" lon="6.78447">
        <ele>273</ele>
        <time>2020-01-21T13:51:08.001Z</time>
      </trkpt>
      <trkpt lat="49.16783" lon="6.78434">
        <ele>273</ele>
        <time>2020-01-21T13:51:18.001Z</time>
      </trkpt>
      <trkpt lat="49.16786" lon="6.78419">
        <ele>273</ele>
        <time>2020-01-21T13:51:28.001Z</time>
      </trkpt>
      <trkpt lat="49.16788" lon="6.78403">
        <ele>268</ele>
        <time>2020-01-21T13:51:38.001Z</time>
      </trkpt>
      <trkpt lat="49.16792" lon="6.78375">
        <ele>268</ele>
        <time>2020-01-21T13:51:48.001Z</time>
      </trkpt>
      <trkpt lat="49.16793" lon="6.78355">
        <ele>267</ele>
        <time>2020-01-21T13:51:58.001Z</time>
      </trkpt>
      <trkpt lat="49.16795" lon="6.78334">
        <ele>267</ele>
        <time>2020-01-21T13:52:08.001Z</time>
      </trkpt>
      <trkpt lat="49.16799" lon="6.78313">
        <ele>263</ele>
        <time>2020-01-21T13:52:18.001Z</time>
      </trkpt>
      <trkpt lat="49.16804" lon="6.78296">
        <ele>264</ele>
        <time>2020-01-21T13:52:28.001Z</time>
      </trkpt>
      <trkpt lat="49.16807" lon="6.7828">
        <ele>264</ele>
        <time>2020-01-21T13:52:38.001Z</time>
      </trkpt>
      <trkpt lat="49.1681" lon="6.78265">
        <ele>265</ele>
        <time>2020-01-21T13:52:48.001Z</time>
      </trkpt>
      <trkpt lat="49.16812" lon="6.78249">
        <ele>264</ele>
        <time>2020-01-21T13:52:58.001Z</time>
      </trkpt>
      <trkpt lat="49.16814" lon="6.78233">
        <ele>263</ele>
        <time>2020-01-21T13:53:08.001Z</time>
      </trkpt>
      <trkpt lat="49.16814" lon="6.78214">
        <ele>261</ele>
        <time>2020-01-21T13:53:18.001Z</time>
      </trkpt>
      <trkpt lat="49.16814" lon="6.78197">
        <ele>260</ele>
        <time>2020-01-21T13:53:28.001Z</time>
      </trkpt>
      <trkpt lat="49.16815" lon="6.7818">
        <ele>261</ele>
        <time>2020-01-21T13:53:38.001Z</time>
      </trkpt>
      <trkpt lat="49.16817" lon="6.78163">
        <ele>260</ele>
        <time>2020-01-21T13:53:48.001Z</time>
      </trkpt>
      <trkpt lat="49.16819" lon="6.78145">
        <ele>257</ele>
        <time>2020-01-21T13:53:58.001Z</time>
      </trkpt>
      <trkpt lat="49.16822" lon="6.78128">
        <ele>255</ele>
        <time>2020-01-21T13:54:08.001Z</time>
      </trkpt>
      <trkpt lat="49.16825" lon="6.78108">
        <ele>255</ele>
        <time>2020-01-21T13:54:18.001Z</time>
      </trkpt>
      <trkpt lat="49.16828" lon="6.78092">
        <ele>259</ele>
        <time>2020-01-21T13:54:28.001Z</time>
      </trkpt>
      <trkpt lat="49.16829" lon="6.78075">
        <ele>258</ele>
        <time>2020-01-21T13:54:38.001Z</time>
      </trkpt>
      <trkpt lat="49.1683" lon="6.78059">
        <ele>254</ele>
        <time>2020-01-21T13:54:48.001Z</time>
      </trkpt>
      <trkpt lat="49.16829" lon="6.78041">
        <ele>252</ele>
        <time>2020-01-21T13:54:58.001Z</time>
      </trkpt>
      <trkpt lat="49.16828" lon="6.78026">
        <ele>253</ele>
        <time>2020-01-21T13:55:08.001Z</time>
      </trkpt>
      <trkpt lat="49.16826" lon="6.7801">
        <ele>257</ele>
        <time>2020-01-21T13:55:18.001Z</time>
      </trkpt>
      <trkpt lat="49.16825" lon="6.77998">
        <ele>259</ele>
        <time>2020-01-21T13:55:28.001Z</time>
      </trkpt>
      <trkpt lat="49.16824" lon="6.77982">
        <ele>255</ele>
        <time>2020-01-21T13:55:38.001Z</time>
      </trkpt>
      <trkpt lat="49.16823" lon="6.77966">
        <ele>253</ele>
        <time>2020-01-21T13:55:48.001Z</time>
      </trkpt>
      <trkpt lat="49.16821" lon="6.77952">
        <ele>253</ele>
        <time>2020-01-21T13:55:58.001Z</time>
      </trkpt>
      <trkpt lat="49.16818" lon="6.77937">
        <ele>254</ele>
        <time>2020-01-21T13:56:08.001Z</time>
      </trkpt>
      <trkpt lat="49.16814" lon="6.77921">
        <ele>255</ele>
        <time>2020-01-21T13:56:18.001Z</time>
      </trkpt>
      <trkpt lat="49.16809" lon="6.77906">
        <ele>255</ele>
        <time>2020-01-21T13:56:28.001Z</time>
      </trkpt>
      <trkpt lat="49.16804" lon="6.77892">
        <ele>253</ele>
        <time>2020-01-21T13:56:38.001Z</time>
      </trkpt>
      <trkpt lat="49.168" lon="6.77877">
        <ele>252</ele>
        <time>2020-01-21T13:56:48.001Z</time>
      </trkpt>
      <trkpt lat="49.16796" lon="6.7786">
        <ele>252</ele>
        <time>2020-01-21T13:56:58.001Z</time>
      </trkpt>
      <trkpt lat="49.16791" lon="6.77847">
        <ele>251</ele>
        <time>2020-01-21T13:57:08.001Z</time>
      </trkpt>
      <trkpt lat="49.16788" lon="6.77834">
        <ele>251</ele>
        <time>2020-01-21T13:57:18.001Z</time>
      </trkpt>
      <trkpt lat="49.16783" lon="6.7782">
        <ele>250</ele>
        <time>2020-01-21T13:57:28.001Z</time>
      </trkpt>
      <trkpt lat="49.1678" lon="6.77806">
        <ele>249</ele>
        <time>2020-01-21T13:57:38.001Z</time>
      </trkpt>
      <trkpt lat="49.16778" lon="6.77795">
        <ele>249</ele>
        <time>2020-01-21T13:57:48.001Z</time>
      </trkpt>
      <trkpt lat="49.16776" lon="6.7778">
        <ele>248</ele>
        <time>2020-01-21T13:57:58.001Z</time>
      </trkpt>
      <trkpt lat="49.16772" lon="6.77765">
        <ele>247</ele>
        <time>2020-01-21T13:58:08.001Z</time>
      </trkpt>
      <trkpt lat="49.16769" lon="6.7775">
        <ele>245</ele>
        <time>2020-01-21T13:58:18.001Z</time>
      </trkpt>
      <trkpt lat="49.16767" lon="6.77735">
        <ele>245</ele>
        <time>2020-01-21T13:58:28.001Z</time>
      </trkpt>
      <trkpt lat="49.16763" lon="6.7772">
        <ele>246</ele>
        <time>2020-01-21T13:58:38.001Z</time>
      </trkpt>
      <trkpt lat="49.16763" lon="6.77705">
        <ele>246</ele>
        <time>2020-01-21T13:58:48.001Z</time>
      </trkpt>
      <trkpt lat="49.16762" lon="6.77688">
        <ele>245</ele>
        <time>2020-01-21T13:58:58.001Z</time>
      </trkpt>
      <trkpt lat="49.16762" lon="6.77673">
        <ele>243</ele>
        <time>2020-01-21T13:59:08.001Z</time>
      </trkpt>
      <trkpt lat="49.16761" lon="6.77656">
        <ele>243</ele>
        <time>2020-01-21T13:59:18.001Z</time>
      </trkpt>
      <trkpt lat="49.1676" lon="6.77639">
        <ele>245</ele>
        <time>2020-01-21T13:59:28.001Z</time>
      </trkpt>
      <trkpt lat="49.16758" lon="6.7762">
        <ele>245</ele>
        <time>2020-01-21T13:59:38.001Z</time>
      </trkpt>
      <trkpt lat="49.16756" lon="6.77602">
        <ele>244</ele>
        <time>2020-01-21T13:59:48.001Z</time>
      </trkpt>
      <trkpt lat="49.16755" lon="6.77584">
        <ele>241</ele>
        <time>2020-01-21T13:59:58.001Z</time>
      </trkpt>
      <trkpt lat="49.16754" lon="6.77569">
        <ele>243</ele>
        <time>2020-01-21T14:00:08.001Z</time>
      </trkpt>
      <trkpt lat="49.16751" lon="6.77551">
        <ele>243</ele>
        <time>2020-01-21T14:00:18.001Z</time>
      </trkpt>
      <trkpt lat="49.16743" lon="6.77536">
        <ele>236</ele>
        <time>2020-01-21T14:00:28.001Z</time>
      </trkpt>
      <trkpt lat="49.16736" lon="6.7753">
        <ele>236</ele>
        <time>2020-01-21T14:00:38.001Z</time>
      </trkpt>
      <trkpt lat="49.16727" lon="6.77524">
        <ele>236</ele>
        <time>2020-01-21T14:00:48.001Z</time>
      </trkpt>
      <trkpt lat="49.16716" lon="6.77523">
        <ele>235</ele>
        <time>2020-01-21T14:00:58.001Z</time>
      </trkpt>
      <trkpt lat="49.16708" lon="6.77528">
        <ele>235</ele>
        <time>2020-01-21T14:01:08.001Z</time>
      </trkpt>
      <trkpt lat="49.16702" lon="6.77533">
        <ele>234</ele>
        <time>2020-01-21T14:01:18.001Z</time>
      </trkpt>
      <trkpt lat="49.16699" lon="6.77535">
        <ele>234</ele>
        <time>2020-01-21T14:01:28.001Z</time>
      </trkpt>
      <trkpt lat="49.16702" lon="6.77534">
        <ele>234</ele>
        <time>2020-01-21T14:01:38.001Z</time>
      </trkpt>
      <trkpt lat="49.16703" lon="6.77533">
        <ele>234</ele>
        <time>2020-01-21T14:01:57.001Z</time>
      </trkpt>
      <trkpt lat="49.16702" lon="6.77534">
        <ele>234</ele>
        <time>2020-01-21T14:02:07.001Z</time>
      </trkpt>
      <trkpt lat="49.16693" lon="6.7752">
        <ele>234</ele>
        <time>2020-01-21T14:02:17.001Z</time>
      </trkpt>
      <trkpt lat="49.16684" lon="6.77505">
        <ele>234</ele>
        <time>2020-01-21T14:02:27.001Z</time>
      </trkpt>
      <trkpt lat="49.16678" lon="6.77493">
        <ele>235</ele>
        <time>2020-01-21T14:02:37.001Z</time>
      </trkpt>
      <trkpt lat="49.16672" lon="6.77477">
        <ele>235</ele>
        <time>2020-01-21T14:02:47.001Z</time>
      </trkpt>
      <trkpt lat="49.16665" lon="6.77462">
        <ele>235</ele>
        <time>2020-01-21T14:02:57.001Z</time>
      </trkpt>
      <trkpt lat="49.16657" lon="6.77444">
        <ele>235</ele>
        <time>2020-01-21T14:03:07.001Z</time>
      </trkpt>
      <trkpt lat="49.16649" lon="6.77419">
        <ele>236</ele>
        <time>2020-01-21T14:03:17.001Z</time>
      </trkpt>
      <trkpt lat="49.16641" lon="6.77399">
        <ele>237</ele>
        <time>2020-01-21T14:03:27.001Z</time>
      </trkpt>
      <trkpt lat="49.16634" lon="6.77383">
        <ele>237</ele>
        <time>2020-01-21T14:03:37.001Z</time>
      </trkpt>
      <trkpt lat="49.16629" lon="6.77365">
        <ele>237</ele>
        <time>2020-01-21T14:03:47.001Z</time>
      </trkpt>
      <trkpt lat="49.16622" lon="6.77348">
        <ele>237</ele>
        <time>2020-01-21T14:03:57.001Z</time>
      </trkpt>
      <trkpt lat="49.16614" lon="6.77332">
        <ele>237</ele>
        <time>2020-01-21T14:04:07.001Z</time>
      </trkpt>
      <trkpt lat="49.16605" lon="6.77315">
        <ele>237</ele>
        <time>2020-01-21T14:04:17.001Z</time>
      </trkpt>
      <trkpt lat="49.16595" lon="6.77303">
        <ele>236</ele>
        <time>2020-01-21T14:04:27.001Z</time>
      </trkpt>
      <trkpt lat="49.16593" lon="6.77294">
        <ele>236</ele>
        <time>2020-01-21T14:04:37.001Z</time>
      </trkpt>
      <trkpt lat="49.16591" lon="6.77298">
        <ele>236</ele>
        <time>2020-01-21T14:04:47.001Z</time>
      </trkpt>
      <trkpt lat="49.16582" lon="6.77293">
        <ele>236</ele>
        <time>2020-01-21T14:04:57.001Z</time>
      </trkpt>
      <trkpt lat="49.16573" lon="6.77287">
        <ele>236</ele>
        <time>2020-01-21T14:05:07.001Z</time>
      </trkpt>
      <trkpt lat="49.16565" lon="6.7728">
        <ele>236</ele>
        <time>2020-01-21T14:05:17.001Z</time>
      </trkpt>
      <trkpt lat="49.16557" lon="6.77275">
        <ele>237</ele>
        <time>2020-01-21T14:05:27.001Z</time>
      </trkpt>
      <trkpt lat="49.16549" lon="6.77273">
        <ele>237</ele>
        <time>2020-01-21T14:05:37.001Z</time>
      </trkpt>
      <trkpt lat="49.16544" lon="6.77271">
        <ele>237</ele>
        <time>2020-01-21T14:05:47.001Z</time>
      </trkpt>
      <trkpt lat="49.16544" lon="6.77268">
        <ele>237</ele>
        <time>2020-01-21T14:05:57.001Z</time>
      </trkpt>
      <trkpt lat="49.16544" lon="6.77266">
        <ele>237</ele>
        <time>2020-01-21T14:06:44.001Z</time>
      </trkpt>
      <trkpt lat="49.16544" lon="6.77265">
        <ele>237</ele>
        <time>2020-01-21T14:06:56.001Z</time>
      </trkpt>
      <trkpt lat="49.16542" lon="6.77265">
        <ele>237</ele>
        <time>2020-01-21T14:07:47.001Z</time>
      </trkpt>
      <trkpt lat="49.16531" lon="6.77265">
        <ele>238</ele>
        <time>2020-01-21T14:07:57.001Z</time>
      </trkpt>
      <trkpt lat="49.16521" lon="6.7726">
        <ele>238</ele>
        <time>2020-01-21T14:08:07.001Z</time>
      </trkpt>
      <trkpt lat="49.16512" lon="6.77252">
        <ele>239</ele>
        <time>2020-01-21T14:08:17.001Z</time>
      </trkpt>
      <trkpt lat="49.165" lon="6.77244">
        <ele>240</ele>
        <time>2020-01-21T14:08:27.001Z</time>
      </trkpt>
      <trkpt lat="49.16484" lon="6.77236">
        <ele>238</ele>
        <time>2020-01-21T14:08:37.001Z</time>
      </trkpt>
      <trkpt lat="49.16471" lon="6.7723">
        <ele>237</ele>
        <time>2020-01-21T14:08:47.001Z</time>
      </trkpt>
      <trkpt lat="49.16461" lon="6.77219">
        <ele>237</ele>
        <time>2020-01-21T14:08:57.001Z</time>
      </trkpt>
      <trkpt lat="49.16449" lon="6.77211">
        <ele>237</ele>
        <time>2020-01-21T14:09:07.001Z</time>
      </trkpt>
      <trkpt lat="49.16436" lon="6.77203">
        <ele>236</ele>
        <time>2020-01-21T14:09:17.001Z</time>
      </trkpt>
      <trkpt lat="49.16425" lon="6.77196">
        <ele>236</ele>
        <time>2020-01-21T14:09:27.001Z</time>
      </trkpt>
      <trkpt lat="49.16419" lon="6.77192">
        <ele>236</ele>
        <time>2020-01-21T14:09:37.001Z</time>
      </trkpt>
      <trkpt lat="49.16419" lon="6.77196">
        <ele>236</ele>
        <time>2020-01-21T14:09:47.001Z</time>
      </trkpt>
      <trkpt lat="49.16413" lon="6.77202">
        <ele>237</ele>
        <time>2020-01-21T14:09:57.001Z</time>
      </trkpt>
      <trkpt lat="49.16401" lon="6.772">
        <ele>237</ele>
        <time>2020-01-21T14:10:07.001Z</time>
      </trkpt>
      <trkpt lat="49.16389" lon="6.77193">
        <ele>237</ele>
        <time>2020-01-21T14:10:17.001Z</time>
      </trkpt>
      <trkpt lat="49.16378" lon="6.77186">
        <ele>237</ele>
        <time>2020-01-21T14:10:27.001Z</time>
      </trkpt>
      <trkpt lat="49.16359" lon="6.77175">
        <ele>238</ele>
        <time>2020-01-21T14:10:37.001Z</time>
      </trkpt>
      <trkpt lat="49.16348" lon="6.77166">
        <ele>238</ele>
        <time>2020-01-21T14:10:47.001Z</time>
      </trkpt>
      <trkpt lat="49.16336" lon="6.77156">
        <ele>238</ele>
        <time>2020-01-21T14:10:57.001Z</time>
      </trkpt>
      <trkpt lat="49.16325" lon="6.77145">
        <ele>239</ele>
        <time>2020-01-21T14:11:07.001Z</time>
      </trkpt>
      <trkpt lat="49.16314" lon="6.77135">
        <ele>239</ele>
        <time>2020-01-21T14:11:17.001Z</time>
      </trkpt>
      <trkpt lat="49.16304" lon="6.77126">
        <ele>239</ele>
        <time>2020-01-21T14:11:27.001Z</time>
      </trkpt>
      <trkpt lat="49.16294" lon="6.77115">
        <ele>239</ele>
        <time>2020-01-21T14:11:37.001Z</time>
      </trkpt>
      <trkpt lat="49.16286" lon="6.77113">
        <ele>239</ele>
        <time>2020-01-21T14:11:47.001Z</time>
      </trkpt>
      <trkpt lat="49.16279" lon="6.771">
        <ele>239</ele>
        <time>2020-01-21T14:11:57.001Z</time>
      </trkpt>
      <trkpt lat="49.16274" lon="6.77097">
        <ele>239</ele>
        <time>2020-01-21T14:12:07.001Z</time>
      </trkpt>
      <trkpt lat="49.16268" lon="6.77091">
        <ele>240</ele>
        <time>2020-01-21T14:12:17.001Z</time>
      </trkpt>
      <trkpt lat="49.16261" lon="6.77087">
        <ele>241</ele>
        <time>2020-01-21T14:12:27.001Z</time>
      </trkpt>
      <trkpt lat="49.1625" lon="6.77079">
        <ele>242</ele>
        <time>2020-01-21T14:12:37.001Z</time>
      </trkpt>
      <trkpt lat="49.16239" lon="6.77067">
        <ele>243</ele>
        <time>2020-01-21T14:12:47.001Z</time>
      </trkpt>
      <trkpt lat="49.16228" lon="6.77057">
        <ele>244</ele>
        <time>2020-01-21T14:12:57.001Z</time>
      </trkpt>
      <trkpt lat="49.16218" lon="6.77049">
        <ele>244</ele>
        <time>2020-01-21T14:13:07.001Z</time>
      </trkpt>
      <trkpt lat="49.16202" lon="6.77037">
        <ele>244</ele>
        <time>2020-01-21T14:13:17.001Z</time>
      </trkpt>
      <trkpt lat="49.16192" lon="6.77027">
        <ele>245</ele>
        <time>2020-01-21T14:13:27.001Z</time>
      </trkpt>
      <trkpt lat="49.16183" lon="6.77018">
        <ele>246</ele>
        <time>2020-01-21T14:13:37.001Z</time>
      </trkpt>
      <trkpt lat="49.16172" lon="6.77009">
        <ele>247</ele>
        <time>2020-01-21T14:13:47.001Z</time>
      </trkpt>
      <trkpt lat="49.16165" lon="6.77003">
        <ele>248</ele>
        <time>2020-01-21T14:13:57.001Z</time>
      </trkpt>
      <trkpt lat="49.16151" lon="6.7699">
        <ele>246</ele>
        <time>2020-01-21T14:14:07.001Z</time>
      </trkpt>
      <trkpt lat="49.1614" lon="6.7698">
        <ele>245</ele>
        <time>2020-01-21T14:14:17.001Z</time>
      </trkpt>
      <trkpt lat="49.16129" lon="6.76969">
        <ele>245</ele>
        <time>2020-01-21T14:14:27.001Z</time>
      </trkpt>
      <trkpt lat="49.16118" lon="6.76958">
        <ele>245</ele>
        <time>2020-01-21T14:14:37.001Z</time>
      </trkpt>
      <trkpt lat="49.16106" lon="6.76948">
        <ele>245</ele>
        <time>2020-01-21T14:14:47.001Z</time>
      </trkpt>
      <trkpt lat="49.16094" lon="6.76941">
        <ele>245</ele>
        <time>2020-01-21T14:14:57.001Z</time>
      </trkpt>
      <trkpt lat="49.16083" lon="6.76935">
        <ele>247</ele>
        <time>2020-01-21T14:15:07.001Z</time>
      </trkpt>
      <trkpt lat="49.16074" lon="6.76924">
        <ele>247</ele>
        <time>2020-01-21T14:15:17.001Z</time>
      </trkpt>
      <trkpt lat="49.16058" lon="6.76904">
        <ele>246</ele>
        <time>2020-01-21T14:15:27.001Z</time>
      </trkpt>
      <trkpt lat="49.16047" lon="6.7689">
        <ele>246</ele>
        <time>2020-01-21T14:15:37.001Z</time>
      </trkpt>
      <trkpt lat="49.1604" lon="6.76878">
        <ele>246</ele>
        <time>2020-01-21T14:15:47.001Z</time>
      </trkpt>
      <trkpt lat="49.16032" lon="6.76867">
        <ele>247</ele>
        <time>2020-01-21T14:15:57.001Z</time>
      </trkpt>
      <trkpt lat="49.16023" lon="6.76856">
        <ele>248</ele>
        <time>2020-01-21T14:16:07.001Z</time>
      </trkpt>
      <trkpt lat="49.16014" lon="6.76845">
        <ele>249</ele>
        <time>2020-01-21T14:16:17.001Z</time>
      </trkpt>
      <trkpt lat="49.16005" lon="6.76835">
        <ele>252</ele>
        <time>2020-01-21T14:16:27.001Z</time>
      </trkpt>
      <trkpt lat="49.15997" lon="6.76822">
        <ele>249</ele>
        <time>2020-01-21T14:16:37.001Z</time>
      </trkpt>
      <trkpt lat="49.15989" lon="6.76802">
        <ele>246</ele>
        <time>2020-01-21T14:16:47.001Z</time>
      </trkpt>
      <trkpt lat="49.15988" lon="6.76782">
        <ele>246</ele>
        <time>2020-01-21T14:16:57.001Z</time>
      </trkpt>
      <trkpt lat="49.15978" lon="6.76757">
        <ele>246</ele>
        <time>2020-01-21T14:17:07.001Z</time>
      </trkpt>
      <trkpt lat="49.15975" lon="6.76741">
        <ele>245</ele>
        <time>2020-01-21T14:17:17.001Z</time>
      </trkpt>
      <trkpt lat="49.15972" lon="6.76723">
        <ele>244</ele>
        <time>2020-01-21T14:17:27.001Z</time>
      </trkpt>
      <trkpt lat="49.15969" lon="6.76704">
        <ele>243</ele>
        <time>2020-01-21T14:17:37.001Z</time>
      </trkpt>
      <trkpt lat="49.15969" lon="6.76685">
        <ele>244</ele>
        <time>2020-01-21T14:17:47.001Z</time>
      </trkpt>
      <trkpt lat="49.15971" lon="6.7666">
        <ele>243</ele>
        <time>2020-01-21T14:17:57.001Z</time>
      </trkpt>
      <trkpt lat="49.15971" lon="6.76641">
        <ele>242</ele>
        <time>2020-01-21T14:18:07.001Z</time>
      </trkpt>
      <trkpt lat="49.15972" lon="6.76621">
        <ele>241</ele>
        <time>2020-01-21T14:18:17.001Z</time>
      </trkpt>
      <trkpt lat="49.15974" lon="6.76609">
        <ele>241</ele>
        <time>2020-01-21T14:18:27.001Z</time>
      </trkpt>
      <trkpt lat="49.15973" lon="6.76597">
        <ele>241</ele>
        <time>2020-01-21T14:18:37.001Z</time>
      </trkpt>
      <trkpt lat="49.15974" lon="6.76596">
        <ele>242</ele>
        <time>2020-01-21T14:18:47.001Z</time>
      </trkpt>
      <trkpt lat="49.15972" lon="6.76581">
        <ele>239</ele>
        <time>2020-01-21T14:18:57.001Z</time>
      </trkpt>
      <trkpt lat="49.15972" lon="6.7657">
        <ele>239</ele>
        <time>2020-01-21T14:19:07.001Z</time>
      </trkpt>
      <trkpt lat="49.15972" lon="6.76543">
        <ele>237</ele>
        <time>2020-01-21T14:19:17.001Z</time>
      </trkpt>
      <trkpt lat="49.15972" lon="6.76529">
        <ele>237</ele>
        <time>2020-01-21T14:19:27.001Z</time>
      </trkpt>
      <trkpt lat="49.15972" lon="6.76526">
        <ele>237</ele>
        <time>2020-01-21T14:19:37.001Z</time>
      </trkpt>
      <trkpt lat="49.15972" lon="6.76522">
        <ele>237</ele>
        <time>2020-01-21T14:19:47.001Z</time>
      </trkpt>
      <trkpt lat="49.15971" lon="6.7651">
        <ele>237</ele>
        <time>2020-01-21T14:19:57.001Z</time>
      </trkpt>
      <trkpt lat="49.15971" lon="6.76487">
        <ele>236</ele>
        <time>2020-01-21T14:20:07.001Z</time>
      </trkpt>
      <trkpt lat="49.15971" lon="6.76465">
        <ele>235</ele>
        <time>2020-01-21T14:20:17.001Z</time>
      </trkpt>
      <trkpt lat="49.15971" lon="6.76442">
        <ele>235</ele>
        <time>2020-01-21T14:20:27.001Z</time>
      </trkpt>
      <trkpt lat="49.1597" lon="6.76424">
        <ele>236</ele>
        <time>2020-01-21T14:20:37.001Z</time>
      </trkpt>
      <trkpt lat="49.15967" lon="6.76407">
        <ele>235</ele>
        <time>2020-01-21T14:20:47.001Z</time>
      </trkpt>
      <trkpt lat="49.15965" lon="6.76391">
        <ele>235</ele>
        <time>2020-01-21T14:20:57.001Z</time>
      </trkpt>
      <trkpt lat="49.15963" lon="6.7637">
        <ele>235</ele>
        <time>2020-01-21T14:21:07.001Z</time>
      </trkpt>
      <trkpt lat="49.15961" lon="6.76349">
        <ele>234</ele>
        <time>2020-01-21T14:21:17.001Z</time>
      </trkpt>
      <trkpt lat="49.1596" lon="6.76329">
        <ele>234</ele>
        <time>2020-01-21T14:21:27.001Z</time>
      </trkpt>
      <trkpt lat="49.1596" lon="6.76305">
        <ele>234</ele>
        <time>2020-01-21T14:21:37.001Z</time>
      </trkpt>
      <trkpt lat="49.15959" lon="6.76282">
        <ele>234</ele>
        <time>2020-01-21T14:21:47.001Z</time>
      </trkpt>
      <trkpt lat="49.15958" lon="6.76261">
        <ele>234</ele>
        <time>2020-01-21T14:21:57.001Z</time>
      </trkpt>
      <trkpt lat="49.15957" lon="6.76249">
        <ele>231</ele>
        <time>2020-01-21T14:22:07.001Z</time>
      </trkpt>
      <trkpt lat="49.15955" lon="6.76238">
        <ele>231</ele>
        <time>2020-01-21T14:22:17.001Z</time>
      </trkpt>
      <trkpt lat="49.15952" lon="6.76226">
        <ele>231</ele>
        <time>2020-01-21T14:22:27.001Z</time>
      </trkpt>
      <trkpt lat="49.15949" lon="6.76214">
        <ele>230</ele>
        <time>2020-01-21T14:22:37.001Z</time>
      </trkpt>
      <trkpt lat="49.15943" lon="6.76195">
        <ele>229</ele>
        <time>2020-01-21T14:22:47.001Z</time>
      </trkpt>
      <trkpt lat="49.15943" lon="6.76179">
        <ele>228</ele>
        <time>2020-01-21T14:22:57.001Z</time>
      </trkpt>
      <trkpt lat="49.15942" lon="6.7616">
        <ele>227</ele>
        <time>2020-01-21T14:23:07.001Z</time>
      </trkpt>
      <trkpt lat="49.1594" lon="6.76143">
        <ele>227</ele>
        <time>2020-01-21T14:23:17.001Z</time>
      </trkpt>
      <trkpt lat="49.15936" lon="6.76126">
        <ele>227</ele>
        <time>2020-01-21T14:23:27.001Z</time>
      </trkpt>
      <trkpt lat="49.15935" lon="6.7611">
        <ele>227</ele>
        <time>2020-01-21T14:23:37.001Z</time>
      </trkpt>
      <trkpt lat="49.15934" lon="6.76098">
        <ele>227</ele>
        <time>2020-01-21T14:23:47.001Z</time>
      </trkpt>
      <trkpt lat="49.15931" lon="6.76083">
        <ele>229</ele>
        <time>2020-01-21T14:23:57.001Z</time>
      </trkpt>
      <trkpt lat="49.15927" lon="6.76068">
        <ele>229</ele>
        <time>2020-01-21T14:24:07.001Z</time>
      </trkpt>
      <trkpt lat="49.15923" lon="6.76052">
        <ele>231</ele>
        <time>2020-01-21T14:24:17.001Z</time>
      </trkpt>
      <trkpt lat="49.15922" lon="6.7604">
        <ele>231</ele>
        <time>2020-01-21T14:24:27.001Z</time>
      </trkpt>
      <trkpt lat="49.15921" lon="6.76025">
        <ele>233</ele>
        <time>2020-01-21T14:24:37.001Z</time>
      </trkpt>
      <trkpt lat="49.15921" lon="6.76015">
        <ele>234</ele>
        <time>2020-01-21T14:24:47.001Z</time>
      </trkpt>
      <trkpt lat="49.15922" lon="6.75998">
        <ele>236</ele>
        <time>2020-01-21T14:24:57.001Z</time>
      </trkpt>
      <trkpt lat="49.15923" lon="6.75976">
        <ele>236</ele>
        <time>2020-01-21T14:25:07.001Z</time>
      </trkpt>
      <trkpt lat="49.15926" lon="6.7596">
        <ele>237</ele>
        <time>2020-01-21T14:25:17.001Z</time>
      </trkpt>
      <trkpt lat="49.15927" lon="6.75946">
        <ele>237</ele>
        <time>2020-01-21T14:25:27.001Z</time>
      </trkpt>
      <trkpt lat="49.15929" lon="6.75931">
        <ele>238</ele>
        <time>2020-01-21T14:25:37.001Z</time>
      </trkpt>
      <trkpt lat="49.15931" lon="6.75915">
        <ele>239</ele>
        <time>2020-01-21T14:25:47.001Z</time>
      </trkpt>
      <trkpt lat="49.15931" lon="6.75899">
        <ele>239</ele>
        <time>2020-01-21T14:25:57.001Z</time>
      </trkpt>
      <trkpt lat="49.15932" lon="6.75881">
        <ele>239</ele>
        <time>2020-01-21T14:26:07.001Z</time>
      </trkpt>
      <trkpt lat="49.15931" lon="6.75866">
        <ele>239</ele>
        <time>2020-01-21T14:26:17.001Z</time>
      </trkpt>
      <trkpt lat="49.1593" lon="6.7585">
        <ele>240</ele>
        <time>2020-01-21T14:26:27.001Z</time>
      </trkpt>
      <trkpt lat="49.15928" lon="6.75834">
        <ele>241</ele>
        <time>2020-01-21T14:26:37.001Z</time>
      </trkpt>
      <trkpt lat="49.15926" lon="6.75818">
        <ele>240</ele>
        <time>2020-01-21T14:26:47.001Z</time>
      </trkpt>
      <trkpt lat="49.15922" lon="6.75801">
        <ele>239</ele>
        <time>2020-01-21T14:26:57.001Z</time>
      </trkpt>
      <trkpt lat="49.15919" lon="6.7578">
        <ele>239</ele>
        <time>2020-01-21T14:27:07.001Z</time>
      </trkpt>
      <trkpt lat="49.15914" lon="6.75758">
        <ele>240</ele>
        <time>2020-01-21T14:27:17.001Z</time>
      </trkpt>
      <trkpt lat="49.1591" lon="6.7574">
        <ele>239</ele>
        <time>2020-01-21T14:27:27.001Z</time>
      </trkpt>
      <trkpt lat="49.15907" lon="6.75723">
        <ele>237</ele>
        <time>2020-01-21T14:27:37.001Z</time>
      </trkpt>
      <trkpt lat="49.15905" lon="6.75706">
        <ele>237</ele>
        <time>2020-01-21T14:27:47.001Z</time>
      </trkpt>
      <trkpt lat="49.15902" lon="6.75688">
        <ele>237</ele>
        <time>2020-01-21T14:27:57.001Z</time>
      </trkpt>
      <trkpt lat="49.15898" lon="6.7567">
        <ele>237</ele>
        <time>2020-01-21T14:28:07.001Z</time>
      </trkpt>
      <trkpt lat="49.15895" lon="6.75652">
        <ele>237</ele>
        <time>2020-01-21T14:28:17.001Z</time>
      </trkpt>
      <trkpt lat="49.15889" lon="6.75633">
        <ele>237</ele>
        <time>2020-01-21T14:28:27.001Z</time>
      </trkpt>
      <trkpt lat="49.15886" lon="6.75615">
        <ele>237</ele>
        <time>2020-01-21T14:28:37.001Z</time>
      </trkpt>
      <trkpt lat="49.15882" lon="6.75594">
        <ele>238</ele>
        <time>2020-01-21T14:28:47.001Z</time>
      </trkpt>
      <trkpt lat="49.15878" lon="6.75577">
        <ele>241</ele>
        <time>2020-01-21T14:28:57.001Z</time>
      </trkpt>
      <trkpt lat="49.15876" lon="6.7556">
        <ele>242</ele>
        <time>2020-01-21T14:29:07.001Z</time>
      </trkpt>
      <trkpt lat="49.15876" lon="6.7554">
        <ele>243</ele>
        <time>2020-01-21T14:29:17.001Z</time>
      </trkpt>
      <trkpt lat="49.15878" lon="6.75518">
        <ele>244</ele>
        <time>2020-01-21T14:29:27.001Z</time>
      </trkpt>
      <trkpt lat="49.1588" lon="6.75499">
        <ele>250</ele>
        <time>2020-01-21T14:29:37.001Z</time>
      </trkpt>
      <trkpt lat="49.15881" lon="6.7548">
        <ele>250</ele>
        <time>2020-01-21T14:29:47.001Z</time>
      </trkpt>
      <trkpt lat="49.15885" lon="6.75462">
        <ele>251</ele>
        <time>2020-01-21T14:29:57.001Z</time>
      </trkpt>
      <trkpt lat="49.1589" lon="6.75446">
        <ele>252</ele>
        <time>2020-01-21T14:30:07.001Z</time>
      </trkpt>
      <trkpt lat="49.15895" lon="6.75432">
        <ele>253</ele>
        <time>2020-01-21T14:30:17.001Z</time>
      </trkpt>
      <trkpt lat="49.159" lon="6.75421">
        <ele>254</ele>
        <time>2020-01-21T14:30:27.001Z</time>
      </trkpt>
      <trkpt lat="49.15905" lon="6.75413">
        <ele>256</ele>
        <time>2020-01-21T14:30:37.001Z</time>
      </trkpt>
      <trkpt lat="49.1591" lon="6.75402">
        <ele>255</ele>
        <time>2020-01-21T14:30:47.001Z</time>
      </trkpt>
      <trkpt lat="49.15917" lon="6.75397">
        <ele>259</ele>
        <time>2020-01-21T14:30:57.001Z</time>
      </trkpt>
      <trkpt lat="49.15926" lon="6.75392">
        <ele>259</ele>
        <time>2020-01-21T14:31:07.001Z</time>
      </trkpt>
      <trkpt lat="49.15939" lon="6.75386">
        <ele>260</ele>
        <time>2020-01-21T14:31:17.001Z</time>
      </trkpt>
      <trkpt lat="49.15953" lon="6.75378">
        <ele>260</ele>
        <time>2020-01-21T14:31:27.001Z</time>
      </trkpt>
      <trkpt lat="49.15963" lon="6.75376">
        <ele>260</ele>
        <time>2020-01-21T14:31:37.001Z</time>
      </trkpt>
      <trkpt lat="49.15972" lon="6.75377">
        <ele>261</ele>
        <time>2020-01-21T14:31:47.001Z</time>
      </trkpt>
      <trkpt lat="49.15979" lon="6.75378">
        <ele>261</ele>
        <time>2020-01-21T14:31:57.001Z</time>
      </trkpt>
      <trkpt lat="49.15984" lon="6.75378">
        <ele>261</ele>
        <time>2020-01-21T14:32:07.001Z</time>
      </trkpt>
      <trkpt lat="49.15985" lon="6.7538">
        <ele>261</ele>
        <time>2020-01-21T14:32:39.001Z</time>
      </trkpt>
      <trkpt lat="49.15995" lon="6.75385">
        <ele>262</ele>
        <time>2020-01-21T14:32:49.001Z</time>
      </trkpt>
      <trkpt lat="49.16006" lon="6.7539">
        <ele>267</ele>
        <time>2020-01-21T14:32:59.001Z</time>
      </trkpt>
      <trkpt lat="49.16018" lon="6.75394">
        <ele>267</ele>
        <time>2020-01-21T14:33:09.001Z</time>
      </trkpt>
      <trkpt lat="49.16034" lon="6.75395">
        <ele>268</ele>
        <time>2020-01-21T14:33:19.001Z</time>
      </trkpt>
      <trkpt lat="49.16049" lon="6.75396">
        <ele>269</ele>
        <time>2020-01-21T14:33:29.001Z</time>
      </trkpt>
      <trkpt lat="49.1606" lon="6.754">
        <ele>269</ele>
        <time>2020-01-21T14:33:39.001Z</time>
      </trkpt>
      <trkpt lat="49.16069" lon="6.75402">
        <ele>269</ele>
        <time>2020-01-21T14:33:49.001Z</time>
      </trkpt>
      <trkpt lat="49.16083" lon="6.754">
        <ele>270</ele>
        <time>2020-01-21T14:33:59.001Z</time>
      </trkpt>
      <trkpt lat="49.16097" lon="6.75404">
        <ele>272</ele>
        <time>2020-01-21T14:34:09.001Z</time>
      </trkpt>
      <trkpt lat="49.16112" lon="6.75406">
        <ele>273</ele>
        <time>2020-01-21T14:34:19.001Z</time>
      </trkpt>
      <trkpt lat="49.16125" lon="6.7541">
        <ele>273</ele>
        <time>2020-01-21T14:34:29.001Z</time>
      </trkpt>
      <trkpt lat="49.16138" lon="6.75413">
        <ele>273</ele>
        <time>2020-01-21T14:34:39.001Z</time>
      </trkpt>
      <trkpt lat="49.16151" lon="6.75416">
        <ele>273</ele>
        <time>2020-01-21T14:34:49.001Z</time>
      </trkpt>
      <trkpt lat="49.16164" lon="6.75421">
        <ele>271</ele>
        <time>2020-01-21T14:34:59.001Z</time>
      </trkpt>
      <trkpt lat="49.16176" lon="6.75428">
        <ele>270</ele>
        <time>2020-01-21T14:35:09.001Z</time>
      </trkpt>
      <trkpt lat="49.16188" lon="6.75427">
        <ele>269</ele>
        <time>2020-01-21T14:35:19.001Z</time>
      </trkpt>
      <trkpt lat="49.16195" lon="6.75421">
        <ele>269</ele>
        <time>2020-01-21T14:35:29.001Z</time>
      </trkpt>
      <trkpt lat="49.16201" lon="6.75414">
        <ele>274</ele>
        <time>2020-01-21T14:35:39.001Z</time>
      </trkpt>
      <trkpt lat="49.16206" lon="6.75402">
        <ele>274</ele>
        <time>2020-01-21T14:35:49.001Z</time>
      </trkpt>
      <trkpt lat="49.16212" lon="6.75395">
        <ele>274</ele>
        <time>2020-01-21T14:35:59.001Z</time>
      </trkpt>
      <trkpt lat="49.16219" lon="6.75383">
        <ele>274</ele>
        <time>2020-01-21T14:36:09.001Z</time>
      </trkpt>
      <trkpt lat="49.16222" lon="6.75373">
        <ele>274</ele>
        <time>2020-01-21T14:36:19.001Z</time>
      </trkpt>
      <trkpt lat="49.16226" lon="6.7536">
        <ele>275</ele>
        <time>2020-01-21T14:36:29.001Z</time>
      </trkpt>
      <trkpt lat="49.1623" lon="6.75342">
        <ele>275</ele>
        <time>2020-01-21T14:36:39.001Z</time>
      </trkpt>
      <trkpt lat="49.16229" lon="6.75322">
        <ele>276</ele>
        <time>2020-01-21T14:36:49.001Z</time>
      </trkpt>
      <trkpt lat="49.16232" lon="6.75311">
        <ele>276</ele>
        <time>2020-01-21T14:36:59.001Z</time>
      </trkpt>
      <trkpt lat="49.16234" lon="6.75312">
        <ele>276</ele>
        <time>2020-01-21T14:37:09.001Z</time>
      </trkpt>
      <trkpt lat="49.16233" lon="6.75307">
        <ele>276</ele>
        <time>2020-01-21T14:37:19.001Z</time>
      </trkpt>
      <trkpt lat="49.16235" lon="6.75291">
        <ele>276</ele>
        <time>2020-01-21T14:37:29.001Z</time>
      </trkpt>
      <trkpt lat="49.1624" lon="6.75269">
        <ele>276</ele>
        <time>2020-01-21T14:37:39.001Z</time>
      </trkpt>
      <trkpt lat="49.16243" lon="6.75263">
        <ele>276</ele>
        <time>2020-01-21T14:37:49.001Z</time>
      </trkpt>
      <trkpt lat="49.16248" lon="6.7525">
        <ele>277</ele>
        <time>2020-01-21T14:37:59.001Z</time>
      </trkpt>
      <trkpt lat="49.16256" lon="6.75236">
        <ele>273</ele>
        <time>2020-01-21T14:38:09.001Z</time>
      </trkpt>
      <trkpt lat="49.16268" lon="6.75217">
        <ele>270</ele>
        <time>2020-01-21T14:38:19.001Z</time>
      </trkpt>
      <trkpt lat="49.16278" lon="6.75202">
        <ele>269</ele>
        <time>2020-01-21T14:38:29.001Z</time>
      </trkpt>
      <trkpt lat="49.16287" lon="6.75189">
        <ele>269</ele>
        <time>2020-01-21T14:38:39.001Z</time>
      </trkpt>
      <trkpt lat="49.16295" lon="6.75174">
        <ele>268</ele>
        <time>2020-01-21T14:38:49.001Z</time>
      </trkpt>
      <trkpt lat="49.16301" lon="6.75158">
        <ele>272</ele>
        <time>2020-01-21T14:38:59.001Z</time>
      </trkpt>
      <trkpt lat="49.16306" lon="6.75145">
        <ele>272</ele>
        <time>2020-01-21T14:39:09.001Z</time>
      </trkpt>
      <trkpt lat="49.16312" lon="6.75128">
        <ele>272</ele>
        <time>2020-01-21T14:39:19.001Z</time>
      </trkpt>
      <trkpt lat="49.16317" lon="6.75109">
        <ele>273</ele>
        <time>2020-01-21T14:39:29.001Z</time>
      </trkpt>
      <trkpt lat="49.16322" lon="6.75091">
        <ele>274</ele>
        <time>2020-01-21T14:39:39.001Z</time>
      </trkpt>
      <trkpt lat="49.16326" lon="6.75073">
        <ele>276</ele>
        <time>2020-01-21T14:39:49.001Z</time>
      </trkpt>
      <trkpt lat="49.16331" lon="6.75055">
        <ele>277</ele>
        <time>2020-01-21T14:39:59.001Z</time>
      </trkpt>
      <trkpt lat="49.16337" lon="6.75038">
        <ele>266</ele>
        <time>2020-01-21T14:40:09.001Z</time>
      </trkpt>
      <trkpt lat="49.16342" lon="6.75024">
        <ele>268</ele>
        <time>2020-01-21T14:40:19.001Z</time>
      </trkpt>
      <trkpt lat="49.16347" lon="6.75006">
        <ele>271</ele>
        <time>2020-01-21T14:40:29.001Z</time>
      </trkpt>
      <trkpt lat="49.16354" lon="6.74986">
        <ele>275</ele>
        <time>2020-01-21T14:40:39.001Z</time>
      </trkpt>
      <trkpt lat="49.1636" lon="6.74969">
        <ele>275</ele>
        <time>2020-01-21T14:40:49.001Z</time>
      </trkpt>
      <trkpt lat="49.16365" lon="6.74954">
        <ele>275</ele>
        <time>2020-01-21T14:40:59.001Z</time>
      </trkpt>
      <trkpt lat="49.1637" lon="6.74939">
        <ele>276</ele>
        <time>2020-01-21T14:41:09.001Z</time>
      </trkpt>
      <trkpt lat="49.16376" lon="6.74919">
        <ele>276</ele>
        <time>2020-01-21T14:41:19.001Z</time>
      </trkpt>
      <trkpt lat="49.16384" lon="6.749">
        <ele>283</ele>
        <time>2020-01-21T14:41:29.001Z</time>
      </trkpt>
      <trkpt lat="49.16391" lon="6.74884">
        <ele>283</ele>
        <time>2020-01-21T14:41:39.001Z</time>
      </trkpt>
      <trkpt lat="49.16404" lon="6.74873">
        <ele>283</ele>
        <time>2020-01-21T14:41:49.001Z</time>
      </trkpt>
      <trkpt lat="49.16415" lon="6.74868">
        <ele>284</ele>
        <time>2020-01-21T14:41:59.001Z</time>
      </trkpt>
      <trkpt lat="49.16427" lon="6.74865">
        <ele>282</ele>
        <time>2020-01-21T14:42:09.001Z</time>
      </trkpt>
      <trkpt lat="49.16439" lon="6.74862">
        <ele>282</ele>
        <time>2020-01-21T14:42:19.001Z</time>
      </trkpt>
      <trkpt lat="49.16452" lon="6.74859">
        <ele>282</ele>
        <time>2020-01-21T14:42:29.001Z</time>
      </trkpt>
      <trkpt lat="49.16466" lon="6.74859">
        <ele>282</ele>
        <time>2020-01-21T14:42:39.001Z</time>
      </trkpt>
      <trkpt lat="49.16481" lon="6.7486">
        <ele>282</ele>
        <time>2020-01-21T14:42:49.001Z</time>
      </trkpt>
      <trkpt lat="49.16494" lon="6.7486">
        <ele>283</ele>
        <time>2020-01-21T14:42:59.001Z</time>
      </trkpt>
      <trkpt lat="49.16505" lon="6.74865">
        <ele>284</ele>
        <time>2020-01-21T14:43:09.001Z</time>
      </trkpt>
      <trkpt lat="49.16515" lon="6.74871">
        <ele>284</ele>
        <time>2020-01-21T14:43:19.001Z</time>
      </trkpt>
      <trkpt lat="49.16527" lon="6.74873">
        <ele>284</ele>
        <time>2020-01-21T14:43:29.001Z</time>
      </trkpt>
      <trkpt lat="49.1654" lon="6.74878">
        <ele>284</ele>
        <time>2020-01-21T14:43:39.001Z</time>
      </trkpt>
      <trkpt lat="49.16554" lon="6.74881">
        <ele>285</ele>
        <time>2020-01-21T14:43:49.001Z</time>
      </trkpt>
      <trkpt lat="49.16564" lon="6.74886">
        <ele>285</ele>
        <time>2020-01-21T14:43:59.001Z</time>
      </trkpt>
      <trkpt lat="49.16576" lon="6.74889">
        <ele>285</ele>
        <time>2020-01-21T14:44:09.001Z</time>
      </trkpt>
      <trkpt lat="49.16587" lon="6.74893">
        <ele>289</ele>
        <time>2020-01-21T14:44:19.001Z</time>
      </trkpt>
      <trkpt lat="49.16598" lon="6.74892">
        <ele>290</ele>
        <time>2020-01-21T14:44:29.001Z</time>
      </trkpt>
      <trkpt lat="49.16608" lon="6.74895">
        <ele>291</ele>
        <time>2020-01-21T14:44:39.001Z</time>
      </trkpt>
      <trkpt lat="49.16609" lon="6.74903">
        <ele>290</ele>
        <time>2020-01-21T14:44:49.001Z</time>
      </trkpt>
      <trkpt lat="49.16609" lon="6.74909">
        <ele>290</ele>
        <time>2020-01-21T14:44:59.001Z</time>
      </trkpt>
      <trkpt lat="49.1661" lon="6.7491">
        <ele>290</ele>
        <time>2020-01-21T14:45:09.001Z</time>
      </trkpt>
      <trkpt lat="49.16615" lon="6.74908">
        <ele>291</ele>
        <time>2020-01-21T14:45:45.001Z</time>
      </trkpt>
      <trkpt lat="49.16617" lon="6.74918">
        <ele>282</ele>
        <time>2020-01-21T14:47:48.001Z</time>
      </trkpt>
      <trkpt lat="49.16619" lon="6.74923">
        <ele>282</ele>
        <time>2020-01-21T14:49:49.001Z</time>
      </trkpt>
      <trkpt lat="49.16621" lon="6.74924">
        <ele>282</ele>
        <time>2020-01-21T14:49:59.001Z</time>
      </trkpt>
      <trkpt lat="49.16623" lon="6.74926">
        <ele>282</ele>
        <time>2020-01-21T14:51:29.001Z</time>
      </trkpt>
      <trkpt lat="49.16622" lon="6.74921">
        <ele>282</ele>
        <time>2020-01-21T14:51:39.001Z</time>
      </trkpt>
      <trkpt lat="49.16626" lon="6.74908">
        <ele>292</ele>
        <time>2020-01-21T14:51:49.001Z</time>
      </trkpt>
      <trkpt lat="49.16627" lon="6.74896">
        <ele>293</ele>
        <time>2020-01-21T14:51:59.001Z</time>
      </trkpt>
      <trkpt lat="49.16628" lon="6.74886">
        <ele>293</ele>
        <time>2020-01-21T14:52:09.001Z</time>
      </trkpt>
      <trkpt lat="49.16624" lon="6.74877">
        <ele>294</ele>
        <time>2020-01-21T14:52:19.001Z</time>
      </trkpt>
      <trkpt lat="49.16619" lon="6.74863">
        <ele>294</ele>
        <time>2020-01-21T14:52:29.001Z</time>
      </trkpt>
      <trkpt lat="49.16612" lon="6.74848">
        <ele>295</ele>
        <time>2020-01-21T14:52:39.001Z</time>
      </trkpt>
      <trkpt lat="49.16606" lon="6.74833">
        <ele>299</ele>
        <time>2020-01-21T14:52:49.001Z</time>
      </trkpt>
      <trkpt lat="49.16599" lon="6.74809">
        <ele>299</ele>
        <time>2020-01-21T14:52:59.001Z</time>
      </trkpt>
      <trkpt lat="49.16594" lon="6.74786">
        <ele>300</ele>
        <time>2020-01-21T14:53:09.001Z</time>
      </trkpt>
      <trkpt lat="49.16598" lon="6.74764">
        <ele>300</ele>
        <time>2020-01-21T14:53:19.001Z</time>
      </trkpt>
      <trkpt lat="49.16604" lon="6.74748">
        <ele>302</ele>
        <time>2020-01-21T14:53:29.001Z</time>
      </trkpt>
      <trkpt lat="49.16609" lon="6.7473">
        <ele>302</ele>
        <time>2020-01-21T14:53:39.001Z</time>
      </trkpt>
      <trkpt lat="49.16615" lon="6.74712">
        <ele>303</ele>
        <time>2020-01-21T14:53:49.001Z</time>
      </trkpt>
      <trkpt lat="49.16623" lon="6.74696">
        <ele>303</ele>
        <time>2020-01-21T14:53:59.001Z</time>
      </trkpt>
      <trkpt lat="49.1663" lon="6.7468">
        <ele>303</ele>
        <time>2020-01-21T14:54:09.001Z</time>
      </trkpt>
      <trkpt lat="49.16636" lon="6.74666">
        <ele>303</ele>
        <time>2020-01-21T14:54:19.001Z</time>
      </trkpt>
      <trkpt lat="49.16644" lon="6.74653">
        <ele>303</ele>
        <time>2020-01-21T14:54:29.001Z</time>
      </trkpt>
      <trkpt lat="49.16653" lon="6.74641">
        <ele>303</ele>
        <time>2020-01-21T14:54:39.001Z</time>
      </trkpt>
      <trkpt lat="49.16664" lon="6.74626">
        <ele>303</ele>
        <time>2020-01-21T14:54:49.001Z</time>
      </trkpt>
      <trkpt lat="49.16677" lon="6.74618">
        <ele>301</ele>
        <time>2020-01-21T14:54:59.001Z</time>
      </trkpt>
      <trkpt lat="49.1669" lon="6.746">
        <ele>301</ele>
        <time>2020-01-21T14:55:09.001Z</time>
      </trkpt>
      <trkpt lat="49.16699" lon="6.74584">
        <ele>301</ele>
        <time>2020-01-21T14:55:19.001Z</time>
      </trkpt>
      <trkpt lat="49.16699" lon="6.74575">
        <ele>300</ele>
        <time>2020-01-21T14:55:29.001Z</time>
      </trkpt>
      <trkpt lat="49.16699" lon="6.74569">
        <ele>300</ele>
        <time>2020-01-21T14:55:39.001Z</time>
      </trkpt>
      <trkpt lat="49.16698" lon="6.7456">
        <ele>300</ele>
        <time>2020-01-21T14:55:49.001Z</time>
      </trkpt>
      <trkpt lat="49.16698" lon="6.74545">
        <ele>299</ele>
        <time>2020-01-21T14:55:59.001Z</time>
      </trkpt>
      <trkpt lat="49.16693" lon="6.74531">
        <ele>299</ele>
        <time>2020-01-21T14:56:09.001Z</time>
      </trkpt>
      <trkpt lat="49.16691" lon="6.74517">
        <ele>299</ele>
        <time>2020-01-21T14:56:19.001Z</time>
      </trkpt>
      <trkpt lat="49.16693" lon="6.74496">
        <ele>297</ele>
        <time>2020-01-21T14:56:29.001Z</time>
      </trkpt>
      <trkpt lat="49.16694" lon="6.74474">
        <ele>296</ele>
        <time>2020-01-21T14:56:39.001Z</time>
      </trkpt>
      <trkpt lat="49.167" lon="6.74458">
        <ele>296</ele>
        <time>2020-01-21T14:56:49.001Z</time>
      </trkpt>
      <trkpt lat="49.16703" lon="6.74433">
        <ele>295</ele>
        <time>2020-01-21T14:56:59.001Z</time>
      </trkpt>
      <trkpt lat="49.16707" lon="6.74416">
        <ele>293</ele>
        <time>2020-01-21T14:57:09.001Z</time>
      </trkpt>
      <trkpt lat="49.16716" lon="6.74404">
        <ele>293</ele>
        <time>2020-01-21T14:57:19.001Z</time>
      </trkpt>
      <trkpt lat="49.16728" lon="6.744">
        <ele>293</ele>
        <time>2020-01-21T14:57:29.001Z</time>
      </trkpt>
      <trkpt lat="49.16739" lon="6.74382">
        <ele>292</ele>
        <time>2020-01-21T14:57:39.001Z</time>
      </trkpt>
      <trkpt lat="49.16743" lon="6.7437">
        <ele>292</ele>
        <time>2020-01-21T14:57:49.001Z</time>
      </trkpt>
      <trkpt lat="49.1674" lon="6.74361">
        <ele>292</ele>
        <time>2020-01-21T14:57:59.001Z</time>
      </trkpt>
      <trkpt lat="49.16741" lon="6.74355">
        <ele>292</ele>
        <time>2020-01-21T14:58:09.001Z</time>
      </trkpt>
      <trkpt lat="49.16738" lon="6.74342">
        <ele>292</ele>
        <time>2020-01-21T14:58:19.001Z</time>
      </trkpt>
      <trkpt lat="49.16737" lon="6.74333">
        <ele>290</ele>
        <time>2020-01-21T14:58:29.001Z</time>
      </trkpt>
      <trkpt lat="49.16738" lon="6.74312">
        <ele>288</ele>
        <time>2020-01-21T14:58:39.001Z</time>
      </trkpt>
      <trkpt lat="49.16738" lon="6.74294">
        <ele>287</ele>
        <time>2020-01-21T14:58:49.001Z</time>
      </trkpt>
      <trkpt lat="49.16741" lon="6.74272">
        <ele>286</ele>
        <time>2020-01-21T14:58:59.001Z</time>
      </trkpt>
      <trkpt lat="49.16746" lon="6.74251">
        <ele>285</ele>
        <time>2020-01-21T14:59:09.001Z</time>
      </trkpt>
      <trkpt lat="49.16751" lon="6.74236">
        <ele>282</ele>
        <time>2020-01-21T14:59:19.001Z</time>
      </trkpt>
      <trkpt lat="49.16756" lon="6.74223">
        <ele>280</ele>
        <time>2020-01-21T14:59:29.001Z</time>
      </trkpt>
      <trkpt lat="49.16767" lon="6.74207">
        <ele>278</ele>
        <time>2020-01-21T14:59:39.001Z</time>
      </trkpt>
      <trkpt lat="49.16773" lon="6.74198">
        <ele>278</ele>
        <time>2020-01-21T14:59:49.001Z</time>
      </trkpt>
      <trkpt lat="49.16776" lon="6.74192">
        <ele>277</ele>
        <time>2020-01-21T14:59:59.001Z</time>
      </trkpt>
      <trkpt lat="49.16777" lon="6.74186">
        <ele>277</ele>
        <time>2020-01-21T15:00:09.001Z</time>
      </trkpt>
      <trkpt lat="49.16779" lon="6.74176">
        <ele>277</ele>
        <time>2020-01-21T15:00:19.001Z</time>
      </trkpt>
      <trkpt lat="49.16781" lon="6.74173">
        <ele>277</ele>
        <time>2020-01-21T15:00:29.001Z</time>
      </trkpt>
      <trkpt lat="49.16784" lon="6.74171">
        <ele>277</ele>
        <time>2020-01-21T15:00:39.001Z</time>
      </trkpt>
      <trkpt lat="49.16795" lon="6.74158">
        <ele>275</ele>
        <time>2020-01-21T15:00:49.001Z</time>
      </trkpt>
      <trkpt lat="49.16809" lon="6.74144">
        <ele>274</ele>
        <time>2020-01-21T15:00:59.001Z</time>
      </trkpt>
      <trkpt lat="49.1682" lon="6.74138">
        <ele>274</ele>
        <time>2020-01-21T15:01:09.001Z</time>
      </trkpt>
      <trkpt lat="49.16833" lon="6.74125">
        <ele>274</ele>
        <time>2020-01-21T15:01:19.001Z</time>
      </trkpt>
      <trkpt lat="49.16842" lon="6.74116">
        <ele>272</ele>
        <time>2020-01-21T15:01:29.001Z</time>
      </trkpt>
      <trkpt lat="49.16857" lon="6.74091">
        <ele>272</ele>
        <time>2020-01-21T15:01:39.001Z</time>
      </trkpt>
      <trkpt lat="49.16867" lon="6.74077">
        <ele>270</ele>
        <time>2020-01-21T15:01:49.001Z</time>
      </trkpt>
      <trkpt lat="49.16873" lon="6.74063">
        <ele>269</ele>
        <time>2020-01-21T15:01:59.001Z</time>
      </trkpt>
      <trkpt lat="49.16879" lon="6.74048">
        <ele>269</ele>
        <time>2020-01-21T15:02:09.001Z</time>
      </trkpt>
      <trkpt lat="49.16887" lon="6.74033">
        <ele>268</ele>
        <time>2020-01-21T15:02:19.001Z</time>
      </trkpt>
      <trkpt lat="49.16893" lon="6.74019">
        <ele>268</ele>
        <time>2020-01-21T15:02:29.001Z</time>
      </trkpt>
      <trkpt lat="49.16902" lon="6.74002">
        <ele>266</ele>
        <time>2020-01-21T15:02:39.001Z</time>
      </trkpt>
      <trkpt lat="49.16911" lon="6.73983">
        <ele>266</ele>
        <time>2020-01-21T15:02:49.001Z</time>
      </trkpt>
      <trkpt lat="49.16919" lon="6.73964">
        <ele>267</ele>
        <time>2020-01-21T15:02:59.001Z</time>
      </trkpt>
      <trkpt lat="49.16928" lon="6.73946">
        <ele>267</ele>
        <time>2020-01-21T15:03:09.001Z</time>
      </trkpt>
      <trkpt lat="49.16936" lon="6.73931">
        <ele>267</ele>
        <time>2020-01-21T15:03:19.001Z</time>
      </trkpt>
      <trkpt lat="49.16944" lon="6.7392">
        <ele>268</ele>
        <time>2020-01-21T15:03:29.001Z</time>
      </trkpt>
      <trkpt lat="49.16951" lon="6.73907">
        <ele>265</ele>
        <time>2020-01-21T15:03:39.001Z</time>
      </trkpt>
      <trkpt lat="49.16962" lon="6.73889">
        <ele>265</ele>
        <time>2020-01-21T15:03:49.001Z</time>
      </trkpt>
      <trkpt lat="49.16971" lon="6.73874">
        <ele>265</ele>
        <time>2020-01-21T15:03:59.001Z</time>
      </trkpt>
      <trkpt lat="49.16979" lon="6.73861">
        <ele>264</ele>
        <time>2020-01-21T15:04:09.001Z</time>
      </trkpt>
      <trkpt lat="49.16988" lon="6.73846">
        <ele>262</ele>
        <time>2020-01-21T15:04:19.001Z</time>
      </trkpt>
      <trkpt lat="49.16996" lon="6.73831">
        <ele>259</ele>
        <time>2020-01-21T15:04:29.001Z</time>
      </trkpt>
      <trkpt lat="49.17007" lon="6.73816">
        <ele>258</ele>
        <time>2020-01-21T15:04:39.001Z</time>
      </trkpt>
      <trkpt lat="49.17017" lon="6.73807">
        <ele>258</ele>
        <time>2020-01-21T15:04:49.001Z</time>
      </trkpt>
      <trkpt lat="49.17028" lon="6.73798">
        <ele>258</ele>
        <time>2020-01-21T15:04:59.001Z</time>
      </trkpt>
      <trkpt lat="49.17041" lon="6.73789">
        <ele>257</ele>
        <time>2020-01-21T15:05:09.001Z</time>
      </trkpt>
      <trkpt lat="49.17052" lon="6.73781">
        <ele>257</ele>
        <time>2020-01-21T15:05:19.001Z</time>
      </trkpt>
      <trkpt lat="49.17061" lon="6.73772">
        <ele>256</ele>
        <time>2020-01-21T15:05:29.001Z</time>
      </trkpt>
      <trkpt lat="49.17072" lon="6.73765">
        <ele>255</ele>
        <time>2020-01-21T15:05:39.001Z</time>
      </trkpt>
      <trkpt lat="49.17085" lon="6.73758">
        <ele>254</ele>
        <time>2020-01-21T15:05:49.001Z</time>
      </trkpt>
      <trkpt lat="49.17095" lon="6.73752">
        <ele>254</ele>
        <time>2020-01-21T15:05:59.001Z</time>
      </trkpt>
      <trkpt lat="49.17108" lon="6.73745">
        <ele>252</ele>
        <time>2020-01-21T15:06:09.001Z</time>
      </trkpt>
      <trkpt lat="49.1712" lon="6.73738">
        <ele>252</ele>
        <time>2020-01-21T15:06:19.001Z</time>
      </trkpt>
      <trkpt lat="49.17132" lon="6.73727">
        <ele>252</ele>
        <time>2020-01-21T15:06:29.001Z</time>
      </trkpt>
      <trkpt lat="49.17145" lon="6.73714">
        <ele>252</ele>
        <time>2020-01-21T15:06:39.001Z</time>
      </trkpt>
      <trkpt lat="49.17156" lon="6.73703">
        <ele>252</ele>
        <time>2020-01-21T15:06:49.001Z</time>
      </trkpt>
      <trkpt lat="49.17165" lon="6.73694">
        <ele>251</ele>
        <time>2020-01-21T15:06:59.001Z</time>
      </trkpt>
      <trkpt lat="49.17172" lon="6.73682">
        <ele>253</ele>
        <time>2020-01-21T15:07:09.001Z</time>
      </trkpt>
      <trkpt lat="49.17178" lon="6.73669">
        <ele>252</ele>
        <time>2020-01-21T15:07:19.001Z</time>
      </trkpt>
      <trkpt lat="49.17188" lon="6.73656">
        <ele>250</ele>
        <time>2020-01-21T15:07:29.001Z</time>
      </trkpt>
      <trkpt lat="49.17198" lon="6.73642">
        <ele>251</ele>
        <time>2020-01-21T15:07:39.001Z</time>
      </trkpt>
      <trkpt lat="49.17207" lon="6.7363">
        <ele>251</ele>
        <time>2020-01-21T15:07:49.001Z</time>
      </trkpt>
      <trkpt lat="49.17214" lon="6.73614">
        <ele>251</ele>
        <time>2020-01-21T15:07:59.001Z</time>
      </trkpt>
      <trkpt lat="49.17223" lon="6.73598">
        <ele>250</ele>
        <time>2020-01-21T15:08:09.001Z</time>
      </trkpt>
      <trkpt lat="49.17233" lon="6.73585">
        <ele>250</ele>
        <time>2020-01-21T15:08:19.001Z</time>
      </trkpt>
      <trkpt lat="49.1724" lon="6.73571">
        <ele>248</ele>
        <time>2020-01-21T15:08:29.001Z</time>
      </trkpt>
      <trkpt lat="49.17248" lon="6.73555">
        <ele>248</ele>
        <time>2020-01-21T15:08:39.001Z</time>
      </trkpt>
      <trkpt lat="49.17253" lon="6.7354">
        <ele>250</ele>
        <time>2020-01-21T15:08:49.001Z</time>
      </trkpt>
      <trkpt lat="49.17259" lon="6.73526">
        <ele>249</ele>
        <time>2020-01-21T15:08:59.001Z</time>
      </trkpt>
      <trkpt lat="49.17269" lon="6.73511">
        <ele>248</ele>
        <time>2020-01-21T15:09:09.001Z</time>
      </trkpt>
      <trkpt lat="49.17275" lon="6.73496">
        <ele>246</ele>
        <time>2020-01-21T15:09:19.001Z</time>
      </trkpt>
      <trkpt lat="49.17284" lon="6.73482">
        <ele>246</ele>
        <time>2020-01-21T15:09:29.001Z</time>
      </trkpt>
      <trkpt lat="49.17295" lon="6.73468">
        <ele>247</ele>
        <time>2020-01-21T15:09:39.001Z</time>
      </trkpt>
      <trkpt lat="49.17305" lon="6.73454">
        <ele>246</ele>
        <time>2020-01-21T15:09:49.001Z</time>
      </trkpt>
      <trkpt lat="49.17315" lon="6.73443">
        <ele>246</ele>
        <time>2020-01-21T15:09:59.001Z</time>
      </trkpt>
      <trkpt lat="49.1732" lon="6.7343">
        <ele>245</ele>
        <time>2020-01-21T15:10:09.001Z</time>
      </trkpt>
      <trkpt lat="49.17328" lon="6.73418">
        <ele>244</ele>
        <time>2020-01-21T15:10:19.001Z</time>
      </trkpt>
      <trkpt lat="49.17338" lon="6.73402">
        <ele>244</ele>
        <time>2020-01-21T15:10:29.001Z</time>
      </trkpt>
      <trkpt lat="49.17349" lon="6.73391">
        <ele>244</ele>
        <time>2020-01-21T15:10:39.001Z</time>
      </trkpt>
      <trkpt lat="49.17361" lon="6.73378">
        <ele>244</ele>
        <time>2020-01-21T15:10:49.001Z</time>
      </trkpt>
      <trkpt lat="49.17371" lon="6.73367">
        <ele>244</ele>
        <time>2020-01-21T15:10:59.001Z</time>
      </trkpt>
      <trkpt lat="49.17381" lon="6.73358">
        <ele>243</ele>
        <time>2020-01-21T15:11:09.001Z</time>
      </trkpt>
      <trkpt lat="49.17391" lon="6.73346">
        <ele>242</ele>
        <time>2020-01-21T15:11:19.001Z</time>
      </trkpt>
      <trkpt lat="49.17402" lon="6.73332">
        <ele>240</ele>
        <time>2020-01-21T15:11:29.001Z</time>
      </trkpt>
      <trkpt lat="49.17414" lon="6.73321">
        <ele>240</ele>
        <time>2020-01-21T15:11:39.001Z</time>
      </trkpt>
      <trkpt lat="49.17421" lon="6.73315">
        <ele>240</ele>
        <time>2020-01-21T15:11:49.001Z</time>
      </trkpt>
      <trkpt lat="49.17432" lon="6.73308">
        <ele>240</ele>
        <time>2020-01-21T15:11:59.001Z</time>
      </trkpt>
      <trkpt lat="49.17444" lon="6.73298">
        <ele>241</ele>
        <time>2020-01-21T15:12:09.001Z</time>
      </trkpt>
      <trkpt lat="49.17455" lon="6.73288">
        <ele>241</ele>
        <time>2020-01-21T15:12:19.001Z</time>
      </trkpt>
      <trkpt lat="49.17468" lon="6.73277">
        <ele>241</ele>
        <time>2020-01-21T15:12:29.001Z</time>
      </trkpt>
      <trkpt lat="49.17479" lon="6.73269">
        <ele>240</ele>
        <time>2020-01-21T15:12:39.001Z</time>
      </trkpt>
      <trkpt lat="49.1749" lon="6.7326">
        <ele>239</ele>
        <time>2020-01-21T15:12:49.001Z</time>
      </trkpt>
      <trkpt lat="49.17508" lon="6.7325">
        <ele>236</ele>
        <time>2020-01-21T15:12:59.001Z</time>
      </trkpt>
      <trkpt lat="49.17519" lon="6.7324">
        <ele>234</ele>
        <time>2020-01-21T15:13:09.001Z</time>
      </trkpt>
      <trkpt lat="49.1753" lon="6.73227">
        <ele>234</ele>
        <time>2020-01-21T15:13:19.001Z</time>
      </trkpt>
      <trkpt lat="49.17542" lon="6.73223">
        <ele>233</ele>
        <time>2020-01-21T15:13:29.001Z</time>
      </trkpt>
      <trkpt lat="49.17557" lon="6.73221">
        <ele>232</ele>
        <time>2020-01-21T15:13:39.001Z</time>
      </trkpt>
      <trkpt lat="49.17569" lon="6.73221">
        <ele>232</ele>
        <time>2020-01-21T15:13:49.001Z</time>
      </trkpt>
      <trkpt lat="49.17581" lon="6.73223">
        <ele>232</ele>
        <time>2020-01-21T15:13:59.001Z</time>
      </trkpt>
      <trkpt lat="49.17594" lon="6.73226">
        <ele>229</ele>
        <time>2020-01-21T15:14:09.001Z</time>
      </trkpt>
      <trkpt lat="49.17607" lon="6.7323">
        <ele>229</ele>
        <time>2020-01-21T15:14:19.001Z</time>
      </trkpt>
      <trkpt lat="49.17619" lon="6.73234">
        <ele>229</ele>
        <time>2020-01-21T15:14:29.001Z</time>
      </trkpt>
      <trkpt lat="49.1763" lon="6.73238">
        <ele>229</ele>
        <time>2020-01-21T15:14:39.001Z</time>
      </trkpt>
      <trkpt lat="49.17642" lon="6.73236">
        <ele>228</ele>
        <time>2020-01-21T15:14:49.001Z</time>
      </trkpt>
      <trkpt lat="49.17654" lon="6.73238">
        <ele>228</ele>
        <time>2020-01-21T15:14:59.001Z</time>
      </trkpt>
      <trkpt lat="49.17655" lon="6.73223">
        <ele>228</ele>
        <time>2020-01-21T15:15:09.001Z</time>
      </trkpt>
      <trkpt lat="49.17656" lon="6.73212">
        <ele>228</ele>
        <time>2020-01-21T15:15:19.001Z</time>
      </trkpt>
      <trkpt lat="49.17654" lon="6.73199">
        <ele>228</ele>
        <time>2020-01-21T15:15:29.001Z</time>
      </trkpt>
      <trkpt lat="49.17653" lon="6.73181">
        <ele>228</ele>
        <time>2020-01-21T15:15:39.001Z</time>
      </trkpt>
      <trkpt lat="49.17652" lon="6.73163">
        <ele>228</ele>
        <time>2020-01-21T15:15:49.001Z</time>
      </trkpt>
      <trkpt lat="49.17651" lon="6.73145">
        <ele>229</ele>
        <time>2020-01-21T15:15:59.001Z</time>
      </trkpt>
      <trkpt lat="49.17653" lon="6.73129">
        <ele>229</ele>
        <time>2020-01-21T15:16:09.001Z</time>
      </trkpt>
      <trkpt lat="49.17654" lon="6.73112">
        <ele>229</ele>
        <time>2020-01-21T15:16:19.001Z</time>
      </trkpt>
      <trkpt lat="49.17655" lon="6.73095">
        <ele>229</ele>
        <time>2020-01-21T15:16:29.001Z</time>
      </trkpt>
      <trkpt lat="49.17653" lon="6.73076">
        <ele>229</ele>
        <time>2020-01-21T15:16:39.001Z</time>
      </trkpt>
      <trkpt lat="49.17648" lon="6.7306">
        <ele>229</ele>
        <time>2020-01-21T15:16:49.001Z</time>
      </trkpt>
      <trkpt lat="49.17645" lon="6.73042">
        <ele>229</ele>
        <time>2020-01-21T15:16:59.001Z</time>
      </trkpt>
      <trkpt lat="49.17642" lon="6.73023">
        <ele>229</ele>
        <time>2020-01-21T15:17:09.001Z</time>
      </trkpt>
      <trkpt lat="49.1764" lon="6.73002">
        <ele>229</ele>
        <time>2020-01-21T15:17:19.001Z</time>
      </trkpt>
      <trkpt lat="49.17638" lon="6.72981">
        <ele>229</ele>
        <time>2020-01-21T15:17:29.001Z</time>
      </trkpt>
      <trkpt lat="49.17635" lon="6.72961">
        <ele>229</ele>
        <time>2020-01-21T15:17:39.001Z</time>
      </trkpt>
      <trkpt lat="49.17634" lon="6.7294">
        <ele>229</ele>
        <time>2020-01-21T15:17:49.001Z</time>
      </trkpt>
      <trkpt lat="49.17632" lon="6.7292">
        <ele>229</ele>
        <time>2020-01-21T15:17:59.001Z</time>
      </trkpt>
      <trkpt lat="49.17631" lon="6.72901">
        <ele>230</ele>
        <time>2020-01-21T15:18:09.001Z</time>
      </trkpt>
      <trkpt lat="49.17632" lon="6.72881">
        <ele>231</ele>
        <time>2020-01-21T15:18:19.001Z</time>
      </trkpt>
      <trkpt lat="49.17633" lon="6.72861">
        <ele>231</ele>
        <time>2020-01-21T15:18:29.001Z</time>
      </trkpt>
      <trkpt lat="49.17634" lon="6.72843">
        <ele>231</ele>
        <time>2020-01-21T15:18:39.001Z</time>
      </trkpt>
      <trkpt lat="49.17634" lon="6.72825">
        <ele>233</ele>
        <time>2020-01-21T15:18:49.001Z</time>
      </trkpt>
      <trkpt lat="49.17634" lon="6.72807">
        <ele>233</ele>
        <time>2020-01-21T15:18:59.001Z</time>
      </trkpt>
      <trkpt lat="49.17635" lon="6.72788">
        <ele>233</ele>
        <time>2020-01-21T15:19:09.001Z</time>
      </trkpt>
      <trkpt lat="49.17636" lon="6.7277">
        <ele>233</ele>
        <time>2020-01-21T15:19:19.001Z</time>
      </trkpt>
      <trkpt lat="49.17638" lon="6.72751">
        <ele>233</ele>
        <time>2020-01-21T15:19:29.001Z</time>
      </trkpt>
      <trkpt lat="49.1764" lon="6.72731">
        <ele>235</ele>
        <time>2020-01-21T15:19:39.001Z</time>
      </trkpt>
      <trkpt lat="49.1764" lon="6.7271">
        <ele>235</ele>
        <time>2020-01-21T15:19:49.001Z</time>
      </trkpt>
      <trkpt lat="49.17643" lon="6.72687">
        <ele>235</ele>
        <time>2020-01-21T15:19:59.001Z</time>
      </trkpt>
      <trkpt lat="49.17646" lon="6.72668">
        <ele>235</ele>
        <time>2020-01-21T15:20:09.001Z</time>
      </trkpt>
      <trkpt lat="49.1765" lon="6.72649">
        <ele>235</ele>
        <time>2020-01-21T15:20:19.001Z</time>
      </trkpt>
      <trkpt lat="49.17654" lon="6.72631">
        <ele>236</ele>
        <time>2020-01-21T15:20:29.001Z</time>
      </trkpt>
      <trkpt lat="49.1766" lon="6.72612">
        <ele>235</ele>
        <time>2020-01-21T15:20:39.001Z</time>
      </trkpt>
      <trkpt lat="49.17666" lon="6.72596">
        <ele>235</ele>
        <time>2020-01-21T15:20:49.001Z</time>
      </trkpt>
      <trkpt lat="49.17673" lon="6.72579">
        <ele>236</ele>
        <time>2020-01-21T15:20:59.001Z</time>
      </trkpt>
      <trkpt lat="49.17678" lon="6.72565">
        <ele>238</ele>
        <time>2020-01-21T15:21:09.001Z</time>
      </trkpt>
      <trkpt lat="49.17683" lon="6.72546">
        <ele>239</ele>
        <time>2020-01-21T15:21:19.001Z</time>
      </trkpt>
      <trkpt lat="49.17688" lon="6.72527">
        <ele>239</ele>
        <time>2020-01-21T15:21:29.001Z</time>
      </trkpt>
      <trkpt lat="49.1769" lon="6.72511">
        <ele>239</ele>
        <time>2020-01-21T15:21:39.001Z</time>
      </trkpt>
      <trkpt lat="49.17685" lon="6.72498">
        <ele>240</ele>
        <time>2020-01-21T15:21:49.001Z</time>
      </trkpt>
      <trkpt lat="49.17677" lon="6.72487">
        <ele>240</ele>
        <time>2020-01-21T15:21:59.001Z</time>
      </trkpt>
      <trkpt lat="49.17672" lon="6.72476">
        <ele>241</ele>
        <time>2020-01-21T15:22:09.001Z</time>
      </trkpt>
      <trkpt lat="49.17667" lon="6.72462">
        <ele>240</ele>
        <time>2020-01-21T15:22:19.001Z</time>
      </trkpt>
      <trkpt lat="49.17661" lon="6.7245">
        <ele>241</ele>
        <time>2020-01-21T15:22:29.001Z</time>
      </trkpt>
      <trkpt lat="49.17656" lon="6.72438">
        <ele>242</ele>
        <time>2020-01-21T15:22:39.001Z</time>
      </trkpt>
      <trkpt lat="49.17651" lon="6.72422">
        <ele>243</ele>
        <time>2020-01-21T15:22:49.001Z</time>
      </trkpt>
      <trkpt lat="49.17645" lon="6.72406">
        <ele>246</ele>
        <time>2020-01-21T15:22:59.001Z</time>
      </trkpt>
      <trkpt lat="49.1764" lon="6.72389">
        <ele>246</ele>
        <time>2020-01-21T15:23:09.001Z</time>
      </trkpt>
      <trkpt lat="49.17632" lon="6.72376">
        <ele>246</ele>
        <time>2020-01-21T15:23:19.001Z</time>
      </trkpt>
      <trkpt lat="49.17625" lon="6.72361">
        <ele>246</ele>
        <time>2020-01-21T15:23:29.001Z</time>
      </trkpt>
      <trkpt lat="49.17618" lon="6.72344">
        <ele>246</ele>
        <time>2020-01-21T15:23:39.001Z</time>
      </trkpt>
      <trkpt lat="49.17613" lon="6.72329">
        <ele>249</ele>
        <time>2020-01-21T15:23:49.001Z</time>
      </trkpt>
      <trkpt lat="49.17606" lon="6.72313">
        <ele>249</ele>
        <time>2020-01-21T15:23:59.001Z</time>
      </trkpt>
      <trkpt lat="49.17598" lon="6.72298">
        <ele>250</ele>
        <time>2020-01-21T15:24:09.001Z</time>
      </trkpt>
      <trkpt lat="49.17592" lon="6.72282">
        <ele>250</ele>
        <time>2020-01-21T15:24:19.001Z</time>
      </trkpt>
      <trkpt lat="49.17587" lon="6.72265">
        <ele>250</ele>
        <time>2020-01-21T15:24:29.001Z</time>
      </trkpt>
      <trkpt lat="49.17582" lon="6.72251">
        <ele>249</ele>
        <time>2020-01-21T15:24:39.001Z</time>
      </trkpt>
      <trkpt lat="49.17577" lon="6.72235">
        <ele>250</ele>
        <time>2020-01-21T15:24:49.001Z</time>
      </trkpt>
      <trkpt lat="49.17573" lon="6.72219">
        <ele>251</ele>
        <time>2020-01-21T15:24:59.001Z</time>
      </trkpt>
      <trkpt lat="49.17569" lon="6.72203">
        <ele>252</ele>
        <time>2020-01-21T15:25:09.001Z</time>
      </trkpt>
      <trkpt lat="49.17563" lon="6.72186">
        <ele>253</ele>
        <time>2020-01-21T15:25:19.001Z</time>
      </trkpt>
      <trkpt lat="49.17559" lon="6.7217">
        <ele>253</ele>
        <time>2020-01-21T15:25:29.001Z</time>
      </trkpt>
      <trkpt lat="49.17555" lon="6.72155">
        <ele>255</ele>
        <time>2020-01-21T15:25:39.001Z</time>
      </trkpt>
      <trkpt lat="49.17555" lon="6.72138">
        <ele>255</ele>
        <time>2020-01-21T15:25:49.001Z</time>
      </trkpt>
      <trkpt lat="49.17558" lon="6.72117">
        <ele>255</ele>
        <time>2020-01-21T15:25:59.001Z</time>
      </trkpt>
      <trkpt lat="49.17562" lon="6.72098">
        <ele>256</ele>
        <time>2020-01-21T15:26:09.001Z</time>
      </trkpt>
      <trkpt lat="49.17563" lon="6.72077">
        <ele>255</ele>
        <time>2020-01-21T15:26:19.001Z</time>
      </trkpt>
      <trkpt lat="49.17568" lon="6.72062">
        <ele>255</ele>
        <time>2020-01-21T15:26:29.001Z</time>
      </trkpt>
      <trkpt lat="49.17575" lon="6.72052">
        <ele>255</ele>
        <time>2020-01-21T15:26:39.001Z</time>
      </trkpt>
      <trkpt lat="49.17584" lon="6.72039">
        <ele>257</ele>
        <time>2020-01-21T15:26:49.001Z</time>
      </trkpt>
      <trkpt lat="49.17594" lon="6.72026">
        <ele>257</ele>
        <time>2020-01-21T15:26:59.001Z</time>
      </trkpt>
      <trkpt lat="49.17604" lon="6.72018">
        <ele>257</ele>
        <time>2020-01-21T15:27:09.001Z</time>
      </trkpt>
      <trkpt lat="49.17615" lon="6.72009">
        <ele>257</ele>
        <time>2020-01-21T15:27:19.001Z</time>
      </trkpt>
      <trkpt lat="49.17625" lon="6.72003">
        <ele>258</ele>
        <time>2020-01-21T15:27:29.001Z</time>
      </trkpt>
      <trkpt lat="49.17634" lon="6.72">
        <ele>256</ele>
        <time>2020-01-21T15:27:39.001Z</time>
      </trkpt>
      <trkpt lat="49.17639" lon="6.71997">
        <ele>256</ele>
        <time>2020-01-21T15:27:49.001Z</time>
      </trkpt>
      <trkpt lat="49.17645" lon="6.7199">
        <ele>257</ele>
        <time>2020-01-21T15:27:59.001Z</time>
      </trkpt>
      <trkpt lat="49.17646" lon="6.71983">
        <ele>257</ele>
        <time>2020-01-21T15:28:09.001Z</time>
      </trkpt>
      <trkpt lat="49.17649" lon="6.71975">
        <ele>256</ele>
        <time>2020-01-21T15:28:19.001Z</time>
      </trkpt>
      <trkpt lat="49.17651" lon="6.71962">
        <ele>256</ele>
        <time>2020-01-21T15:28:29.001Z</time>
      </trkpt>
      <trkpt lat="49.17652" lon="6.71954">
        <ele>256</ele>
        <time>2020-01-21T15:28:39.001Z</time>
      </trkpt>
      <trkpt lat="49.17655" lon="6.71944">
        <ele>256</ele>
        <time>2020-01-21T15:28:49.001Z</time>
      </trkpt>
      <trkpt lat="49.17652" lon="6.71932">
        <ele>256</ele>
        <time>2020-01-21T15:28:59.001Z</time>
      </trkpt>
      <trkpt lat="49.17646" lon="6.7192">
        <ele>256</ele>
        <time>2020-01-21T15:29:09.001Z</time>
      </trkpt>
      <trkpt lat="49.17645" lon="6.71907">
        <ele>255</ele>
        <time>2020-01-21T15:29:19.001Z</time>
      </trkpt>
      <trkpt lat="49.17647" lon="6.71892">
        <ele>254</ele>
        <time>2020-01-21T15:29:29.001Z</time>
      </trkpt>
      <trkpt lat="49.17646" lon="6.71876">
        <ele>254</ele>
        <time>2020-01-21T15:29:39.001Z</time>
      </trkpt>
      <trkpt lat="49.17642" lon="6.71854">
        <ele>253</ele>
        <time>2020-01-21T15:29:49.001Z</time>
      </trkpt>
      <trkpt lat="49.17648" lon="6.71847">
        <ele>254</ele>
        <time>2020-01-21T15:29:59.001Z</time>
      </trkpt>
      <trkpt lat="49.17655" lon="6.71837">
        <ele>254</ele>
        <time>2020-01-21T15:30:09.001Z</time>
      </trkpt>
      <trkpt lat="49.17663" lon="6.71826">
        <ele>254</ele>
        <time>2020-01-21T15:30:19.001Z</time>
      </trkpt>
      <trkpt lat="49.17673" lon="6.71813">
        <ele>255</ele>
        <time>2020-01-21T15:30:29.001Z</time>
      </trkpt>
      <trkpt lat="49.17681" lon="6.71803">
        <ele>255</ele>
        <time>2020-01-21T15:30:39.001Z</time>
      </trkpt>
      <trkpt lat="49.17683" lon="6.71786">
        <ele>255</ele>
        <time>2020-01-21T15:30:49.001Z</time>
      </trkpt>
      <trkpt lat="49.17685" lon="6.71767">
        <ele>254</ele>
        <time>2020-01-21T15:30:59.001Z</time>
      </trkpt>
      <trkpt lat="49.17686" lon="6.71748">
        <ele>252</ele>
        <time>2020-01-21T15:31:09.001Z</time>
      </trkpt>
      <trkpt lat="49.17683" lon="6.71736">
        <ele>252</ele>
        <time>2020-01-21T15:31:19.001Z</time>
      </trkpt>
      <trkpt lat="49.17673" lon="6.71738">
        <ele>252</ele>
        <time>2020-01-21T15:31:29.001Z</time>
      </trkpt>
      <trkpt lat="49.17664" lon="6.7174">
        <ele>251</ele>
        <time>2020-01-21T15:31:39.001Z</time>
      </trkpt>
      <trkpt lat="49.17654" lon="6.71738">
        <ele>250</ele>
        <time>2020-01-21T15:31:49.001Z</time>
      </trkpt>
      <trkpt lat="49.17645" lon="6.71737">
        <ele>250</ele>
        <time>2020-01-21T15:31:59.001Z</time>
      </trkpt>
      <trkpt lat="49.17635" lon="6.71736">
        <ele>250</ele>
        <time>2020-01-21T15:32:09.001Z</time>
      </trkpt>
      <trkpt lat="49.17622" lon="6.71739">
        <ele>249</ele>
        <time>2020-01-21T15:32:19.001Z</time>
      </trkpt>
      <trkpt lat="49.17609" lon="6.71741">
        <ele>249</ele>
        <time>2020-01-21T15:32:29.001Z</time>
      </trkpt>
      <trkpt lat="49.17599" lon="6.71744">
        <ele>248</ele>
        <time>2020-01-21T15:32:39.001Z</time>
      </trkpt>
      <trkpt lat="49.17588" lon="6.7175">
        <ele>248</ele>
        <time>2020-01-21T15:32:49.001Z</time>
      </trkpt>
      <trkpt lat="49.17576" lon="6.71757">
        <ele>247</ele>
        <time>2020-01-21T15:32:59.001Z</time>
      </trkpt>
      <trkpt lat="49.17562" lon="6.7176">
        <ele>247</ele>
        <time>2020-01-21T15:33:09.001Z</time>
      </trkpt>
      <trkpt lat="49.17554" lon="6.71746">
        <ele>246</ele>
        <time>2020-01-21T15:33:19.001Z</time>
      </trkpt>
      <trkpt lat="49.17548" lon="6.71727">
        <ele>246</ele>
        <time>2020-01-21T15:33:29.001Z</time>
      </trkpt>
      <trkpt lat="49.17547" lon="6.7171">
        <ele>246</ele>
        <time>2020-01-21T15:33:39.001Z</time>
      </trkpt>
      <trkpt lat="49.17544" lon="6.71695">
        <ele>246</ele>
        <time>2020-01-21T15:33:49.001Z</time>
      </trkpt>
      <trkpt lat="49.17542" lon="6.71678">
        <ele>246</ele>
        <time>2020-01-21T15:33:59.001Z</time>
      </trkpt>
      <trkpt lat="49.17544" lon="6.71663">
        <ele>245</ele>
        <time>2020-01-21T15:34:09.001Z</time>
      </trkpt>
      <trkpt lat="49.17547" lon="6.71646">
        <ele>245</ele>
        <time>2020-01-21T15:34:19.001Z</time>
      </trkpt>
      <trkpt lat="49.1755" lon="6.7163">
        <ele>245</ele>
        <time>2020-01-21T15:34:29.001Z</time>
      </trkpt>
      <trkpt lat="49.17556" lon="6.71613">
        <ele>245</ele>
        <time>2020-01-21T15:34:39.001Z</time>
      </trkpt>
      <trkpt lat="49.1756" lon="6.71596">
        <ele>246</ele>
        <time>2020-01-21T15:34:49.001Z</time>
      </trkpt>
      <trkpt lat="49.17564" lon="6.71579">
        <ele>245</ele>
        <time>2020-01-21T15:34:59.001Z</time>
      </trkpt>
      <trkpt lat="49.17566" lon="6.71563">
        <ele>245</ele>
        <time>2020-01-21T15:35:09.001Z</time>
      </trkpt>
      <trkpt lat="49.17571" lon="6.7155">
        <ele>245</ele>
        <time>2020-01-21T15:35:19.001Z</time>
      </trkpt>
      <trkpt lat="49.17571" lon="6.71537">
        <ele>244</ele>
        <time>2020-01-21T15:35:29.001Z</time>
      </trkpt>
      <trkpt lat="49.17566" lon="6.71526">
        <ele>244</ele>
        <time>2020-01-21T15:35:39.001Z</time>
      </trkpt>
      <trkpt lat="49.17561" lon="6.71509">
        <ele>244</ele>
        <time>2020-01-21T15:35:49.001Z</time>
      </trkpt>
      <trkpt lat="49.17556" lon="6.71495">
        <ele>245</ele>
        <time>2020-01-21T15:35:59.001Z</time>
      </trkpt>
      <trkpt lat="49.17551" lon="6.71482">
        <ele>245</ele>
        <time>2020-01-21T15:36:09.001Z</time>
      </trkpt>
      <trkpt lat="49.17542" lon="6.7147">
        <ele>246</ele>
        <time>2020-01-21T15:36:19.001Z</time>
      </trkpt>
      <trkpt lat="49.17535" lon="6.71456">
        <ele>246</ele>
        <time>2020-01-21T15:36:29.001Z</time>
      </trkpt>
      <trkpt lat="49.17527" lon="6.71441">
        <ele>247</ele>
        <time>2020-01-21T15:36:39.001Z</time>
      </trkpt>
      <trkpt lat="49.17519" lon="6.71428">
        <ele>248</ele>
        <time>2020-01-21T15:36:49.001Z</time>
      </trkpt>
      <trkpt lat="49.1751" lon="6.71419">
        <ele>249</ele>
        <time>2020-01-21T15:36:59.001Z</time>
      </trkpt>
      <trkpt lat="49.17501" lon="6.71404">
        <ele>251</ele>
        <time>2020-01-21T15:37:09.001Z</time>
      </trkpt>
      <trkpt lat="49.1749" lon="6.7139">
        <ele>252</ele>
        <time>2020-01-21T15:37:19.001Z</time>
      </trkpt>
      <trkpt lat="49.17481" lon="6.71378">
        <ele>253</ele>
        <time>2020-01-21T15:37:29.001Z</time>
      </trkpt>
      <trkpt lat="49.17474" lon="6.71364">
        <ele>254</ele>
        <time>2020-01-21T15:37:39.001Z</time>
      </trkpt>
      <trkpt lat="49.17467" lon="6.71351">
        <ele>254</ele>
        <time>2020-01-21T15:37:49.001Z</time>
      </trkpt>
      <trkpt lat="49.17458" lon="6.71342">
        <ele>254</ele>
        <time>2020-01-21T15:37:59.001Z</time>
      </trkpt>
      <trkpt lat="49.17449" lon="6.71329">
        <ele>258</ele>
        <time>2020-01-21T15:38:09.001Z</time>
      </trkpt>
      <trkpt lat="49.1744" lon="6.71317">
        <ele>258</ele>
        <time>2020-01-21T15:38:19.001Z</time>
      </trkpt>
      <trkpt lat="49.17432" lon="6.71307">
        <ele>258</ele>
        <time>2020-01-21T15:38:29.001Z</time>
      </trkpt>
      <trkpt lat="49.17422" lon="6.71296">
        <ele>259</ele>
        <time>2020-01-21T15:38:39.001Z</time>
      </trkpt>
      <trkpt lat="49.17411" lon="6.71284">
        <ele>257</ele>
        <time>2020-01-21T15:38:49.001Z</time>
      </trkpt>
      <trkpt lat="49.17399" lon="6.71274">
        <ele>257</ele>
        <time>2020-01-21T15:38:59.001Z</time>
      </trkpt>
      <trkpt lat="49.17389" lon="6.71266">
        <ele>257</ele>
        <time>2020-01-21T15:39:09.001Z</time>
      </trkpt>
      <trkpt lat="49.17379" lon="6.71255">
        <ele>257</ele>
        <time>2020-01-21T15:39:19.001Z</time>
      </trkpt>
      <trkpt lat="49.17368" lon="6.71244">
        <ele>261</ele>
        <time>2020-01-21T15:39:29.001Z</time>
      </trkpt>
      <trkpt lat="49.17357" lon="6.71231">
        <ele>260</ele>
        <time>2020-01-21T15:39:39.001Z</time>
      </trkpt>
      <trkpt lat="49.17349" lon="6.71219">
        <ele>261</ele>
        <time>2020-01-21T15:39:49.001Z</time>
      </trkpt>
      <trkpt lat="49.1734" lon="6.71206">
        <ele>261</ele>
        <time>2020-01-21T15:39:59.001Z</time>
      </trkpt>
      <trkpt lat="49.17329" lon="6.7119">
        <ele>257</ele>
        <time>2020-01-21T15:40:09.001Z</time>
      </trkpt>
      <trkpt lat="49.17317" lon="6.71172">
        <ele>258</ele>
        <time>2020-01-21T15:40:19.001Z</time>
      </trkpt>
      <trkpt lat="49.1731" lon="6.7116">
        <ele>259</ele>
        <time>2020-01-21T15:40:29.001Z</time>
      </trkpt>
      <trkpt lat="49.173" lon="6.71147">
        <ele>257</ele>
        <time>2020-01-21T15:40:39.001Z</time>
      </trkpt>
      <trkpt lat="49.1729" lon="6.71134">
        <ele>257</ele>
        <time>2020-01-21T15:40:49.001Z</time>
      </trkpt>
      <trkpt lat="49.17281" lon="6.71116">
        <ele>256</ele>
        <time>2020-01-21T15:40:59.001Z</time>
      </trkpt>
      <trkpt lat="49.17273" lon="6.71103">
        <ele>255</ele>
        <time>2020-01-21T15:41:09.001Z</time>
      </trkpt>
      <trkpt lat="49.17271" lon="6.71081">
        <ele>254</ele>
        <time>2020-01-21T15:41:19.001Z</time>
      </trkpt>
      <trkpt lat="49.17268" lon="6.71064">
        <ele>254</ele>
        <time>2020-01-21T15:41:29.001Z</time>
      </trkpt>
      <trkpt lat="49.17266" lon="6.71047">
        <ele>254</ele>
        <time>2020-01-21T15:41:39.001Z</time>
      </trkpt>
      <trkpt lat="49.17268" lon="6.71031">
        <ele>254</ele>
        <time>2020-01-21T15:41:49.001Z</time>
      </trkpt>
      <trkpt lat="49.17272" lon="6.71014">
        <ele>254</ele>
        <time>2020-01-21T15:41:59.001Z</time>
      </trkpt>
      <trkpt lat="49.17275" lon="6.70997">
        <ele>253</ele>
        <time>2020-01-21T15:42:09.001Z</time>
      </trkpt>
      <trkpt lat="49.17273" lon="6.70979">
        <ele>253</ele>
        <time>2020-01-21T15:42:19.001Z</time>
      </trkpt>
      <trkpt lat="49.17266" lon="6.70971">
        <ele>252</ele>
        <time>2020-01-21T15:42:29.001Z</time>
      </trkpt>
      <trkpt lat="49.1727" lon="6.70957">
        <ele>253</ele>
        <time>2020-01-21T15:42:39.001Z</time>
      </trkpt>
      <trkpt lat="49.17273" lon="6.70941">
        <ele>252</ele>
        <time>2020-01-21T15:42:49.001Z</time>
      </trkpt>
      <trkpt lat="49.17272" lon="6.70921">
        <ele>252</ele>
        <time>2020-01-21T15:42:59.001Z</time>
      </trkpt>
      <trkpt lat="49.17275" lon="6.70901">
        <ele>252</ele>
        <time>2020-01-21T15:43:09.001Z</time>
      </trkpt>
      <trkpt lat="49.17284" lon="6.70875">
        <ele>252</ele>
        <time>2020-01-21T15:43:19.001Z</time>
      </trkpt>
      <trkpt lat="49.17294" lon="6.70859">
        <ele>252</ele>
        <time>2020-01-21T15:43:29.001Z</time>
      </trkpt>
      <trkpt lat="49.17302" lon="6.70844">
        <ele>252</ele>
        <time>2020-01-21T15:43:39.001Z</time>
      </trkpt>
      <trkpt lat="49.17308" lon="6.70832">
        <ele>252</ele>
        <time>2020-01-21T15:43:49.001Z</time>
      </trkpt>
      <trkpt lat="49.17313" lon="6.70822">
        <ele>252</ele>
        <time>2020-01-21T15:43:59.001Z</time>
      </trkpt>
      <trkpt lat="49.1732" lon="6.70815">
        <ele>252</ele>
        <time>2020-01-21T15:44:09.001Z</time>
      </trkpt>
      <trkpt lat="49.17328" lon="6.7081">
        <ele>252</ele>
        <time>2020-01-21T15:44:19.001Z</time>
      </trkpt>
      <trkpt lat="49.17329" lon="6.70813">
        <ele>252</ele>
        <time>2020-01-21T15:44:29.001Z</time>
      </trkpt>
      <trkpt lat="49.17327" lon="6.70809">
        <ele>252</ele>
        <time>2020-01-21T15:46:35.001Z</time>
      </trkpt>
      <trkpt lat="49.17327" lon="6.70807">
        <ele>252</ele>
        <time>2020-01-21T15:48:27.001Z</time>
      </trkpt>
      <trkpt lat="49.1733" lon="6.70803">
        <ele>252</ele>
        <time>2020-01-21T15:48:37.001Z</time>
      </trkpt>
      <trkpt lat="49.1733" lon="6.70802">
        <ele>252</ele>
        <time>2020-01-21T15:48:54.001Z</time>
      </trkpt>
      <trkpt lat="49.17333" lon="6.70803">
        <ele>252</ele>
        <time>2020-01-21T15:49:04.001Z</time>
      </trkpt>
      <trkpt lat="49.17336" lon="6.708">
        <ele>254</ele>
        <time>2020-01-21T15:49:14.001Z</time>
      </trkpt>
      <trkpt lat="49.17341" lon="6.70794">
        <ele>254</ele>
        <time>2020-01-21T15:49:52.001Z</time>
      </trkpt>
      <trkpt lat="49.17341" lon="6.7078">
        <ele>254</ele>
        <time>2020-01-21T15:50:02.000Z</time>
      </trkpt>
      <trkpt lat="49.17346" lon="6.70763">
        <ele>253</ele>
        <time>2020-01-21T15:50:11.001Z</time>
      </trkpt>
      <trkpt lat="49.17355" lon="6.70747">
        <ele>252</ele>
        <time>2020-01-21T15:50:21.001Z</time>
      </trkpt>
      <trkpt lat="49.17364" lon="6.70733">
        <ele>252</ele>
        <time>2020-01-21T15:50:31.001Z</time>
      </trkpt>
      <trkpt lat="49.17377" lon="6.70716">
        <ele>252</ele>
        <time>2020-01-21T15:50:41.001Z</time>
      </trkpt>
      <trkpt lat="49.17385" lon="6.70703">
        <ele>252</ele>
        <time>2020-01-21T15:50:51.001Z</time>
      </trkpt>
      <trkpt lat="49.17395" lon="6.70694">
        <ele>252</ele>
        <time>2020-01-21T15:51:01.001Z</time>
      </trkpt>
      <trkpt lat="49.17405" lon="6.70679">
        <ele>252</ele>
        <time>2020-01-21T15:51:11.001Z</time>
      </trkpt>
      <trkpt lat="49.17413" lon="6.70668">
        <ele>252</ele>
        <time>2020-01-21T15:51:21.001Z</time>
      </trkpt>
      <trkpt lat="49.17418" lon="6.70655">
        <ele>253</ele>
        <time>2020-01-21T15:51:31.001Z</time>
      </trkpt>
      <trkpt lat="49.17425" lon="6.70639">
        <ele>254</ele>
        <time>2020-01-21T15:51:41.001Z</time>
      </trkpt>
      <trkpt lat="49.1743" lon="6.70631">
        <ele>254</ele>
        <time>2020-01-21T15:51:51.001Z</time>
      </trkpt>
      <trkpt lat="49.17428" lon="6.70631">
        <ele>254</ele>
        <time>2020-01-21T15:52:43.001Z</time>
      </trkpt>
      <trkpt lat="49.17437" lon="6.70619">
        <ele>255</ele>
        <time>2020-01-21T15:52:53.001Z</time>
      </trkpt>
      <trkpt lat="49.17443" lon="6.70604">
        <ele>255</ele>
        <time>2020-01-21T15:53:03.001Z</time>
      </trkpt>
      <trkpt lat="49.17448" lon="6.70587">
        <ele>255</ele>
        <time>2020-01-21T15:53:13.001Z</time>
      </trkpt>
      <trkpt lat="49.17455" lon="6.70571">
        <ele>258</ele>
        <time>2020-01-21T15:53:23.001Z</time>
      </trkpt>
      <trkpt lat="49.17461" lon="6.7055">
        <ele>258</ele>
        <time>2020-01-21T15:53:33.001Z</time>
      </trkpt>
      <trkpt lat="49.17466" lon="6.70532">
        <ele>259</ele>
        <time>2020-01-21T15:53:43.001Z</time>
      </trkpt>
      <trkpt lat="49.17472" lon="6.70514">
        <ele>259</ele>
        <time>2020-01-21T15:53:53.001Z</time>
      </trkpt>
      <trkpt lat="49.17478" lon="6.70497">
        <ele>260</ele>
        <time>2020-01-21T15:54:03.001Z</time>
      </trkpt>
      <trkpt lat="49.17484" lon="6.70478">
        <ele>260</ele>
        <time>2020-01-21T15:54:13.001Z</time>
      </trkpt>
      <trkpt lat="49.1749" lon="6.7046">
        <ele>260</ele>
        <time>2020-01-21T15:54:23.001Z</time>
      </trkpt>
      <trkpt lat="49.17493" lon="6.70442">
        <ele>259</ele>
        <time>2020-01-21T15:54:33.001Z</time>
      </trkpt>
      <trkpt lat="49.17496" lon="6.70426">
        <ele>258</ele>
        <time>2020-01-21T15:54:43.001Z</time>
      </trkpt>
      <trkpt lat="49.17497" lon="6.70407">
        <ele>258</ele>
        <time>2020-01-21T15:54:53.001Z</time>
      </trkpt>
      <trkpt lat="49.17497" lon="6.70387">
        <ele>259</ele>
        <time>2020-01-21T15:55:03.001Z</time>
      </trkpt>
      <trkpt lat="49.175" lon="6.70368">
        <ele>260</ele>
        <time>2020-01-21T15:55:13.001Z</time>
      </trkpt>
      <trkpt lat="49.17505" lon="6.70349">
        <ele>260</ele>
        <time>2020-01-21T15:55:23.001Z</time>
      </trkpt>
      <trkpt lat="49.17511" lon="6.70331">
        <ele>260</ele>
        <time>2020-01-21T15:55:33.001Z</time>
      </trkpt>
      <trkpt lat="49.17519" lon="6.70315">
        <ele>260</ele>
        <time>2020-01-21T15:55:43.001Z</time>
      </trkpt>
      <trkpt lat="49.17531" lon="6.70299">
        <ele>261</ele>
        <time>2020-01-21T15:55:53.001Z</time>
      </trkpt>
      <trkpt lat="49.17541" lon="6.70285">
        <ele>261</ele>
        <time>2020-01-21T15:56:03.001Z</time>
      </trkpt>
      <trkpt lat="49.1755" lon="6.70271">
        <ele>261</ele>
        <time>2020-01-21T15:56:13.001Z</time>
      </trkpt>
      <trkpt lat="49.17557" lon="6.70257">
        <ele>261</ele>
        <time>2020-01-21T15:56:23.001Z</time>
      </trkpt>
      <trkpt lat="49.17562" lon="6.70243">
        <ele>261</ele>
        <time>2020-01-21T15:56:33.001Z</time>
      </trkpt>
      <trkpt lat="49.17568" lon="6.70225">
        <ele>261</ele>
        <time>2020-01-21T15:56:43.001Z</time>
      </trkpt>
      <trkpt lat="49.17576" lon="6.70207">
        <ele>260</ele>
        <time>2020-01-21T15:56:53.001Z</time>
      </trkpt>
      <trkpt lat="49.17583" lon="6.7019">
        <ele>260</ele>
        <time>2020-01-21T15:57:03.001Z</time>
      </trkpt>
      <trkpt lat="49.1759" lon="6.70176">
        <ele>262</ele>
        <time>2020-01-21T15:57:13.001Z</time>
      </trkpt>
      <trkpt lat="49.17595" lon="6.70164">
        <ele>262</ele>
        <time>2020-01-21T15:57:23.001Z</time>
      </trkpt>
      <trkpt lat="49.176" lon="6.70149">
        <ele>263</ele>
        <time>2020-01-21T15:57:33.001Z</time>
      </trkpt>
      <trkpt lat="49.17609" lon="6.70134">
        <ele>264</ele>
        <time>2020-01-21T15:57:43.001Z</time>
      </trkpt>
      <trkpt lat="49.17617" lon="6.70118">
        <ele>265</ele>
        <time>2020-01-21T15:57:53.001Z</time>
      </trkpt>
      <trkpt lat="49.17623" lon="6.70104">
        <ele>265</ele>
        <time>2020-01-21T15:58:03.001Z</time>
      </trkpt>
      <trkpt lat="49.1763" lon="6.70089">
        <ele>266</ele>
        <time>2020-01-21T15:58:13.001Z</time>
      </trkpt>
      <trkpt lat="49.17637" lon="6.70075">
        <ele>266</ele>
        <time>2020-01-21T15:58:23.001Z</time>
      </trkpt>
      <trkpt lat="49.17643" lon="6.70062">
        <ele>266</ele>
        <time>2020-01-21T15:58:33.001Z</time>
      </trkpt>
      <trkpt lat="49.17649" lon="6.70048">
        <ele>266</ele>
        <time>2020-01-21T15:58:43.001Z</time>
      </trkpt>
      <trkpt lat="49.17657" lon="6.70031">
        <ele>265</ele>
        <time>2020-01-21T15:58:53.001Z</time>
      </trkpt>
      <trkpt lat="49.17664" lon="6.70017">
        <ele>266</ele>
        <time>2020-01-21T15:59:03.001Z</time>
      </trkpt>
      <trkpt lat="49.17671" lon="6.70001">
        <ele>267</ele>
        <time>2020-01-21T15:59:13.001Z</time>
      </trkpt>
      <trkpt lat="49.17676" lon="6.69987">
        <ele>268</ele>
        <time>2020-01-21T15:59:23.001Z</time>
      </trkpt>
      <trkpt lat="49.17682" lon="6.69972">
        <ele>268</ele>
        <time>2020-01-21T15:59:33.001Z</time>
      </trkpt>
      <trkpt lat="49.17687" lon="6.69955">
        <ele>268</ele>
        <time>2020-01-21T15:59:43.001Z</time>
      </trkpt>
      <trkpt lat="49.17694" lon="6.6994">
        <ele>268</ele>
        <time>2020-01-21T15:59:53.001Z</time>
      </trkpt>
      <trkpt lat="49.17701" lon="6.69924">
        <ele>268</ele>
        <time>2020-01-21T16:00:03.001Z</time>
      </trkpt>
      <trkpt lat="49.17712" lon="6.69904">
        <ele>267</ele>
        <time>2020-01-21T16:00:13.001Z</time>
      </trkpt>
      <trkpt lat="49.1772" lon="6.69887">
        <ele>267</ele>
        <time>2020-01-21T16:00:23.001Z</time>
      </trkpt>
      <trkpt lat="49.17726" lon="6.69872">
        <ele>267</ele>
        <time>2020-01-21T16:00:33.001Z</time>
      </trkpt>
      <trkpt lat="49.17732" lon="6.69858">
        <ele>267</ele>
        <time>2020-01-21T16:00:43.001Z</time>
      </trkpt>
      <trkpt lat="49.17738" lon="6.69843">
        <ele>267</ele>
        <time>2020-01-21T16:00:53.001Z</time>
      </trkpt>
      <trkpt lat="49.17744" lon="6.69829">
        <ele>267</ele>
        <time>2020-01-21T16:01:03.001Z</time>
      </trkpt>
      <trkpt lat="49.17753" lon="6.69814">
        <ele>269</ele>
        <time>2020-01-21T16:01:13.001Z</time>
      </trkpt>
      <trkpt lat="49.17764" lon="6.69797">
        <ele>268</ele>
        <time>2020-01-21T16:01:23.001Z</time>
      </trkpt>
      <trkpt lat="49.17774" lon="6.69785">
        <ele>268</ele>
        <time>2020-01-21T16:01:33.001Z</time>
      </trkpt>
      <trkpt lat="49.17782" lon="6.69774">
        <ele>268</ele>
        <time>2020-01-21T16:01:43.001Z</time>
      </trkpt>
      <trkpt lat="49.1778" lon="6.69751">
        <ele>267</ele>
        <time>2020-01-21T16:01:53.001Z</time>
      </trkpt>
      <trkpt lat="49.17771" lon="6.69736">
        <ele>263</ele>
        <time>2020-01-21T16:02:03.001Z</time>
      </trkpt>
      <trkpt lat="49.1776" lon="6.69726">
        <ele>263</ele>
        <time>2020-01-21T16:02:13.001Z</time>
      </trkpt>
      <trkpt lat="49.17751" lon="6.69722">
        <ele>263</ele>
        <time>2020-01-21T16:02:23.001Z</time>
      </trkpt>
      <trkpt lat="49.17746" lon="6.69716">
        <ele>260</ele>
        <time>2020-01-21T16:02:33.001Z</time>
      </trkpt>
      <trkpt lat="49.17743" lon="6.69701">
        <ele>260</ele>
        <time>2020-01-21T16:02:43.001Z</time>
      </trkpt>
      <trkpt lat="49.17736" lon="6.69686">
        <ele>260</ele>
        <time>2020-01-21T16:02:53.001Z</time>
      </trkpt>
      <trkpt lat="49.17728" lon="6.69676">
        <ele>260</ele>
        <time>2020-01-21T16:03:03.001Z</time>
      </trkpt>
      <trkpt lat="49.17726" lon="6.69671">
        <ele>260</ele>
        <time>2020-01-21T16:03:13.001Z</time>
      </trkpt>
      <trkpt lat="49.17725" lon="6.69652">
        <ele>261</ele>
        <time>2020-01-21T16:03:23.001Z</time>
      </trkpt>
      <trkpt lat="49.1772" lon="6.69639">
        <ele>261</ele>
        <time>2020-01-21T16:03:33.001Z</time>
      </trkpt>
      <trkpt lat="49.17714" lon="6.69622">
        <ele>261</ele>
        <time>2020-01-21T16:03:43.001Z</time>
      </trkpt>
      <trkpt lat="49.17712" lon="6.69601">
        <ele>262</ele>
        <time>2020-01-21T16:03:53.001Z</time>
      </trkpt>
      <trkpt lat="49.17709" lon="6.69581">
        <ele>262</ele>
        <time>2020-01-21T16:04:03.001Z</time>
      </trkpt>
      <trkpt lat="49.17704" lon="6.69567">
        <ele>262</ele>
        <time>2020-01-21T16:04:13.001Z</time>
      </trkpt>
      <trkpt lat="49.17695" lon="6.69546">
        <ele>262</ele>
        <time>2020-01-21T16:04:23.001Z</time>
      </trkpt>
      <trkpt lat="49.17688" lon="6.69528">
        <ele>262</ele>
        <time>2020-01-21T16:04:33.001Z</time>
      </trkpt>
      <trkpt lat="49.17685" lon="6.6951">
        <ele>263</ele>
        <time>2020-01-21T16:04:43.001Z</time>
      </trkpt>
      <trkpt lat="49.1768" lon="6.69487">
        <ele>263</ele>
        <time>2020-01-21T16:04:53.001Z</time>
      </trkpt>
      <trkpt lat="49.17679" lon="6.69476">
        <ele>262</ele>
        <time>2020-01-21T16:05:03.001Z</time>
      </trkpt>
      <trkpt lat="49.17676" lon="6.69466">
        <ele>262</ele>
        <time>2020-01-21T16:05:13.001Z</time>
      </trkpt>
      <trkpt lat="49.17672" lon="6.69451">
        <ele>262</ele>
        <time>2020-01-21T16:05:23.001Z</time>
      </trkpt>
      <trkpt lat="49.17665" lon="6.6943">
        <ele>264</ele>
        <time>2020-01-21T16:05:33.001Z</time>
      </trkpt>
      <trkpt lat="49.17657" lon="6.6941">
        <ele>264</ele>
        <time>2020-01-21T16:05:43.001Z</time>
      </trkpt>
      <trkpt lat="49.17649" lon="6.69389">
        <ele>265</ele>
        <time>2020-01-21T16:05:53.001Z</time>
      </trkpt>
      <trkpt lat="49.17642" lon="6.6936">
        <ele>265</ele>
        <time>2020-01-21T16:06:03.001Z</time>
      </trkpt>
      <trkpt lat="49.17637" lon="6.69341">
        <ele>265</ele>
        <time>2020-01-21T16:06:13.001Z</time>
      </trkpt>
      <trkpt lat="49.17632" lon="6.69323">
        <ele>265</ele>
        <time>2020-01-21T16:06:23.001Z</time>
      </trkpt>
      <trkpt lat="49.17629" lon="6.69307">
        <ele>265</ele>
        <time>2020-01-21T16:06:33.001Z</time>
      </trkpt>
      <trkpt lat="49.17627" lon="6.69288">
        <ele>265</ele>
        <time>2020-01-21T16:06:43.001Z</time>
      </trkpt>
      <trkpt lat="49.17622" lon="6.69271">
        <ele>265</ele>
        <time>2020-01-21T16:06:53.001Z</time>
      </trkpt>
      <trkpt lat="49.17616" lon="6.69254">
        <ele>265</ele>
        <time>2020-01-21T16:07:03.001Z</time>
      </trkpt>
      <trkpt lat="49.17609" lon="6.69237">
        <ele>264</ele>
        <time>2020-01-21T16:07:13.001Z</time>
      </trkpt>
      <trkpt lat="49.17602" lon="6.6922">
        <ele>264</ele>
        <time>2020-01-21T16:07:23.001Z</time>
      </trkpt>
      <trkpt lat="49.17595" lon="6.69201">
        <ele>263</ele>
        <time>2020-01-21T16:07:33.001Z</time>
      </trkpt>
      <trkpt lat="49.17588" lon="6.69183">
        <ele>263</ele>
        <time>2020-01-21T16:07:43.001Z</time>
      </trkpt>
      <trkpt lat="49.17583" lon="6.69163">
        <ele>262</ele>
        <time>2020-01-21T16:07:53.001Z</time>
      </trkpt>
      <trkpt lat="49.17581" lon="6.69145">
        <ele>261</ele>
        <time>2020-01-21T16:08:03.001Z</time>
      </trkpt>
      <trkpt lat="49.17585" lon="6.6913">
        <ele>260</ele>
        <time>2020-01-21T16:08:13.001Z</time>
      </trkpt>
      <trkpt lat="49.17603" lon="6.69125">
        <ele>259</ele>
        <time>2020-01-21T16:08:23.001Z</time>
      </trkpt>
      <trkpt lat="49.1762" lon="6.69118">
        <ele>259</ele>
        <time>2020-01-21T16:08:33.001Z</time>
      </trkpt>
      <trkpt lat="49.17633" lon="6.69111">
        <ele>259</ele>
        <time>2020-01-21T16:08:43.001Z</time>
      </trkpt>
      <trkpt lat="49.17645" lon="6.69107">
        <ele>258</ele>
        <time>2020-01-21T16:08:53.001Z</time>
      </trkpt>
      <trkpt lat="49.17657" lon="6.69104">
        <ele>257</ele>
        <time>2020-01-21T16:09:03.001Z</time>
      </trkpt>
      <trkpt lat="49.17669" lon="6.69098">
        <ele>256</ele>
        <time>2020-01-21T16:09:13.001Z</time>
      </trkpt>
      <trkpt lat="49.17682" lon="6.69091">
        <ele>255</ele>
        <time>2020-01-21T16:09:23.001Z</time>
      </trkpt>
      <trkpt lat="49.17693" lon="6.69085">
        <ele>256</ele>
        <time>2020-01-21T16:09:33.001Z</time>
      </trkpt>
      <trkpt lat="49.17705" lon="6.69081">
        <ele>252</ele>
        <time>2020-01-21T16:09:43.001Z</time>
      </trkpt>
      <trkpt lat="49.17717" lon="6.69076">
        <ele>252</ele>
        <time>2020-01-21T16:09:53.001Z</time>
      </trkpt>
      <trkpt lat="49.17729" lon="6.69068">
        <ele>252</ele>
        <time>2020-01-21T16:10:03.001Z</time>
      </trkpt>
      <trkpt lat="49.1774" lon="6.69061">
        <ele>252</ele>
        <time>2020-01-21T16:10:13.001Z</time>
      </trkpt>
      <trkpt lat="49.17753" lon="6.69055">
        <ele>253</ele>
        <time>2020-01-21T16:10:23.001Z</time>
      </trkpt>
      <trkpt lat="49.17765" lon="6.69048">
        <ele>253</ele>
        <time>2020-01-21T16:10:33.001Z</time>
      </trkpt>
      <trkpt lat="49.17777" lon="6.69043">
        <ele>253</ele>
        <time>2020-01-21T16:10:43.001Z</time>
      </trkpt>
      <trkpt lat="49.17789" lon="6.69036">
        <ele>254</ele>
        <time>2020-01-21T16:10:53.001Z</time>
      </trkpt>
      <trkpt lat="49.17801" lon="6.69029">
        <ele>254</ele>
        <time>2020-01-21T16:11:03.001Z</time>
      </trkpt>
      <trkpt lat="49.17813" lon="6.69024">
        <ele>254</ele>
        <time>2020-01-21T16:11:13.001Z</time>
      </trkpt>
      <trkpt lat="49.17826" lon="6.69019">
        <ele>254</ele>
        <time>2020-01-21T16:11:23.001Z</time>
      </trkpt>
      <trkpt lat="49.17838" lon="6.69013">
        <ele>255</ele>
        <time>2020-01-21T16:11:33.001Z</time>
      </trkpt>
      <trkpt lat="49.17851" lon="6.69003">
        <ele>255</ele>
        <time>2020-01-21T16:11:43.001Z</time>
      </trkpt>
      <trkpt lat="49.17863" lon="6.68999">
        <ele>252</ele>
        <time>2020-01-21T16:11:53.001Z</time>
      </trkpt>
      <trkpt lat="49.17875" lon="6.68994">
        <ele>251</ele>
        <time>2020-01-21T16:12:03.001Z</time>
      </trkpt>
      <trkpt lat="49.17888" lon="6.68988">
        <ele>251</ele>
        <time>2020-01-21T16:12:13.001Z</time>
      </trkpt>
      <trkpt lat="49.179" lon="6.68984">
        <ele>251</ele>
        <time>2020-01-21T16:12:23.001Z</time>
      </trkpt>
      <trkpt lat="49.17911" lon="6.68979">
        <ele>251</ele>
        <time>2020-01-21T16:12:33.001Z</time>
      </trkpt>
      <trkpt lat="49.1792" lon="6.68969">
        <ele>251</ele>
        <time>2020-01-21T16:12:43.001Z</time>
      </trkpt>
      <trkpt lat="49.17927" lon="6.6896">
        <ele>250</ele>
        <time>2020-01-21T16:12:53.001Z</time>
      </trkpt>
      <trkpt lat="49.17939" lon="6.68955">
        <ele>250</ele>
        <time>2020-01-21T16:13:03.001Z</time>
      </trkpt>
      <trkpt lat="49.1795" lon="6.68949">
        <ele>250</ele>
        <time>2020-01-21T16:13:13.001Z</time>
      </trkpt>
      <trkpt lat="49.17961" lon="6.68941">
        <ele>249</ele>
        <time>2020-01-21T16:13:23.001Z</time>
      </trkpt>
      <trkpt lat="49.17971" lon="6.68933">
        <ele>249</ele>
        <time>2020-01-21T16:13:33.001Z</time>
      </trkpt>
      <trkpt lat="49.17983" lon="6.68928">
        <ele>248</ele>
        <time>2020-01-21T16:13:43.001Z</time>
      </trkpt>
      <trkpt lat="49.17997" lon="6.68923">
        <ele>247</ele>
        <time>2020-01-21T16:13:53.001Z</time>
      </trkpt>
      <trkpt lat="49.18011" lon="6.68917">
        <ele>247</ele>
        <time>2020-01-21T16:14:03.001Z</time>
      </trkpt>
      <trkpt lat="49.1802" lon="6.68913">
        <ele>246</ele>
        <time>2020-01-21T16:14:13.001Z</time>
      </trkpt>
      <trkpt lat="49.1803" lon="6.6891">
        <ele>246</ele>
        <time>2020-01-21T16:14:23.001Z</time>
      </trkpt>
      <trkpt lat="49.18042" lon="6.68903">
        <ele>246</ele>
        <time>2020-01-21T16:14:33.001Z</time>
      </trkpt>
      <trkpt lat="49.18055" lon="6.68896">
        <ele>247</ele>
        <time>2020-01-21T16:14:43.001Z</time>
      </trkpt>
      <trkpt lat="49.18069" lon="6.68888">
        <ele>247</ele>
        <time>2020-01-21T16:14:53.001Z</time>
      </trkpt>
      <trkpt lat="49.18084" lon="6.68882">
        <ele>250</ele>
        <time>2020-01-21T16:15:03.001Z</time>
      </trkpt>
      <trkpt lat="49.18098" lon="6.68876">
        <ele>250</ele>
        <time>2020-01-21T16:15:13.001Z</time>
      </trkpt>
      <trkpt lat="49.18106" lon="6.68866">
        <ele>250</ele>
        <time>2020-01-21T16:15:23.001Z</time>
      </trkpt>
      <trkpt lat="49.181" lon="6.68851">
        <ele>250</ele>
        <time>2020-01-21T16:15:33.001Z</time>
      </trkpt>
      <trkpt lat="49.1809" lon="6.68842">
        <ele>248</ele>
        <time>2020-01-21T16:15:43.001Z</time>
      </trkpt>
      <trkpt lat="49.1808" lon="6.68834">
        <ele>247</ele>
        <time>2020-01-21T16:15:53.001Z</time>
      </trkpt>
      <trkpt lat="49.18073" lon="6.68821">
        <ele>245</ele>
        <time>2020-01-21T16:16:03.001Z</time>
      </trkpt>
      <trkpt lat="49.18066" lon="6.68806">
        <ele>245</ele>
        <time>2020-01-21T16:16:13.001Z</time>
      </trkpt>
      <trkpt lat="49.18059" lon="6.68793">
        <ele>244</ele>
        <time>2020-01-21T16:16:23.001Z</time>
      </trkpt>
      <trkpt lat="49.1805" lon="6.6878">
        <ele>244</ele>
        <time>2020-01-21T16:16:33.001Z</time>
      </trkpt>
      <trkpt lat="49.18042" lon="6.68769">
        <ele>243</ele>
        <time>2020-01-21T16:16:43.001Z</time>
      </trkpt>
      <trkpt lat="49.18034" lon="6.6876">
        <ele>243</ele>
        <time>2020-01-21T16:16:53.001Z</time>
      </trkpt>
      <trkpt lat="49.18026" lon="6.68747">
        <ele>243</ele>
        <time>2020-01-21T16:17:03.001Z</time>
      </trkpt>
      <trkpt lat="49.18018" lon="6.68737">
        <ele>242</ele>
        <time>2020-01-21T16:17:13.001Z</time>
      </trkpt>
      <trkpt lat="49.18008" lon="6.68722">
        <ele>243</ele>
        <time>2020-01-21T16:17:23.001Z</time>
      </trkpt>
      <trkpt lat="49.17997" lon="6.68706">
        <ele>241</ele>
        <time>2020-01-21T16:17:33.001Z</time>
      </trkpt>
      <trkpt lat="49.17987" lon="6.68689">
        <ele>241</ele>
        <time>2020-01-21T16:17:43.001Z</time>
      </trkpt>
      <trkpt lat="49.17978" lon="6.68672">
        <ele>242</ele>
        <time>2020-01-21T16:17:53.001Z</time>
      </trkpt>
      <trkpt lat="49.17968" lon="6.68658">
        <ele>241</ele>
        <time>2020-01-21T16:18:03.001Z</time>
      </trkpt>
      <trkpt lat="49.17959" lon="6.68647">
        <ele>241</ele>
        <time>2020-01-21T16:18:13.001Z</time>
      </trkpt>
      <trkpt lat="49.17952" lon="6.68634">
        <ele>241</ele>
        <time>2020-01-21T16:18:23.001Z</time>
      </trkpt>
      <trkpt lat="49.17945" lon="6.68619">
        <ele>241</ele>
        <time>2020-01-21T16:18:33.001Z</time>
      </trkpt>
      <trkpt lat="49.17939" lon="6.68605">
        <ele>241</ele>
        <time>2020-01-21T16:18:43.001Z</time>
      </trkpt>
      <trkpt lat="49.17932" lon="6.6859">
        <ele>241</ele>
        <time>2020-01-21T16:18:53.001Z</time>
      </trkpt>
      <trkpt lat="49.17925" lon="6.68574">
        <ele>241</ele>
        <time>2020-01-21T16:19:03.001Z</time>
      </trkpt>
      <trkpt lat="49.17917" lon="6.68557">
        <ele>241</ele>
        <time>2020-01-21T16:19:13.001Z</time>
      </trkpt>
      <trkpt lat="49.17912" lon="6.68541">
        <ele>241</ele>
        <time>2020-01-21T16:19:23.001Z</time>
      </trkpt>
      <trkpt lat="49.17905" lon="6.68526">
        <ele>242</ele>
        <time>2020-01-21T16:19:33.001Z</time>
      </trkpt>
      <trkpt lat="49.17899" lon="6.6851">
        <ele>242</ele>
        <time>2020-01-21T16:19:43.001Z</time>
      </trkpt>
      <trkpt lat="49.17901" lon="6.68491">
        <ele>242</ele>
        <time>2020-01-21T16:19:53.001Z</time>
      </trkpt>
      <trkpt lat="49.17903" lon="6.68472">
        <ele>242</ele>
        <time>2020-01-21T16:20:03.001Z</time>
      </trkpt>
      <trkpt lat="49.17909" lon="6.68456">
        <ele>243</ele>
        <time>2020-01-21T16:20:13.001Z</time>
      </trkpt>
      <trkpt lat="49.17914" lon="6.68446">
        <ele>243</ele>
        <time>2020-01-21T16:20:23.001Z</time>
      </trkpt>
      <trkpt lat="49.17913" lon="6.68443">
        <ele>243</ele>
        <time>2020-01-21T16:20:33.001Z</time>
      </trkpt>
      <trkpt lat="49.17913" lon="6.68442">
        <ele>243</ele>
        <time>2020-01-21T16:20:56.001Z</time>
      </trkpt>
      <trkpt lat="49.17914" lon="6.68428">
        <ele>243</ele>
        <time>2020-01-21T16:21:06.001Z</time>
      </trkpt>
      <trkpt lat="49.17914" lon="6.6842">
        <ele>244</ele>
        <time>2020-01-21T16:21:16.000Z</time>
      </trkpt>
      <trkpt lat="49.17917" lon="6.68409">
        <ele>244</ele>
        <time>2020-01-21T16:21:25.001Z</time>
      </trkpt>
      <trkpt lat="49.1792" lon="6.68394">
        <ele>243</ele>
        <time>2020-01-21T16:21:35.001Z</time>
      </trkpt>
      <trkpt lat="49.17923" lon="6.6837">
        <ele>243</ele>
        <time>2020-01-21T16:21:45.001Z</time>
      </trkpt>
      <trkpt lat="49.17921" lon="6.68346">
        <ele>243</ele>
        <time>2020-01-21T16:21:55.001Z</time>
      </trkpt>
      <trkpt lat="49.17921" lon="6.68325">
        <ele>243</ele>
        <time>2020-01-21T16:22:05.001Z</time>
      </trkpt>
      <trkpt lat="49.17923" lon="6.68308">
        <ele>242</ele>
        <time>2020-01-21T16:22:15.001Z</time>
      </trkpt>
      <trkpt lat="49.17927" lon="6.6829">
        <ele>242</ele>
        <time>2020-01-21T16:22:25.001Z</time>
      </trkpt>
      <trkpt lat="49.17929" lon="6.68274">
        <ele>242</ele>
        <time>2020-01-21T16:22:35.001Z</time>
      </trkpt>
      <trkpt lat="49.17934" lon="6.68258">
        <ele>241</ele>
        <time>2020-01-21T16:22:45.001Z</time>
      </trkpt>
      <trkpt lat="49.1794" lon="6.68241">
        <ele>241</ele>
        <time>2020-01-21T16:22:55.001Z</time>
      </trkpt>
      <trkpt lat="49.17945" lon="6.68223">
        <ele>241</ele>
        <time>2020-01-21T16:23:05.001Z</time>
      </trkpt>
      <trkpt lat="49.1795" lon="6.6821">
        <ele>240</ele>
        <time>2020-01-21T16:23:15.001Z</time>
      </trkpt>
      <trkpt lat="49.17959" lon="6.682">
        <ele>240</ele>
        <time>2020-01-21T16:23:25.001Z</time>
      </trkpt>
      <trkpt lat="49.17967" lon="6.68186">
        <ele>241</ele>
        <time>2020-01-21T16:23:35.001Z</time>
      </trkpt>
      <trkpt lat="49.17976" lon="6.68173">
        <ele>241</ele>
        <time>2020-01-21T16:23:45.001Z</time>
      </trkpt>
      <trkpt lat="49.17985" lon="6.68162">
        <ele>241</ele>
        <time>2020-01-21T16:23:55.001Z</time>
      </trkpt>
      <trkpt lat="49.17995" lon="6.68151">
        <ele>241</ele>
        <time>2020-01-21T16:24:05.001Z</time>
      </trkpt>
      <trkpt lat="49.18005" lon="6.68139">
        <ele>239</ele>
        <time>2020-01-21T16:24:15.001Z</time>
      </trkpt>
      <trkpt lat="49.18016" lon="6.68128">
        <ele>238</ele>
        <time>2020-01-21T16:24:25.001Z</time>
      </trkpt>
      <trkpt lat="49.18026" lon="6.68119">
        <ele>238</ele>
        <time>2020-01-21T16:24:35.001Z</time>
      </trkpt>
      <trkpt lat="49.18034" lon="6.6811">
        <ele>237</ele>
        <time>2020-01-21T16:24:45.001Z</time>
      </trkpt>
      <trkpt lat="49.18043" lon="6.68099">
        <ele>237</ele>
        <time>2020-01-21T16:24:55.001Z</time>
      </trkpt>
      <trkpt lat="49.1805" lon="6.68088">
        <ele>236</ele>
        <time>2020-01-21T16:25:05.001Z</time>
      </trkpt>
      <trkpt lat="49.18056" lon="6.68075">
        <ele>234</ele>
        <time>2020-01-21T16:25:15.001Z</time>
      </trkpt>
      <trkpt lat="49.18062" lon="6.68063">
        <ele>233</ele>
        <time>2020-01-21T16:25:25.001Z</time>
      </trkpt>
      <trkpt lat="49.1806" lon="6.68056">
        <ele>233</ele>
        <time>2020-01-21T16:25:35.001Z</time>
      </trkpt>
      <trkpt lat="49.18056" lon="6.68061">
        <ele>233</ele>
        <time>2020-01-21T16:25:45.001Z</time>
      </trkpt>
      <trkpt lat="49.18048" lon="6.68056">
        <ele>233</ele>
        <time>2020-01-21T16:25:55.001Z</time>
      </trkpt>
      <trkpt lat="49.18037" lon="6.68048">
        <ele>233</ele>
        <time>2020-01-21T16:26:05.001Z</time>
      </trkpt>
      <trkpt lat="49.18027" lon="6.6804">
        <ele>233</ele>
        <time>2020-01-21T16:26:15.001Z</time>
      </trkpt>
      <trkpt lat="49.18017" lon="6.68031">
        <ele>233</ele>
        <time>2020-01-21T16:26:25.001Z</time>
      </trkpt>
      <trkpt lat="49.18005" lon="6.68025">
        <ele>233</ele>
        <time>2020-01-21T16:26:35.001Z</time>
      </trkpt>
      <trkpt lat="49.17993" lon="6.68014">
        <ele>233</ele>
        <time>2020-01-21T16:26:45.001Z</time>
      </trkpt>
      <trkpt lat="49.17978" lon="6.68003">
        <ele>233</ele>
        <time>2020-01-21T16:26:55.001Z</time>
      </trkpt>
      <trkpt lat="49.17965" lon="6.67994">
        <ele>226</ele>
        <time>2020-01-21T16:27:05.001Z</time>
      </trkpt>
      <trkpt lat="49.17954" lon="6.67984">
        <ele>225</ele>
        <time>2020-01-21T16:27:15.001Z</time>
      </trkpt>
      <trkpt lat="49.17943" lon="6.67972">
        <ele>224</ele>
        <time>2020-01-21T16:27:25.001Z</time>
      </trkpt>
      <trkpt lat="49.17933" lon="6.67967">
        <ele>223</ele>
        <time>2020-01-21T16:27:35.001Z</time>
      </trkpt>
      <trkpt lat="49.17924" lon="6.67964">
        <ele>223</ele>
        <time>2020-01-21T16:27:45.001Z</time>
      </trkpt>
      <trkpt lat="49.17914" lon="6.67964">
        <ele>222</ele>
        <time>2020-01-21T16:27:55.001Z</time>
      </trkpt>
      <trkpt lat="49.17898" lon="6.67969">
        <ele>222</ele>
        <time>2020-01-21T16:28:05.001Z</time>
      </trkpt>
      <trkpt lat="49.17888" lon="6.67963">
        <ele>222</ele>
        <time>2020-01-21T16:28:15.001Z</time>
      </trkpt>
      <trkpt lat="49.1789" lon="6.67941">
        <ele>221</ele>
        <time>2020-01-21T16:28:25.001Z</time>
      </trkpt>
      <trkpt lat="49.17891" lon="6.6792">
        <ele>220</ele>
        <time>2020-01-21T16:28:35.001Z</time>
      </trkpt>
      <trkpt lat="49.17887" lon="6.67905">
        <ele>219</ele>
        <time>2020-01-21T16:28:45.001Z</time>
      </trkpt>
      <trkpt lat="49.1788" lon="6.67889">
        <ele>219</ele>
        <time>2020-01-21T16:28:55.001Z</time>
      </trkpt>
      <trkpt lat="49.17871" lon="6.67876">
        <ele>219</ele>
        <time>2020-01-21T16:29:05.001Z</time>
      </trkpt>
      <trkpt lat="49.17861" lon="6.67867">
        <ele>219</ele>
        <time>2020-01-21T16:29:15.001Z</time>
      </trkpt>
      <trkpt lat="49.1785" lon="6.67862">
        <ele>219</ele>
        <time>2020-01-21T16:29:25.001Z</time>
      </trkpt>
      <trkpt lat="49.1784" lon="6.67857">
        <ele>219</ele>
        <time>2020-01-21T16:29:35.001Z</time>
      </trkpt>
      <trkpt lat="49.17833" lon="6.67853">
        <ele>219</ele>
        <time>2020-01-21T16:29:45.001Z</time>
      </trkpt>
      <trkpt lat="49.17824" lon="6.67853">
        <ele>219</ele>
        <time>2020-01-21T16:29:55.001Z</time>
      </trkpt>
      <trkpt lat="49.17813" lon="6.67852">
        <ele>220</ele>
        <time>2020-01-21T16:30:05.001Z</time>
      </trkpt>
      <trkpt lat="49.17802" lon="6.67849">
        <ele>220</ele>
        <time>2020-01-21T16:30:15.001Z</time>
      </trkpt>
      <trkpt lat="49.17794" lon="6.67837">
        <ele>220</ele>
        <time>2020-01-21T16:30:25.001Z</time>
      </trkpt>
      <trkpt lat="49.17786" lon="6.67821">
        <ele>221</ele>
        <time>2020-01-21T16:30:35.001Z</time>
      </trkpt>
      <trkpt lat="49.17778" lon="6.67803">
        <ele>221</ele>
        <time>2020-01-21T16:30:45.001Z</time>
      </trkpt>
      <trkpt lat="49.1777" lon="6.67789">
        <ele>222</ele>
        <time>2020-01-21T16:30:55.001Z</time>
      </trkpt>
      <trkpt lat="49.17759" lon="6.67788">
        <ele>222</ele>
        <time>2020-01-21T16:31:05.001Z</time>
      </trkpt>
      <trkpt lat="49.17752" lon="6.67797">
        <ele>222</ele>
        <time>2020-01-21T16:31:15.001Z</time>
      </trkpt>
      <trkpt lat="49.17745" lon="6.67791">
        <ele>221</ele>
        <time>2020-01-21T16:31:25.001Z</time>
      </trkpt>
      <trkpt lat="49.17742" lon="6.67778">
        <ele>222</ele>
        <time>2020-01-21T16:31:35.001Z</time>
      </trkpt>
      <trkpt lat="49.17739" lon="6.6776">
        <ele>222</ele>
        <time>2020-01-21T16:31:45.001Z</time>
      </trkpt>
      <trkpt lat="49.17744" lon="6.67739">
        <ele>223</ele>
        <time>2020-01-21T16:31:55.001Z</time>
      </trkpt>
      <trkpt lat="49.17744" lon="6.6772">
        <ele>223</ele>
        <time>2020-01-21T16:32:05.001Z</time>
      </trkpt>
      <trkpt lat="49.17746" lon="6.67705">
        <ele>223</ele>
        <time>2020-01-21T16:32:15.001Z</time>
      </trkpt>
      <trkpt lat="49.17746" lon="6.67689">
        <ele>224</ele>
        <time>2020-01-21T16:32:25.001Z</time>
      </trkpt>
      <trkpt lat="49.17746" lon="6.67671">
        <ele>224</ele>
        <time>2020-01-21T16:32:35.001Z</time>
      </trkpt>
      <trkpt lat="49.17745" lon="6.67652">
        <ele>225</ele>
        <time>2020-01-21T16:32:45.001Z</time>
      </trkpt>
      <trkpt lat="49.17745" lon="6.67632">
        <ele>226</ele>
        <time>2020-01-21T16:32:55.001Z</time>
      </trkpt>
      <trkpt lat="49.17742" lon="6.67612">
        <ele>226</ele>
        <time>2020-01-21T16:33:05.001Z</time>
      </trkpt>
      <trkpt lat="49.17741" lon="6.67592">
        <ele>227</ele>
        <time>2020-01-21T16:33:15.001Z</time>
      </trkpt>
      <trkpt lat="49.17732" lon="6.67586">
        <ele>227</ele>
        <time>2020-01-21T16:33:25.001Z</time>
      </trkpt>
      <trkpt lat="49.17728" lon="6.67585">
        <ele>227</ele>
        <time>2020-01-21T16:33:35.001Z</time>
      </trkpt>
      <trkpt lat="49.17727" lon="6.67585">
        <ele>227</ele>
        <time>2020-01-21T16:33:45.001Z</time>
      </trkpt>
      <trkpt lat="49.17726" lon="6.67588">
        <ele>227</ele>
        <time>2020-01-21T16:33:55.001Z</time>
      </trkpt>
      <trkpt lat="49.17717" lon="6.67588">
        <ele>227</ele>
        <time>2020-01-21T16:34:05.001Z</time>
      </trkpt>
      <trkpt lat="49.17716" lon="6.67591">
        <ele>226</ele>
        <time>2020-01-21T16:34:15.001Z</time>
      </trkpt>
      <trkpt lat="49.17716" lon="6.67593">
        <ele>226</ele>
        <time>2020-01-21T16:34:47.001Z</time>
      </trkpt>
      <trkpt lat="49.17725" lon="6.67583">
        <ele>229</ele>
        <time>2020-01-21T16:35:27.001Z</time>
      </trkpt>
      <trkpt lat="49.17725" lon="6.67586">
        <ele>227</ele>
        <time>2020-01-21T16:35:37.001Z</time>
      </trkpt>
      <trkpt lat="49.17722" lon="6.67594">
        <ele>227</ele>
        <time>2020-01-21T16:35:47.001Z</time>
      </trkpt>
      <trkpt lat="49.17721" lon="6.67596">
        <ele>226</ele>
        <time>2020-01-21T16:35:57.001Z</time>
      </trkpt>
      <trkpt lat="49.1772" lon="6.67597">
        <ele>226</ele>
        <time>2020-01-21T16:36:13.001Z</time>
      </trkpt>
      <trkpt lat="49.17721" lon="6.676">
        <ele>226</ele>
        <time>2020-01-21T16:36:23.001Z</time>
      </trkpt>
      <trkpt lat="49.17724" lon="6.67601">
        <ele>226</ele>
        <time>2020-01-21T16:36:33.001Z</time>
      </trkpt>
      <trkpt lat="49.17725" lon="6.67599">
        <ele>226</ele>
        <time>2020-01-21T16:36:43.001Z</time>
      </trkpt>
      <trkpt lat="49.17723" lon="6.67594">
        <ele>227</ele>
        <time>2020-01-21T16:36:53.001Z</time>
      </trkpt>
      <trkpt lat="49.17716" lon="6.67559">
        <ele>229</ele>
        <time>2020-01-21T16:39:10.000Z</time>
      </trkpt>
    </trkseg>
  </trk>
</gpx>